[[{"header":{"parameterUnit":"m.s-1","parameterCategory":1,"la1":30.6,"la2":28.766,"lo1":-90.7593,"lo2":-88.6598,"dy":0.0162,"dx":0.0183,"nx":116,"ny":114,"refTime":"2024-07-09T12:00:00:Z","depth":0,"parameterNumber":2,"parameterNumberName":"U-component_of_WINDS"},"data":[0.0,0.0,0.0,0.0,0.0,0.0,0.0,0.0,0.0,0.0,0.0,0.0,0.0,0.0,0.0,0.0,0.0,0.0,0.0,0.0,0.0,0.0,0.0,0.0,0.0,0.0,0.0,0.0,0.0,0.0,0.0,0.0,0.0,0.0,0.0,0.0,0.0,0.0,0.0,0.0,0.0,0.0,0.0,0.0,0.0,0.0,0.0,0.0,0.0,0.0,0.0,0.0,0.0,0.0,0.0,0.0,0.0,0.0,0.0,0.0,0.0,0.0,0.0,0.0,0.0,0.0,0.0,0.0,0.0,0.0,0.0,0.0,0.0,0.0,0.0,0.0,0.0,0.0,0.0,0.0,0.0,0.0,0.0,0.0,0.0,0.0,0.0,0.0,0.0,0.0,0.0,0.0,0.0,0.0,0.0,0.0,0.0,0.0,0.0,0.0,0.0,0.0,0.0,0.0,0.0,0.0,0.0,0.0,0.0,0.0,0.0,0.0,0.0,0.0,0.0,0.0,0.0,0.0,0.0,0.0,0.0,0.0,0.0,0.0,0.0,0.0,0.0,0.0,0.0,0.0,0.0,0.0,0.0,0.0,0.0,0.0,0.0,0.0,0.0,0.0,0.0,0.0,0.0,0.0,0.0,0.0,0.0,0.0,0.0,0.0,0.0,0.0,0.0,0.0,0.0,0.0,0.0,0.0,0.0,0.0,0.0,0.0,0.0,0.0,0.0,0.0,0.0,0.0,0.0,0.0,0.0,0.0,0.0,0.0,0.0,0.0,0.0,0.0,0.0,0.0,0.0,0.0,0.0,0.0,0.0,0.0,0.0,0.0,0.0,0.0,0.0,0.0,0.0,0.0,0.0,0.0,0.0,0.0,0.0,0.0,0.0,0.0,0.0,0.0,0.0,0.0,0.0,0.0,0.0,0.0,0.0,0.0,0.0,0.0,0.0,0.0,0.0,0.0,0.0,0.0,0.0,0.0,0.0,0.0,0.0,0.0,0.0,0.0,0.0,0.0,0.0,0.0,0.0,0.0,0.0,0.0,0.0,0.0,0.0,0.0,0.0,0.0,0.0,0.0,0.0,0.0,0.0,0.0,0.0,0.0,0.0,0.0,0.0,0.0,0.0,0.0,0.0,0.0,0.0,0.0,0.0,0.0,0.0,0.0,0.0,0.0,0.0,0.0,0.0,0.0,0.0,0.0,0.0,0.0,0.0,0.0,0.0,0.0,0.0,0.0,0.0,0.0,0.0,0.0,0.0,0.0,0.0,0.0,0.0,0.0,0.0,0.0,0.0,0.0,0.0,0.0,0.0,0.0,0.0,0.0,0.0,0.0,0.0,0.0,0.0,0.0,0.0,0.0,0.0,0.0,0.0,0.0,0.0,0.0,0.0,0.0,0.0,0.0,0.0,0.0,0.0,0.0,0.0,0.0,0.0,0.0,0.0,0.0,0.0,0.0,0.0,0.0,0.0,0.0,0.0,0.0,0.0,0.0,0.0,0.0,0.0,0.0,0.0,0.0,0.0,0.0,0.0,0.0,0.0,0.0,0.0,0.0,0.0,0.0,0.0,0.0,0.0,0.0,0.0,0.0,0.0,0.0,0.0,0.0,0.0,0.0,0.0,0.0,0.0,0.0,0.0,0.0,0.0,0.0,0.0,0.0,0.0,0.0,0.0,0.0,0.0,0.0,0.0,0.0,0.0,0.0,0.0,0.0,0.0,0.0,0.0,0.0,0.0,0.0,0.0,0.0,0.0,0.0,0.0,0.0,0.0,0.0,0.0,0.0,0.0,0.0,0.0,0.0,0.0,0.0,0.0,0.0,0.0,0.0,0.0,0.0,0.0,0.0,0.0,0.0,0.0,0.0,0.0,0.0,0.0,0.0,0.0,0.0,0.0,0.0,0.0,0.0,0.0,0.0,0.0,0.0,0.0,0.0,0.0,0.0,0.0,0.0,0.0,0.0,0.0,0.0,0.0,0.0,0.0,0.0,0.0,0.0,0.0,0.0,0.0,0.0,0.0,0.0,0.0,0.0,0.0,0.0,0.0,0.0,0.0,0.0,0.0,0.0,0.0,0.0,0.0,0.0,0.0,0.0,0.0,0.0,0.0,0.0,0.0,0.0,0.0,0.0,0.0,0.0,0.0,0.0,0.0,0.0,0.0,0.0,0.0,0.0,0.0,0.0,0.0,0.0,0.0,0.0,0.0,0.0,0.0,0.0,0.0,0.0,0.0,0.0,0.0,0.0,0.0,0.0,0.0,0.0,0.0,0.0,0.0,0.0,0.0,0.0,0.0,0.0,0.0,0.0,0.0,0.0,0.0,0.0,0.0,0.0,0.0,0.0,0.0,0.0,0.0,0.0,0.0,0.0,0.0,0.0,0.0,0.0,0.0,0.0,0.0,0.0,0.0,0.0,0.0,0.0,0.0,0.0,0.0,0.0,0.0,0.0,0.0,0.0,0.0,0.0,0.0,0.0,0.0,0.0,0.0,0.0,0.0,0.0,0.0,0.0,0.0,0.0,0.0,0.0,0.0,0.0,0.0,0.0,0.0,0.0,0.0,0.0,0.0,0.0,0.0,0.0,0.0,0.0,0.0,0.0,0.0,0.0,0.0,0.0,0.0,0.0,0.0,0.0,0.0,0.0,0.0,0.0,0.0,0.0,0.0,0.0,0.0,0.0,0.0,0.0,0.0,0.0,0.0,0.0,0.0,0.0,0.0,0.0,0.0,0.0,0.0,0.0,0.0,0.0,0.0,0.0,0.0,0.0,0.0,0.0,0.0,0.0,0.0,0.0,0.0,0.0,0.0,0.0,0.0,0.0,0.0,0.0,0.0,0.0,0.0,0.0,0.0,0.0,0.0,0.0,0.0,0.0,0.0,0.0,0.0,0.0,0.0,0.0,0.0,0.0,0.0,0.0,0.0,0.0,0.0,0.0,0.0,0.0,0.0,0.0,0.0,0.0,0.0,0.0,0.0,0.0,0.0,0.0,0.0,0.0,0.0,0.0,0.0,0.0,0.0,0.0,0.0,0.0,0.0,0.0,0.0,0.0,0.0,0.0,0.0,0.0,0.0,0.0,0.0,0.0,0.0,0.0,0.0,0.0,0.0,0.0,0.0,0.0,0.0,0.0,0.0,0.0,0.0,0.0,0.0,0.0,0.0,0.0,0.0,0.0,0.0,0.0,0.0,0.0,0.0,0.0,0.0,0.0,0.0,0.0,0.0,0.0,0.0,0.0,0.0,0.0,0.0,0.0,0.0,0.0,0.0,0.0,0.0,0.0,0.0,0.0,0.0,0.0,0.0,0.0,0.0,0.0,0.0,0.0,0.0,0.0,0.0,0.0,0.0,0.0,0.0,0.0,0.0,0.0,0.0,0.0,0.0,0.0,0.0,0.0,0.0,0.0,0.0,0.0,0.0,0.0,0.0,0.0,0.0,0.0,0.0,0.0,0.0,0.0,0.0,0.0,0.0,0.0,0.0,0.0,0.0,0.0,0.0,0.0,0.0,0.0,0.0,0.0,0.0,0.0,0.0,0.0,0.0,0.0,0.0,0.0,0.0,0.0,0.0,0.0,0.0,0.0,0.0,0.0,0.0,0.0,0.0,0.0,0.0,0.0,0.0,0.0,0.0,0.0,0.0,0.0,0.0,0.0,0.0,0.0,0.0,0.0,0.0,0.0,0.0,0.0,0.0,0.0,0.0,0.0,0.0,0.0,0.0,0.0,0.0,0.0,0.0,0.0,0.0,0.0,0.0,0.0,0.0,0.0,0.0,0.0,0.0,0.0,0.0,0.0,0.0,0.0,0.0,0.0,0.0,0.0,0.0,0.0,0.0,0.0,0.0,0.0,0.0,0.0,0.0,0.0,0.0,0.0,0.0,0.0,0.0,0.0,0.0,0.0,0.0,0.0,0.0,0.0,0.0,0.0,0.0,0.0,0.0,0.0,0.0,0.0,0.0,0.0,0.0,0.0,0.0,0.0,0.0,0.0,0.0,0.0,0.0,0.0,0.0,0.0,0.0,0.0,0.0,0.0,0.0,0.0,0.0,0.0,0.0,0.0,0.0,0.0,0.0,0.0,0.0,0.0,0.0,0.0,0.0,0.0,0.0,0.0,0.0,0.0,0.0,0.0,0.0,0.0,0.0,0.0,0.0,0.0,0.0,0.0,0.0,0.0,0.0,0.0,0.0,0.0,0.0,0.0,0.0,0.0,0.0,0.0,0.0,0.0,0.0,0.0,0.0,0.0,0.0,0.0,0.0,0.0,0.0,0.0,0.0,0.0,0.0,0.0,0.0,0.0,0.0,0.0,0.0,0.0,0.0,0.0,0.0,0.0,0.0,0.0,0.0,0.0,0.0,0.0,0.0,0.0,0.0,0.0,0.0,0.0,0.0,0.0,0.0,0.0,0.0,0.0,0.0,0.0,0.0,0.0,0.0,0.0,0.0,0.0,0.0,0.0,0.0,0.0,0.0,0.0,0.0,0.0,0.0,0.0,0.0,0.0,0.0,0.0,0.0,0.0,0.0,0.0,0.0,0.0,0.0,0.0,0.0,0.0,0.0,0.0,0.0,0.0,0.0,0.0,0.0,0.0,0.0,0.0,0.0,0.0,0.0,0.0,0.0,0.0,0.0,0.0,0.0,0.0,0.0,0.0,0.0,0.0,0.0,0.0,0.0,0.0,0.0,0.0,0.0,0.0,0.0,0.0,0.0,0.0,0.0,0.0,0.0,0.0,0.0,0.0,0.0,0.0,0.0,0.0,0.0,0.0,0.0,0.0,0.0,0.0,0.0,0.0,0.0,0.0,0.0,0.0,0.0,0.0,0.0,0.0,0.0,0.0,0.0,0.0,0.0,0.0,0.0,0.0,0.0,0.0,0.0,0.0,0.0,0.0,0.0,0.0,0.0,0.0,0.0,0.0,0.0,0.0,0.0,0.0,0.0,0.0,0.0,0.0,0.0,0.0,0.0,0.0,0.0,0.0,0.0,0.0,0.0,0.0,0.0,0.0,0.0,0.0,0.0,0.0,0.0,0.0,0.0,0.0,0.0,0.0,0.0,0.0,0.0,0.0,0.0,0.0,0.0,0.0,0.0,0.0,0.0,0.0,0.0,0.0,0.0,0.0,0.0,0.0,0.0,0.0,0.0,0.0,0.0,0.0,0.0,0.0,0.0,0.0,0.0,0.0,0.0,0.0,0.0,0.0,0.0,0.0,0.0,0.0,0.0,0.0,0.0,0.0,0.0,0.0,0.0,0.0,0.0,0.0,0.0,0.0,0.0,0.0,0.0,0.0,0.0,0.0,0.0,0.0,0.0,0.0,0.0,0.0,0.0,0.0,0.0,0.0,0.0,0.0,0.0,0.0,0.0,0.0,0.0,0.0,0.0,0.0,0.0,0.0,0.0,0.0,0.0,0.0,0.0,0.0,0.0,0.0,0.0,0.0,0.0,0.0,0.0,0.0,0.0,0.0,0.0,0.0,0.0,0.0,0.0,0.0,0.0,0.0,0.0,0.0,0.0,0.0,0.0,0.0,0.0,0.0,0.0,0.0,0.0,0.0,0.0,0.0,0.0,0.0,0.0,0.0,0.0,0.0,0.0,0.0,0.0,0.0,0.0,0.0,0.0,0.0,0.0,0.0,0.0,0.0,0.0,0.0,0.0,0.0,0.0,0.0,0.0,0.0,0.0,0.0,0.0,0.0,0.0,0.0,0.0,0.0,0.0,0.0,0.0,0.0,0.0,0.0,0.0,0.0,0.0,0.0,0.0,0.0,0.0,0.0,0.0,0.0,0.0,0.0,0.0,0.0,0.0,0.0,0.0,0.0,0.0,0.0,0.0,0.0,0.0,0.0,0.0,0.0,0.0,0.0,0.0,0.0,0.0,0.0,0.0,0.0,0.0,0.0,0.0,0.0,0.0,0.0,0.0,0.0,0.0,0.0,0.0,0.0,0.0,0.0,0.0,0.0,0.0,0.0,0.0,0.0,0.0,0.0,0.0,0.0,0.0,0.0,0.0,0.0,0.0,0.0,0.0,0.0,0.0,0.0,0.0,0.0,0.0,0.0,0.0,0.0,0.0,0.0,0.0,0.0,0.0,0.0,0.0,0.0,-3.0644,-2.885,0.0,0.0,0.0,0.0,0.0,0.0,0.0,0.0,0.0,0.0,0.0,0.0,0.0,0.0,0.0,0.0,0.0,0.0,0.0,0.0,0.0,0.0,0.0,-3.6535,-3.7611,-3.9075,-3.9887,-4.0336,-4.0512,0.0,0.0,0.0,0.0,0.0,-4.2283,-4.225,-4.2156,-4.2064,-4.2421,-4.2945,-4.3561,-4.1975,-4.0135,-3.8177,0.0,0.0,0.0,0.0,0.0,0.0,0.0,0.0,0.0,0.0,0.0,0.0,0.0,0.0,0.0,0.0,0.0,0.0,0.0,0.0,0.0,0.0,0.0,0.0,0.0,0.0,0.0,0.0,0.0,0.0,0.0,0.0,0.0,0.0,0.0,0.0,0.0,0.0,0.0,0.0,0.0,0.0,0.0,0.0,0.0,0.0,0.0,0.0,0.0,0.0,0.0,0.0,0.0,0.0,0.0,0.0,0.0,0.0,0.0,0.0,0.0,0.0,0.0,0.0,0.0,0.0,0.0,0.0,0.0,0.0,-3.5564,-3.3887,0.0,0.0,0.0,0.0,0.0,0.0,0.0,0.0,0.0,0.0,0.0,0.0,0.0,0.0,0.0,0.0,0.0,0.0,0.0,0.0,0.0,-3.3863,-3.5753,-3.6992,-3.8303,-3.9856,-4.054,-4.1001,-4.1296,-4.1442,0.0,0.0,0.0,-4.3425,-4.3881,-4.4075,-4.4366,-4.4709,-4.5368,-4.6402,-4.7763,-4.7611,-4.5735,-4.2395,-4.1096,0.0,0.0,0.0,0.0,0.0,0.0,0.0,0.0,0.0,0.0,0.0,0.0,0.0,0.0,0.0,0.0,0.0,0.0,0.0,0.0,0.0,0.0,0.0,0.0,0.0,0.0,0.0,0.0,0.0,0.0,0.0,0.0,0.0,0.0,0.0,0.0,0.0,0.0,0.0,0.0,0.0,0.0,0.0,0.0,0.0,0.0,0.0,0.0,0.0,0.0,0.0,0.0,0.0,0.0,0.0,0.0,0.0,0.0,0.0,0.0,0.0,0.0,0.0,-4.4281,-4.478,-4.477,-4.3992,-4.3754,-4.3771,-4.0412,-3.9274,-3.9567,-3.681,0.0,0.0,0.0,0.0,0.0,0.0,0.0,0.0,0.0,0.0,0.0,0.0,0.0,0.0,0.0,0.0,0.0,0.0,0.0,-3.3683,-3.5456,-3.6862,-3.8193,-3.9462,-4.0853,-4.1662,-4.1692,-4.2898,0.0,0.0,-4.4269,-4.4593,-4.4658,-4.5074,-4.5514,-4.5975,-4.8951,-5.0825,-5.1646,-5.2229,-5.202,-5.1143,-4.6965,-4.5032,-4.4833,0.0,0.0,0.0,0.0,0.0,0.0,0.0,0.0,0.0,0.0,0.0,0.0,0.0,0.0,0.0,0.0,0.0,0.0,0.0,0.0,0.0,0.0,0.0,0.0,0.0,0.0,0.0,0.0,0.0,0.0,0.0,0.0,0.0,0.0,0.0,0.0,0.0,0.0,0.0,0.0,0.0,-2.4172,-2.6906,0.0,0.0,0.0,0.0,0.0,0.0,0.0,0.0,0.0,0.0,0.0,0.0,0.0,-4.9173,-4.6815,-4.7962,-4.844,-4.8362,-5.0242,-5.0339,-4.8747,-4.8446,-4.8128,-4.7684,-4.6494,0.0,-4.1591,-3.9819,0.0,0.0,0.0,0.0,0.0,0.0,0.0,0.0,0.0,0.0,0.0,0.0,0.0,0.0,0.0,0.0,0.0,0.0,0.0,0.0,0.0,-3.7704,-3.9479,-4.1246,-4.2678,-4.3521,-4.3585,-4.4139,-4.4626,-4.5016,-4.5242,-4.5725,-4.6396,-4.6895,-4.8205,-5.0485,-5.2641,-5.4481,-5.5879,-5.665,-5.6708,-5.6165,-5.4289,-5.1702,-4.8606,-4.7122,0.0,0.0,0.0,0.0,0.0,0.0,0.0,0.0,0.0,0.0,0.0,0.0,0.0,0.0,0.0,0.0,0.0,0.0,0.0,0.0,0.0,0.0,0.0,0.0,0.0,0.0,0.0,0.0,0.0,0.0,0.0,0.0,0.0,0.0,0.0,0.0,0.0,0.0,0.0,-2.3076,-2.5447,-2.7605,-3.1546,-3.5756,0.0,0.0,0.0,0.0,0.0,0.0,0.0,0.0,0.0,-6.313,-5.977,-5.679,-5.4183,-5.443,-5.4161,-5.3413,-5.3735,-5.3177,-5.1787,-5.0929,-5.0158,-4.9444,-4.9323,-4.7994,-4.5714,-4.2782,-4.0164,-3.7603,0.0,0.0,0.0,0.0,-2.5158,-2.3341,0.0,0.0,0.0,0.0,0.0,0.0,0.0,0.0,0.0,0.0,0.0,0.0,-3.66,-3.866,-4.0622,-4.2415,-4.3945,-4.4853,-4.4952,-4.5015,-4.5435,-4.6342,-4.6374,-4.695,-4.8224,-4.9311,-5.1455,-5.4699,-5.6402,-5.8105,-5.9915,-6.0822,-6.094,-6.0389,-6.0376,-5.75,-5.2556,-5.1271,-4.9867,-4.8346,0.0,0.0,0.0,0.0,0.0,0.0,0.0,0.0,0.0,0.0,0.0,0.0,0.0,0.0,0.0,0.0,0.0,0.0,0.0,0.0,0.0,0.0,0.0,0.0,0.0,0.0,0.0,0.0,0.0,0.0,0.0,0.0,0.0,0.0,0.0,0.0,0.0,-2.3534,-2.6739,-2.8804,-3.3721,-3.8598,0.0,0.0,0.0,0.0,0.0,0.0,-7.2457,-7.2274,-7.1091,-6.8956,-6.5911,-6.3007,-6.0309,-5.9735,-5.8871,-5.7733,-5.6883,-5.5815,-5.4589,-5.3323,-5.2269,-5.1432,-5.1421,-5.0894,-4.9724,-4.5767,-4.3353,-4.1778,-3.7926,-3.5048,-3.2971,-3.2211,-3.0404,-2.8413,0.0,0.0,0.0,0.0,0.0,0.0,0.0,0.0,0.0,0.0,0.0,-3.4739,-3.7353,-3.9438,-4.0921,-4.161,-4.3589,-4.4787,-4.482,-4.5403,-4.6407,-4.7831,-4.7896,-4.8469,-4.9668,-5.2461,-5.4931,-5.7037,-6.012,-6.2251,-6.3387,-6.4705,-6.5115,-6.4642,-6.3736,-6.1062,-5.725,-5.5796,-5.4317,-5.2688,-5.0035,0.0,0.0,0.0,0.0,0.0,0.0,0.0,0.0,0.0,0.0,0.0,0.0,0.0,0.0,0.0,0.0,0.0,0.0,0.0,0.0,0.0,0.0,0.0,0.0,0.0,0.0,0.0,0.0,0.0,0.0,0.0,0.0,0.0,0.0,0.0,0.0,0.0,0.0,-3.1,-3.638,0.0,0.0,0.0,0.0,-6.3486,-6.7963,-7.1605,-7.4403,-7.5202,-7.4469,-7.2154,-7.0173,-6.7702,-6.4727,-6.3905,-6.2578,-6.0792,-6.0356,-5.915,-5.7363,-5.6338,-5.5451,-5.47,-5.3584,-5.3087,-5.275,-4.8604,-4.6155,-4.472,-4.1943,-3.9651,-3.7718,-3.6581,-3.4948,-3.3284,0.0,0.0,0.0,-2.6854,-2.7838,-2.8986,-2.9615,-2.9781,-3.0658,-3.2904,-3.3871,-3.5267,-3.7833,-4.0378,-4.2295,-4.3234,-4.5528,-4.6985,-4.7297,-4.7629,-4.8522,-4.9975,-4.9737,-5.0635,-5.3032,-5.5503,-5.8034,-6.0536,-6.3021,-6.5202,-6.7115,-6.7969,-6.8053,-6.7577,-6.673,-6.4956,-6.2407,-5.9356,-5.7394,-5.6187,-5.3861,-5.1604,0.0,0.0,0.0,0.0,0.0,0.0,0.0,0.0,0.0,0.0,0.0,0.0,0.0,0.0,0.0,0.0,0.0,0.0,0.0,0.0,0.0,0.0,0.0,0.0,0.0,0.0,0.0,0.0,0.0,0.0,0.0,0.0,0.0,0.0,0.0,0.0,0.0,-3.5827,-4.0546,0.0,-4.9393,-5.3764,-5.8625,-6.4013,-6.8437,-7.1961,-7.4443,-7.4807,-7.4396,-7.311,-7.1256,-6.9275,-6.7264,-6.5779,-6.4249,-6.2671,-6.1388,-6.0172,-5.8985,-5.8149,-5.7339,-5.6588,-5.5702,-5.5044,-5.4504,-5.2486,-5.0397,-4.8129,-4.5188,-4.3379,-4.2237,-4.0896,-3.9398,-3.7888,-2.6163,-2.6903,0.0,-2.67,-2.8,-2.9223,-2.9602,-2.9932,-3.0915,-3.3125,-3.4296,-3.5862,-3.8464,-4.129,-4.3331,-4.4292,-4.6746,-4.8458,-4.8914,-4.9282,-5.0133,-5.163,-5.1978,-5.3467,-5.6371,-5.8695,-6.1156,-6.3736,-6.6162,-6.823,-7.0013,-7.0884,-7.0944,-7.0301,-6.9508,-6.8335,-6.6731,-6.3712,-6.139,-5.9577,-5.7547,-5.5524,-5.3483,0.0,0.0,0.0,0.0,0.0,0.0,0.0,0.0,0.0,0.0,0.0,0.0,0.0,0.0,0.0,0.0,0.0,0.0,0.0,0.0,0.0,0.0,0.0,0.0,0.0,0.0,0.0,0.0,0.0,0.0,0.0,0.0,0.0,0.0,0.0,-3.5696,-3.9375,-4.4069,-4.8318,-5.1657,-5.589,-6.0207,-6.4571,-6.8234,-7.1221,-7.3368,-7.3758,-7.3521,-7.2845,-7.1399,-6.9953,-6.8441,-6.6884,-6.5403,-6.3971,-6.2515,-6.14,-6.0627,-5.9898,-5.9276,-5.8753,-5.7836,-5.7127,-5.6497,-5.5473,-5.3954,-5.1962,-4.8844,-4.7021,-4.6063,-4.4906,-4.353,-4.21,-2.5883,-2.6393,-2.6843,-2.7318,-2.8331,-2.9218,-2.9554,-2.9842,-3.0945,-3.3573,-3.4864,-3.6587,-3.932,-4.2096,-4.3977,-4.4522,-4.7126,-4.8983,-4.9469,-5.0135,-5.119,-5.2588,-5.4636,-5.6918,-5.942,-6.2073,-6.4387,-6.6464,-6.955,-7.1402,-7.2071,-7.3408,-7.3622,-7.293,-7.2155,-7.1268,-7.0198,-6.8894,-6.6243,-6.2877,-6.0997,-5.9486,-5.8006,0.0,0.0,0.0,0.0,0.0,0.0,0.0,0.0,0.0,0.0,0.0,0.0,0.0,0.0,0.0,0.0,0.0,0.0,0.0,0.0,0.0,0.0,0.0,0.0,0.0,0.0,0.0,0.0,0.0,0.0,0.0,0.0,0.0,-3.1578,-3.5016,-3.8716,-4.1562,-4.6806,-5.1138,-5.3646,-5.7604,-6.1539,-6.5215,-6.7591,-6.9581,-7.1326,-7.2066,-7.2151,-7.1459,-7.0836,-6.9808,-6.8222,-6.7352,-6.6211,-6.4694,-6.3846,-6.3048,-6.2434,-6.169,-6.1385,-6.1312,-5.9973,-5.9251,-5.893,-5.7446,-5.6708,-5.6173,-5.2893,-5.0637,-4.9125,-4.852,-4.7293,-4.5949,-2.5869,-2.6348,-2.6759,-2.7188,-2.8571,-2.9596,-2.954,-3.0172,-3.1448,-3.3729,-3.5341,-3.7345,-4.0105,-4.3296,-4.5398,-4.5763,-4.8196,-4.9608,-4.9311,-5.0211,-5.1782,-5.4037,-5.7011,-5.956,-6.155,-6.3703,-6.6094,-6.8631,-7.0737,-7.2291,-7.347,-7.4333,-7.437,-7.3653,-7.3103,-7.2631,-7.201,-7.1138,-7.0037,-6.8652,-6.5022,-6.238,-6.0434,0.0,0.0,0.0,0.0,0.0,0.0,0.0,0.0,0.0,0.0,0.0,0.0,0.0,0.0,0.0,0.0,0.0,0.0,0.0,0.0,0.0,0.0,0.0,0.0,0.0,0.0,0.0,0.0,0.0,0.0,0.0,-3.5697,-3.6588,-3.5886,-3.8873,-4.2532,-4.6083,-4.9625,-5.2799,-5.5481,-5.884,-6.1581,-6.3289,-6.6128,-6.8126,-6.8832,-6.975,-7.0147,-7.0056,-6.9508,-6.8945,-6.8335,-6.6999,-6.6007,-6.5459,-6.4271,-6.3624,-6.355,-6.3326,-6.3317,-6.3329,-6.2215,-6.1741,-6.1565,-6.041,-5.9472,-5.8281,-5.4004,-5.1955,-5.1299,-5.0378,-4.9591,-4.9148,-2.6314,-2.6535,-2.6805,-2.7536,-2.8903,-2.9791,-2.9472,-3.0613,-3.2257,-3.4275,-3.6117,-3.8253,-4.0939,-4.3877,-4.5695,-4.5926,-4.8128,-4.9314,-4.8865,-5.0689,-5.2974,-5.5729,-5.8102,-6.0527,-6.3141,-6.509,-6.7235,-6.9623,-7.1783,-7.3105,-7.3787,-7.4909,-7.5164,-7.4602,-7.4174,-7.3929,-7.3861,-7.3241,-7.268,-7.1955,-6.9434,-6.6696,-6.3775,-6.1584,-5.9114,-5.6548,-5.5159,-5.3247,-5.13,-5.0727,0.0,0.0,0.0,0.0,0.0,0.0,0.0,0.0,0.0,0.0,0.0,0.0,0.0,0.0,0.0,0.0,0.0,0.0,0.0,0.0,0.0,0.0,0.0,0.0,-3.9364,-4.0497,-4.0902,-4.2767,-4.5207,-4.8234,-5.1327,-5.3991,-5.6064,-5.8942,-6.1101,-6.2157,-6.4485,-6.6179,-6.6997,-6.7954,-6.8549,-6.8629,-6.8717,-6.8396,-6.7678,-6.6838,-6.6162,-6.5672,-6.4691,-6.4292,-6.4464,-6.4426,-6.4407,-6.4388,-6.3444,-6.2988,-6.2813,-6.1865,-6.1023,-6.0045,0.0,0.0,0.0,0.0,-5.2646,-5.2777,-2.6895,-2.6795,-2.686,-2.8062,-2.9237,-2.9824,-2.9386,-3.1049,-3.3085,-3.4956,-3.6896,-3.9088,-4.1668,-4.3963,-4.5375,-4.5522,-4.7416,-4.8556,-4.852,-5.1245,-5.4135,-5.7105,-5.8301,-6.0517,-6.3995,-6.5757,-6.7688,-6.9724,-7.2285,-7.3443,-7.3385,-7.505,-7.5713,-7.5387,-7.515,-7.524,-7.561,-7.518,-7.4466,-7.3693,-7.355,-7.1155,-6.7319,-6.4836,-6.2591,-6.0493,-5.8051,-5.5964,-5.4066,-5.2696,0.0,0.0,0.0,0.0,0.0,0.0,0.0,0.0,0.0,0.0,0.0,0.0,0.0,0.0,0.0,0.0,0.0,0.0,0.0,0.0,0.0,0.0,0.0,0.0,-4.2776,-4.4248,-4.609,-4.643,-4.7133,-4.9066,-5.2215,-5.4698,-5.5926,-5.8354,-6.0379,-6.1633,-6.2949,-6.4296,-6.5691,0.0,0.0,0.0,0.0,-6.8091,-6.6749,-6.69,-6.6508,-6.5593,-6.512,-6.4985,-6.515,-6.5106,-6.5006,-6.4827,-6.404,-6.3538,-6.3314,-6.2427,-6.1931,-6.1479,-5.9213,-5.762,-5.6539,-5.5985,-5.5968,-5.6547,-2.676,-2.6689,-2.6784,-2.8004,-2.9117,-2.9707,-2.9368,-3.1011,-3.3064,-3.5093,-3.7068,-3.9103,-4.1295,-4.3885,-4.557,-4.5893,-4.7074,-4.8248,-4.9276,-5.0777,-5.2804,-5.5472,-5.8337,-6.0783,-6.26,-6.428,-6.6542,-6.9377,-7.0486,-7.1676,-7.3036,-7.4498,-7.5007,-7.468,-7.5438,-7.616,-7.6989,-7.6307,-7.6069,-7.6081,-7.4686,-7.2087,-6.885,-6.6946,-6.4635,-6.2234,-6.0815,-5.9166,-5.7401,-5.6196,-5.4762,-5.3101,-5.0974,0.0,0.0,0.0,0.0,0.0,0.0,0.0,0.0,0.0,0.0,0.0,0.0,0.0,0.0,0.0,0.0,0.0,0.0,0.0,0.0,-4.5478,-4.6003,-4.6977,-4.9285,-4.9018,-4.9181,-5.0802,-5.2587,-5.4367,-5.6212,-5.8377,-6.0068,-6.1067,-6.2687,-6.4074,-6.5048,-6.615,-6.6773,-6.6835,-6.7712,-6.781,-6.7037,-6.6933,-6.6671,-6.6149,-6.5658,0.0,-6.5509,-6.5494,-6.542,-6.5267,-6.4888,-6.4641,-6.4516,-6.4029,-6.3509,-6.2746,-6.0043,-5.8604,-5.7985,-5.7997,-5.8509,-5.9415,-2.5531,-2.5721,-2.6123,-2.7277,-2.8478,-2.9257,-2.9334,-3.1428,-3.3502,-3.4965,-3.7134,-3.9224,-4.0961,-4.292,-4.4078,-4.4004,-4.4816,-4.6283,-4.8427,-4.9934,-5.2051,-5.4977,-5.7735,-6.0016,-6.1877,-6.3537,-6.5574,-6.7949,-6.9314,-7.0464,-7.1382,-7.3104,-7.3942,-7.4061,-7.4596,-7.5587,-7.6691,-7.6449,-7.6181,-7.5771,-7.5276,-7.3426,-7.0861,-6.88,-6.6814,-6.4791,-6.2809,-6.0989,-5.926,-5.7433,-5.606,-5.4616,-5.202,-5.0119,-4.8502,0.0,0.0,0.0,0.0,0.0,0.0,0.0,0.0,0.0,0.0,0.0,0.0,0.0,0.0,-4.4551,-4.5005,0.0,-4.7061,-4.802,-4.8009,-4.8472,-5.0384,-5.0199,-5.0179,-5.1097,-5.2674,-5.4266,-5.5657,-5.7686,-5.9416,-6.0633,-6.1604,-6.2648,-6.3833,-6.4494,-6.5062,-6.558,-6.6276,-6.6463,-6.6224,-6.6481,-6.6374,-6.5948,-6.5803,-6.5769,-6.5808,-6.573,-6.5622,-6.542,-6.5258,-6.5078,-6.4961,-6.4896,-6.4818,-6.454,-6.2782,-6.1277,-6.0115,-6.0652,-6.1341,-6.2266,-2.4099,-2.4667,-2.5497,-2.6627,-2.79,-2.8923,-2.9351,-3.1922,-3.4076,-3.4822,-3.7125,-3.9142,-4.022,-4.1552,-4.2199,-4.1882,-4.2751,-4.4389,0.0,-4.9032,-5.1511,-5.4482,-5.6853,-5.8923,-6.0721,-6.2449,-6.418,-6.5828,-6.7837,-6.9011,-6.9449,-7.1319,-7.2508,-7.3042,-7.3262,-7.4129,-7.543,-7.5766,-7.5343,-7.45,-7.4978,-7.4028,-7.2124,-6.9888,-6.8359,-6.7013,-6.4183,-6.2022,-6.0139,-5.7856,-5.6333,-5.4938,-5.23,-5.113,-5.0279,-4.7561,-4.6202,0.0,0.0,0.0,0.0,0.0,0.0,0.0,0.0,0.0,-4.4924,-4.626,-4.7473,-4.8553,-4.9229,-4.955,-4.9802,-4.9993,-4.9497,-4.9566,-5.1019,-5.0756,-5.0582,-5.1167,-5.2714,-5.4086,-5.4935,-5.6588,-5.8284,-5.984,-6.0319,-6.1237,-6.2754,-6.3182,-6.3794,-6.4703,-6.5209,-6.5445,-6.5474,-6.6059,-6.6162,-6.5638,-6.5832,-6.5955,-6.6032,-6.5895,-6.5743,-6.5523,-6.5505,-6.5297,-6.4982,-6.5667,-6.5961,-6.5922,-6.561,-6.4321,-6.2745,-6.3258,-6.3897,-6.4786,-2.3293,-2.43,-2.5556,-2.6689,-2.8052,-2.9063,-2.9437,-3.2131,-3.4357,-3.4912,-3.7009,-3.8412,-3.8313,-3.9969,-4.1156,-4.1266,-4.2975,0.0,-4.5911,-4.85,-5.0894,-5.2897,-5.5907,-5.7619,-5.7707,-5.9693,-6.1536,-6.3121,-6.48,-6.6439,-6.8071,-6.9449,-7.0594,-7.1482,-7.1487,-7.2185,-7.3485,-7.3741,-7.3667,-7.3265,-7.295,-7.2176,-7.0974,-6.9244,-6.8341,-6.7663,-6.4956,-6.2299,-5.9818,-5.8311,-5.6113,-5.3801,-5.2398,-5.106,-4.9742,-4.8187,0.0,-4.5724,-4.5471,-4.5136,-4.4922,-4.5353,-4.5108,-4.5687,0.0,0.0,-4.9339,-5.0925,-5.1881,-5.2343,-5.2009,-5.1765,-5.1669,-5.1862,-5.1051,-5.089,-5.2459,-5.1089,-5.0573,-5.2213,-5.2978,-5.3699,-5.4494,-5.5283,-5.6436,-5.8213,-5.9469,-6.0878,-6.254,-6.3726,-6.4731,-6.5521,-6.6007,-6.622,-6.6099,-6.6472,-6.6399,-6.5856,-6.6024,-6.608,-6.608,-6.6013,-6.5883,-6.5715,-6.61,-6.5659,-6.4823,-6.6828,-6.6904,-6.5927,-6.6769,-6.6743,-6.6128,-6.5074,-6.5475,-6.6681,-2.2537,-2.3621,-2.5001,-2.6273,-2.7875,-2.916,-2.9622,-3.1842,-3.3779,-3.454,-3.6082,-3.7215,-3.7547,-3.853,-3.921,-3.9371,-4.131,-4.3116,-4.4564,-4.7102,-4.9643,-5.2021,-5.4295,-5.6109,-5.7353,-5.8797,-6.0243,-6.1709,-6.3374,-6.4423,-6.5039,-6.69,-6.8179,-6.8866,-6.8776,-6.9766,-7.139,-7.1135,-7.1124,-7.122,-7.0867,-7.0418,-6.9681,-6.7853,-6.6881,-6.6091,-6.3771,-6.1208,0.0,0.0,-5.4202,-5.2144,-5.0849,-5.0002,-4.9202,-4.7694,-4.7119,0.0,-4.7347,-4.7366,-4.749,0.0,-4.863,-4.9133,-5.0922,-5.1159,-5.1335,-5.253,-5.3155,-5.3302,-5.269,-5.2413,-5.213,0.0,-5.1089,-5.1224,-5.2525,-5.2037,-5.1837,-5.2693,-5.3154,-5.3542,-5.3824,-5.4917,-5.6098,-5.7478,-5.8882,-6.0249,-6.1468,-6.2774,-6.3835,-6.4508,-6.5015,-6.5351,-6.5618,-6.5962,-6.605,-6.5978,-6.6058,-6.608,-6.6047,-6.5943,-6.5743,-6.5474,-6.5639,-6.553,-6.533,-6.6591,-6.6829,-6.6408,-6.6838,-6.704,-6.7048,-6.632,-6.682,-6.792,-2.2077,-2.3386,-2.4907,-2.6059,-2.7691,-2.9107,-2.9865,-3.183,-3.3519,-3.4415,-3.5362,-3.6247,-3.7045,-3.7276,-3.7478,-3.7879,-3.9659,-4.15,-4.3175,-4.5642,-4.8173,-5.0728,-5.241,-5.4168,-5.6124,-5.723,-5.8405,-5.9656,-6.1239,-6.2081,-6.2121,-6.407,-6.5201,-6.5556,-6.5562,-6.6323,-6.7733,-6.7553,-6.7691,-6.7939,-6.8052,-6.7896,-6.7344,-6.5721,-6.4361,-6.3183,-6.1784,-5.9617,-5.6977,-5.4448,-5.2219,-5.0289,-4.9256,-4.8772,-4.8396,-4.7162,-4.7314,-4.794,-4.8362,0.0,0.0,-5.0639,-5.1637,-5.2333,-5.238,-5.2699,-5.3184,-5.3751,-5.3925,-5.3755,-5.3131,-5.2517,-5.1923,-5.1276,-5.0864,-5.1077,-5.2493,-5.2389,-5.2372,-5.3003,-5.3032,-5.3077,-5.3316,-5.4389,-5.5518,-5.6624,-5.8033,-5.9388,-6.0622,-6.1923,-6.3016,-6.3883,-6.4309,-6.4777,-6.5276,-6.5569,-6.5833,-6.599,-6.6058,-6.6069,-6.6001,-6.5807,-6.558,-6.5242,-6.5411,-6.5421,-6.5399,-6.639,-6.6654,-6.6441,-6.6567,-6.6912,-6.727,-6.6667,-6.7398,-6.877,-2.2128,-2.3916,-2.5667,-2.6281,-2.755,-2.8959,-3.0193,-3.2304,-3.4023,-3.4693,-3.5263,-3.5896,-3.6627,-3.6267,-3.6353,-3.7237,-3.8637,-4.0224,-4.1922,-4.4328,-4.6573,-4.8635,-5.0306,-5.1698,-5.279,-5.3996,-5.5158,-5.6247,-5.7761,-5.8873,-5.9725,-6.1092,-6.164,-6.1501,-6.1688,-6.1688,-6.1643,-6.2789,-6.3159,-6.3094,-6.4228,-6.4203,-6.341,-6.2674,-6.0846,-5.8715,-5.9185,-5.7566,-5.4976,-5.304,-5.059,-4.834,-4.804,-4.7579,0.0,-4.6871,-4.7421,0.0,0.0,0.0,-5.1517,-5.1549,-5.3279,-5.4873,-5.4398,-5.5008,-5.5559,-5.5127,-5.4707,-5.4232,-5.3748,-5.2187,-5.1154,-5.1797,-5.0735,-5.0574,-5.2699,-5.1674,-5.1366,-5.3272,-5.2464,-5.2125,-5.3109,-5.3382,-5.4011,-5.5319,-5.6644,-5.8259,-6.0285,-6.1509,-6.2848,-6.4426,-6.4725,-6.5095,-6.5494,-6.5678,-6.5858,-6.6008,-6.6085,-6.6069,-6.6001,-6.5743,-6.5397,-6.5123,-6.5773,-6.5389,-6.451,-6.6656,-6.6722,-6.5489,-6.6141,-6.6685,-6.6954,-6.589,-6.6984,-6.9083,-2.3891,-2.4956,-2.6212,-2.7378,-2.8724,-2.9941,-3.0929,-3.1879,-3.3054,-3.4659,-3.551,0.0,0.0,0.0,0.0,0.0,-3.7356,-3.8904,-3.9928,-4.215,-4.4403,-4.6669,-4.7496,-4.9077,-5.1574,-5.2187,-5.314,-5.4527,-5.5542,-5.589,-5.5569,-5.657,-5.69,-5.67,-5.6805,-5.7376,-5.836,-5.8981,-5.9652,-6.0248,-6.0839,-6.1009,-6.0768,-6.0075,-5.8206,-5.5797,0.0,-5.3101,-5.0992,-4.914,-4.7184,-4.5522,-4.574,0.0,0.0,-4.646,0.0,-4.8674,0.0,0.0,-5.3253,-5.4379,-5.5587,-5.6389,-5.5886,-5.5822,-5.5655,-5.5233,-5.4262,-5.3269,-5.246,-5.1396,-5.0653,-5.0693,-5.0311,-5.0644,-5.2442,-5.2209,-5.2194,-5.3105,-5.3192,0.0,-5.3517,-5.3683,0.0,-5.5343,-5.6738,-5.8385,-6.0164,-6.1573,-6.2977,-6.4271,-6.4743,-6.5111,-6.5368,-6.5622,-6.5782,-6.5858,-6.5982,-6.5946,-6.5743,-6.5594,-6.536,-6.5023,-6.5244,-6.486,-6.4275,-6.5262,-6.5162,-6.4386,-6.4944,-6.5163,-6.5232,-6.5087,-6.5797,-6.6968,-2.4828,-2.5563,-2.6638,-2.8455,-2.9177,0.0,0.0,0.0,0.0,0.0,0.0,0.0,0.0,0.0,0.0,0.0,0.0,-3.7403,-3.8278,-3.9998,-4.1929,-4.3975,-4.4456,-4.6074,-4.9013,-4.9247,-5.0147,-5.1869,-5.2308,-5.24,-5.2155,-5.2331,-5.2301,-5.2043,-5.1983,-5.2438,-5.3343,-5.4228,-5.5229,-5.6279,-5.6715,-5.716,-5.749,-5.6251,-5.4639,0.0,0.0,-4.8658,-4.7128,-4.6208,-4.4929,-4.3805,-4.4122,0.0,0.0,0.0,-4.8259,-5.0,-5.2171,-5.3725,-5.4975,-5.6159,-5.7139,-5.7569,-5.6587,-5.615,-5.5718,-5.4879,-5.3314,-5.1891,-5.1069,-4.9775,-4.8965,-4.9357,-4.939,-5.001,-5.1927,-5.215,-5.2534,-5.3548,-5.3784,-5.4015,0.0,0.0,0.0,-5.5525,-5.705,-5.8646,-6.0201,-6.1527,-6.2913,-6.4212,-6.4725,-6.5095,-6.5321,-6.5552,-6.573,-6.5782,-6.6167,-6.6076,-6.5566,-6.5435,-6.5204,-6.4886,-6.4781,-6.4424,-6.4011,-6.4382,-6.4193,-6.3656,-6.3775,-6.3923,-6.4072,-6.4063,-6.464,-6.5657,-2.515,-2.585,-2.7068,0.0,0.0,0.0,0.0,0.0,0.0,0.0,0.0,0.0,0.0,0.0,0.0,0.0,0.0,0.0,-3.6897,-3.7934,0.0,-4.0767,-4.1345,-4.2785,-4.5232,-4.5452,-4.648,-4.84,-4.8272,-4.863,-4.9466,-4.8548,-4.79,-4.7464,-4.7291,-4.7038,-4.6864,-4.876,-5.0192,-5.1277,-5.186,-5.2704,-5.348,-5.1466,0.0,0.0,0.0,0.0,0.0,0.0,0.0,0.0,0.0,0.0,0.0,0.0,0.0,-5.2044,-5.3657,-5.5278,-5.6552,-5.68,-5.7874,-5.8404,-5.6563,-5.6116,-5.5725,-5.4203,-5.2012,-5.0205,-4.963,0.0,-4.6376,-4.7881,-4.8069,-4.8849,-5.1263,-5.1549,-5.2257,0.0,0.0,0.0,0.0,0.0,0.0,-5.6034,0.0,-5.9031,-6.0347,-6.1416,-6.2717,-6.4385,-6.482,-6.5175,-6.5513,-6.5662,-6.5778,-6.5846,-6.6546,-6.6394,-6.5479,-6.5274,-6.501,-6.4726,-6.4595,-6.4258,-6.3847,-6.4163,-6.3855,-6.3156,-6.2702,-6.2924,-6.3427,-6.2824,-6.3577,-6.5062,0.0,0.0,0.0,0.0,0.0,0.0,0.0,0.0,0.0,0.0,0.0,0.0,0.0,0.0,0.0,0.0,0.0,0.0,-3.4073,-3.49,0.0,0.0,0.0,-4.0721,-4.376,-4.4253,-4.5477,-4.7519,-4.7106,-4.6768,-4.6467,-4.4943,-4.3745,-4.2874,-4.2986,-4.3156,-4.3496,-4.5604,-4.6748,-4.7243,0.0,-4.9347,-4.9337,0.0,0.0,0.0,0.0,0.0,0.0,0.0,0.0,0.0,0.0,0.0,-4.8174,0.0,0.0,-5.3021,-5.4875,-5.5912,-5.6649,-5.7451,-5.779,-5.7664,-5.6436,-5.5661,-5.4649,-5.2741,-5.1038,-4.9282,-4.7452,0.0,0.0,-4.7078,-4.7831,0.0,-5.0517,-5.1181,0.0,-5.2704,0.0,-5.3957,-5.5279,-5.6228,0.0,0.0,-5.8078,-5.9255,-6.069,-6.2155,-6.3595,-6.5028,-6.622,-6.694,-6.7093,-6.7254,-6.7049,-6.6538,-6.6628,-6.6193,-6.5298,-6.5715,-6.5724,-6.5405,-6.5905,-6.5437,-6.4378,-6.4144,-6.3162,-6.1724,-6.1415,-6.1259,-6.1173,-6.1124,-6.184,-6.29,0.0,0.0,0.0,0.0,0.0,0.0,0.0,0.0,0.0,0.0,0.0,0.0,0.0,0.0,0.0,0.0,0.0,0.0,0.0,-3.2647,0.0,0.0,-3.6166,-3.7904,-4.099,-4.1853,-4.326,0.0,0.0,0.0,-4.372,-4.1655,-4.0125,-3.9075,-3.8653,-3.8634,-3.9174,-4.1329,0.0,0.0,0.0,0.0,0.0,0.0,0.0,0.0,0.0,0.0,0.0,0.0,0.0,-4.3921,-4.5005,-4.698,-4.9122,-5.0521,0.0,-5.4121,-5.5912,-5.6784,-5.733,-5.7642,-5.7738,-5.727,-5.5408,-5.4567,-5.343,-5.0709,-4.8991,0.0,-4.615,-4.5431,0.0,0.0,0.0,0.0,-4.9925,-5.0961,-5.1899,0.0,-5.372,0.0,-5.6064,-5.7464,-5.8317,0.0,-5.902,-5.9909,-6.1181,-6.2643,-6.4126,-6.5508,-6.6668,-6.7388,-6.7604,-6.8083,-6.7899,-6.706,-6.7354,-6.7005,-6.6053,-6.635,-6.6312,-6.6028,-6.6266,-6.5649,-6.4376,-6.3763,-6.2438,-6.0843,-6.0415,-6.0069,-5.9876,-6.0249,-6.0792,-6.1491,0.0,0.0,0.0,0.0,0.0,0.0,0.0,0.0,0.0,0.0,0.0,0.0,0.0,0.0,0.0,0.0,0.0,0.0,0.0,0.0,-3.1469,-3.2538,-3.3345,-3.5173,-3.8068,-3.9331,-4.0932,0.0,0.0,0.0,0.0,0.0,0.0,0.0,0.0,0.0,0.0,0.0,0.0,0.0,0.0,0.0,0.0,0.0,0.0,0.0,0.0,0.0,0.0,0.0,-4.297,-4.4485,-4.5845,-4.786,-5.0043,-5.1788,-5.3382,-5.494,-5.6388,-5.7314,-5.774,-5.7277,-5.7331,-5.6776,-5.3931,-5.3241,-5.2137,-4.8597,0.0,-4.5754,-4.5245,-4.4024,-4.3838,-4.5974,0.0,-4.7548,-4.9373,-5.0724,-5.2001,-5.3243,-5.4703,-5.6062,-5.7295,-5.9013,-5.9875,-5.9492,-6.0156,-6.0945,-6.1716,-6.3284,-6.4878,-6.6435,-6.7117,-6.7561,-6.7748,-6.8673,-6.8597,-6.7502,-6.8223,-6.8054,-6.7069,-6.7023,-6.6833,-6.6574,-6.6235,-6.5373,-6.4152,-6.3147,-6.1777,-6.0258,-5.9528,-5.9224,-5.9212,-5.9562,-6.009,-6.0646,0.0,0.0,0.0,0.0,0.0,0.0,0.0,0.0,0.0,0.0,-3.2004,0.0,0.0,0.0,0.0,0.0,0.0,0.0,0.0,0.0,0.0,-3.0923,-3.2431,-3.4685,-3.7698,0.0,0.0,0.0,0.0,0.0,0.0,0.0,0.0,0.0,0.0,0.0,0.0,0.0,0.0,0.0,0.0,0.0,0.0,0.0,0.0,0.0,0.0,0.0,0.0,0.0,-4.2633,-4.4903,-4.6634,-4.8859,-5.0973,-5.1827,-5.309,-5.442,-5.5028,-5.562,-5.5958,-5.5515,-5.5464,-5.4992,-5.3041,-5.1991,0.0,0.0,-4.6898,-4.593,-4.3765,-4.3851,0.0,-4.4448,0.0,0.0,0.0,0.0,-5.0871,0.0,0.0,0.0,0.0,0.0,0.0,0.0,0.0,-6.2075,-6.2105,-6.496,-6.7494,-6.9552,-6.9853,-6.9704,-6.9166,-6.9916,-6.9536,-6.7987,-6.8019,-6.758,-6.6787,-6.7267,-6.7276,-6.6887,-6.6617,-6.5642,-6.4165,-6.2824,-6.1171,-5.9383,-5.8851,-5.8569,-5.8396,-5.8313,-5.9129,-6.0264,0.0,0.0,0.0,0.0,0.0,0.0,0.0,0.0,0.0,-3.1631,-3.1911,-3.1784,0.0,0.0,0.0,0.0,0.0,0.0,0.0,0.0,0.0,0.0,0.0,0.0,0.0,0.0,0.0,0.0,0.0,0.0,0.0,0.0,0.0,0.0,0.0,0.0,0.0,0.0,0.0,0.0,0.0,0.0,0.0,0.0,0.0,0.0,0.0,0.0,0.0,0.0,-4.185,-4.3945,-4.6114,-4.8234,-5.002,-5.0909,-5.2011,-5.3147,-5.402,-5.4413,-5.4696,-5.5193,-5.5018,-5.4199,-5.2098,0.0,0.0,0.0,0.0,-4.4335,-4.3266,0.0,0.0,0.0,0.0,0.0,0.0,0.0,0.0,0.0,0.0,0.0,0.0,0.0,0.0,0.0,0.0,-6.4687,-6.4091,-6.7055,-6.9173,-7.0065,-7.0226,-6.9926,-6.9128,-6.9475,-6.9155,-6.8128,-6.8219,-6.7964,-6.7384,-6.7675,-6.7642,-6.7288,-6.6856,-6.5602,-6.384,-6.2537,-6.0791,-5.8909,-5.8732,-5.8382,-5.8014,-5.8341,-5.9076,-5.9798,0.0,0.0,0.0,0.0,0.0,0.0,0.0,-3.098,-3.1334,-3.1549,-3.1721,-3.1532,-3.0978,-3.0543,-2.9774,0.0,0.0,0.0,0.0,0.0,0.0,0.0,0.0,0.0,0.0,0.0,0.0,0.0,0.0,0.0,0.0,0.0,0.0,0.0,0.0,0.0,0.0,0.0,0.0,0.0,0.0,0.0,0.0,0.0,0.0,0.0,0.0,0.0,0.0,0.0,-4.0674,-4.2237,-4.464,-4.6814,-4.8663,-4.9626,-5.0593,-5.1664,-5.2963,-5.3461,-5.3787,-5.4825,-5.4593,-5.3449,-5.0961,-4.9494,0.0,0.0,-4.343,-4.3341,-4.3229,0.0,0.0,0.0,0.0,0.0,0.0,0.0,0.0,0.0,0.0,0.0,0.0,0.0,0.0,0.0,0.0,0.0,-6.6813,-6.8895,-7.0132,-7.0202,-7.0139,-6.9727,-6.8907,-6.9033,-6.879,-6.8072,-6.8457,-6.8346,-6.7867,-6.7841,-6.7657,-6.7332,-6.6403,-6.5005,-6.3239,-6.1907,-6.0324,-5.8691,-5.8825,-5.8495,-5.7946,-5.8582,-5.9033,-5.9238,0.0,0.0,0.0,0.0,0.0,0.0,0.0,-3.0424,-3.0761,-3.0975,-3.0648,-3.0423,-3.052,-3.0027,-2.9138,0.0,0.0,0.0,0.0,0.0,0.0,0.0,0.0,0.0,0.0,0.0,0.0,0.0,0.0,0.0,0.0,0.0,0.0,0.0,0.0,0.0,0.0,0.0,0.0,0.0,0.0,0.0,0.0,0.0,0.0,0.0,0.0,0.0,0.0,0.0,0.0,-3.9933,-4.1887,-4.4884,-4.7765,-4.8203,0.0,0.0,-5.1766,-5.2537,-5.3029,-5.3287,-5.3141,-5.2197,-4.9353,0.0,0.0,-4.4351,-4.4703,-4.5054,-4.3579,-4.3731,0.0,0.0,0.0,-4.4231,0.0,0.0,0.0,0.0,0.0,0.0,0.0,0.0,0.0,0.0,0.0,0.0,-6.9849,-6.9843,-7.0358,-7.1468,-7.0819,-7.0069,-6.923,-6.9864,-6.9299,-6.7667,-6.8429,-6.8311,-6.7451,-6.7314,-6.7032,-6.6493,-6.4566,-6.3266,-6.2383,-6.067,-5.9441,-5.8661,-5.9028,-5.8743,-5.8149,-5.8246,-5.8405,-5.8536,0.0,0.0,0.0,0.0,0.0,0.0,0.0,-3.0351,-3.0271,-3.104,-3.0359,-2.9884,-3.0206,-2.8801,-2.7444,0.0,0.0,0.0,0.0,0.0,0.0,0.0,0.0,0.0,0.0,0.0,0.0,0.0,0.0,0.0,0.0,0.0,0.0,0.0,0.0,0.0,0.0,0.0,0.0,0.0,0.0,0.0,0.0,0.0,0.0,0.0,0.0,0.0,0.0,0.0,0.0,0.0,-4.068,-4.2804,0.0,0.0,-4.695,-4.8225,-4.955,-5.0292,-5.0959,-5.1808,-5.1491,-5.0522,-4.8775,0.0,-4.6259,-4.4152,-4.4249,-4.4309,-4.3156,-4.3643,-4.3893,-4.28,-4.2517,-4.3053,0.0,0.0,0.0,0.0,0.0,0.0,0.0,0.0,0.0,0.0,0.0,0.0,-7.0706,-7.0852,-7.0829,-7.0578,-7.0248,-6.9412,-6.8046,-6.821,-6.783,-6.6946,-6.7273,-6.7208,-6.6867,-6.6595,-6.6385,-6.6105,-6.4234,-6.2873,-6.1778,-6.0037,-5.889,-5.8236,-5.8502,-5.8525,-5.8452,-5.8627,-5.8824,-5.8954,0.0,0.0,0.0,0.0,0.0,0.0,-3.0931,-3.0242,-2.9992,-3.0951,-3.0012,-2.9444,-2.9809,-2.7587,-2.5782,-2.5035,0.0,0.0,0.0,0.0,0.0,0.0,0.0,0.0,0.0,0.0,0.0,0.0,0.0,0.0,0.0,0.0,0.0,0.0,0.0,0.0,0.0,0.0,0.0,0.0,0.0,0.0,0.0,0.0,0.0,0.0,0.0,0.0,0.0,0.0,0.0,0.0,0.0,0.0,0.0,0.0,-4.5094,-4.6355,-4.7569,-4.8319,-4.8993,-5.0158,-4.9721,-4.8741,0.0,0.0,-4.5407,-4.4017,-4.4081,-4.414,-4.3404,-4.3779,-4.3812,-4.2603,-4.2096,-4.2505,-4.4303,0.0,0.0,0.0,0.0,0.0,0.0,0.0,0.0,0.0,0.0,0.0,-7.085,-7.1207,-7.1112,-7.031,-6.961,-6.8721,-6.7702,-6.7527,-6.7102,-6.6361,-6.6798,-6.67,-6.6207,-6.5891,-6.57,-6.5536,-6.3964,-6.2544,-6.122,-5.9967,-5.8935,-5.821,-5.8593,-5.8775,-5.883,-5.8947,-5.8974,-5.8955,0.0,0.0,0.0,0.0,0.0,0.0,0.0,-3.0077,-3.0011,-3.0519,-2.9517,-2.888,-2.9247,-2.6516,-2.4375,-2.377,0.0,0.0,0.0,0.0,0.0,0.0,0.0,0.0,0.0,0.0,-1.9866,-1.8075,-1.5401,-1.2239,0.0,0.0,0.0,0.0,0.0,0.0,0.0,0.0,0.0,0.0,0.0,0.0,0.0,0.0,0.0,0.0,0.0,0.0,0.0,0.0,0.0,0.0,0.0,0.0,0.0,0.0,-4.3833,-4.497,-4.617,-4.6965,-4.7582,-4.8253,-4.7777,-4.689,0.0,-4.5234,-4.4632,-4.4025,-4.4673,-4.5233,-4.4693,-4.4432,-4.3825,-4.2437,-4.2082,-4.2727,-4.4894,0.0,0.0,0.0,0.0,0.0,0.0,0.0,0.0,0.0,0.0,0.0,-7.0514,-7.0684,-7.1051,-7.1494,-6.914,-6.8247,-6.8889,-6.867,-6.7721,-6.6021,-6.7436,-6.7201,-6.551,-6.5311,-6.5011,-6.4636,-6.331,-6.1944,-6.0708,-6.0617,-5.9771,-5.8593,-5.9651,-5.9772,-5.9254,-5.9062,-5.8655,-5.8308,0.0,0.0,0.0,0.0,0.0,0.0,0.0,-2.8917,-2.8595,-2.9042,-2.7536,-2.6961,-2.8385,-2.5785,-2.3909,-2.3835,0.0,0.0,0.0,0.0,0.0,0.0,0.0,0.0,0.0,0.0,-1.6972,-1.4924,-1.1902,-0.8611,-0.5067,-0.2116,0.0,0.0,0.0,0.0,0.0,0.0,0.0,0.0,0.0,0.0,0.0,0.0,0.0,0.0,0.0,0.0,0.0,0.0,0.0,0.0,0.0,0.0,0.0,-4.0485,-4.1854,-4.313,-4.399,-4.4653,-4.5169,-4.5581,-4.5465,-4.5182,-4.4718,-4.4436,-4.4331,-4.4324,-4.481,-4.5132,-4.4671,-4.4987,-4.5067,-4.4328,-4.4453,0.0,0.0,0.0,0.0,0.0,0.0,0.0,0.0,0.0,0.0,0.0,0.0,-6.9071,-6.9316,-6.8457,-6.8753,-7.0282,-6.9465,-6.8766,-6.8353,-6.8121,-6.7741,-6.7112,-6.6771,-6.6351,-6.5891,-6.4778,-6.4288,-6.4218,-6.2737,-6.1705,-6.0977,-6.0203,-5.9525,-5.9085,-5.9418,-5.9653,-5.9772,-5.9375,-5.9197,-5.9236,0.0,0.0,0.0,0.0,0.0,0.0,0.0,-2.8627,-2.8095,-2.885,-2.7195,-2.6528,-2.8108,-2.5736,-2.4075,-2.4265,0.0,0.0,0.0,0.0,0.0,0.0,0.0,0.0,-1.8129,-1.6766,-1.4948,-1.2749,-0.937,-0.6184,-0.3203,-0.05,0.0386,-0.0464,0.0,0.0,0.0,0.0,0.0,0.0,0.0,0.0,-2.8471,0.0,0.0,0.0,0.0,0.0,0.0,0.0,0.0,0.0,0.0,0.0,0.0,0.0,-4.0016,-4.0936,0.0,-4.283,-4.3452,-4.3831,-4.3922,-4.3933,-4.4035,-4.398,-4.4108,-4.4784,-4.5302,-4.5534,-4.5249,-4.5464,-4.5433,-4.4845,-4.4856,0.0,0.0,0.0,0.0,0.0,0.0,0.0,0.0,0.0,0.0,0.0,-6.8849,-6.8821,-6.8964,-6.8291,-6.8494,-6.9795,-6.8837,-6.8344,-6.8352,-6.8113,-6.7728,-6.7341,-6.6425,-6.5897,-6.5653,-6.4277,-6.3574,-6.3335,-6.2501,-6.1601,0.0,-6.0342,-5.9916,-5.9455,-5.9929,-6.0282,-6.0457,-6.0117,-6.0178,-6.0322,0.0,0.0,0.0,0.0,0.0,0.0,0.0,0.0,0.0,0.0,-2.8051,-2.7175,-2.8247,-2.6163,-2.4773,0.0,0.0,0.0,0.0,0.0,0.0,0.0,0.0,0.0,-1.6736,-1.5533,-1.3812,-1.151,-0.7943,-0.5143,-0.3089,-0.0963,-0.0506,-0.1612,-0.4344,-0.6726,0.0,0.0,0.0,0.0,-2.4678,-2.6155,0.0,0.0,0.0,0.0,0.0,0.0,0.0,0.0,0.0,0.0,0.0,0.0,0.0,0.0,0.0,0.0,0.0,-4.1565,-4.2336,-4.3,-4.3057,-4.3152,-4.394,-4.3962,0.0,-4.5404,-4.6021,-4.6334,-4.6361,-4.5909,-4.5404,-4.4827,0.0,0.0,0.0,0.0,0.0,0.0,0.0,0.0,0.0,0.0,0.0,-6.8705,-6.894,-6.9128,-6.9198,-6.9493,-6.9672,-6.9778,-6.7691,-6.7301,-6.8823,-6.8432,-6.7865,-6.7092,-6.6475,-6.5761,-6.4999,-6.3864,-6.2922,0.0,-6.254,-6.1608,-6.0006,-6.1019,-6.0738,-5.9786,-6.1064,-6.136,-6.1141,-6.1141,-6.1329,-6.1455,0.0,0.0,0.0,0.0,0.0,0.0,0.0,0.0,0.0,0.0,-2.7522,-2.6947,-2.7973,-2.6063,-2.476,0.0,0.0,0.0,0.0,0.0,0.0,0.0,0.0,0.0,-1.6821,-1.5861,-1.4096,-1.1503,-0.9789,-0.778,-0.5467,-0.4327,-0.4302,-0.5232,-0.6667,-0.9852,0.0,0.0,0.0,0.0,-2.4351,-2.5567,0.0,0.0,0.0,0.0,-3.0568,-3.208,0.0,0.0,0.0,0.0,0.0,0.0,0.0,0.0,-3.7951,-3.8145,-4.0009,0.0,-4.1297,-4.2486,-4.3229,-4.3933,0.0,-4.537,-4.5644,-4.628,0.0,-4.6909,-4.7934,-4.7598,-4.7706,-4.9458,0.0,0.0,0.0,0.0,0.0,0.0,0.0,0.0,0.0,0.0,0.0,-6.8474,-6.7776,-6.7613,-6.8208,-6.7517,-6.7553,-6.8573,-6.8044,-6.822,-6.9171,-6.8984,-6.8618,-6.8034,-6.7211,-6.629,-6.534,-6.4234,-6.329,-6.257,-6.2279,-6.1828,-6.1247,-6.1373,-6.1036,-6.0553,-6.1357,-6.1622,-6.147,-6.1816,-6.2008,-6.1945,0.0,0.0,0.0,0.0,0.0,0.0,0.0,0.0,0.0,0.0,0.0,0.0,0.0,0.0,0.0,0.0,0.0,0.0,0.0,0.0,0.0,0.0,0.0,-1.8573,-1.7428,-1.6483,-1.5235,-1.3701,-1.1869,-1.0494,-0.9512,-0.7823,-0.7652,-0.8832,-1.0006,-1.2998,0.0,0.0,0.0,0.0,-2.429,0.0,0.0,0.0,0.0,0.0,-3.0304,-3.1368,0.0,-3.3778,-3.4111,-3.408,0.0,0.0,0.0,0.0,-3.7375,-3.7843,-3.9787,-4.1164,-4.2288,-4.3395,-4.4725,-4.5886,-4.6267,0.0,0.0,0.0,0.0,-4.7121,-4.7782,-4.8105,0.0,0.0,0.0,0.0,0.0,0.0,0.0,0.0,0.0,0.0,0.0,0.0,-6.8078,-6.8241,-6.7787,-6.7698,-6.8229,-6.7646,-6.7793,-6.8708,-6.867,-6.8772,-6.9229,-6.9005,-6.8604,-6.7877,-6.6764,-6.5739,-6.483,-6.365,-6.2741,-6.2063,-6.2021,-6.1675,-6.12,-6.1699,-6.1675,-6.1513,-6.2441,-6.2695,-6.2463,-6.2541,-6.2672,-6.2682,0.0,0.0,0.0,0.0,0.0,0.0,0.0,0.0,0.0,0.0,0.0,0.0,0.0,0.0,0.0,0.0,0.0,0.0,0.0,0.0,0.0,0.0,-2.0395,-1.931,-1.8303,-1.7352,-1.6684,-1.6367,-1.4161,-1.3312,-1.371,-1.1549,-1.1187,-1.242,-1.3671,-1.5915,0.0,0.0,0.0,0.0,-2.4567,0.0,0.0,0.0,0.0,0.0,0.0,0.0,0.0,-3.1717,-3.2091,-3.2336,-3.2846,0.0,0.0,0.0,0.0,0.0,-4.0109,-4.2375,-4.4248,-4.4693,-4.6499,-4.8015,-4.755,0.0,0.0,0.0,0.0,0.0,0.0,-4.8491,0.0,0.0,0.0,0.0,0.0,0.0,0.0,0.0,0.0,0.0,0.0,-6.7706,-6.7879,-6.8044,-6.8176,-6.837,-6.8667,-6.86,-6.8752,-6.9302,-6.9153,-6.904,-6.9002,-6.8743,-6.82,-6.7346,-6.6004,-6.4976,-6.4152,-6.3046,-6.2178,-6.1501,-6.184,-6.1507,-6.0872,-6.1999,-6.239,-6.2312,-6.354,-6.3845,-6.3576,-6.3205,-6.3253,-6.3244,0.0,0.0,0.0,0.0,0.0,0.0,0.0,0.0,0.0,0.0,0.0,0.0,0.0,0.0,0.0,0.0,0.0,0.0,0.0,0.0,0.0,-2.3238,-2.1616,-2.0191,-1.9155,-1.8448,-1.7618,-1.6556,-1.6976,-1.6592,-1.5439,-1.5863,-1.5989,-1.5879,-1.6689,-1.8062,-1.9842,-2.0926,0.0,-2.3835,-2.5544,0.0,0.0,0.0,0.0,0.0,0.0,0.0,0.0,-3.0949,-3.2045,-3.3285,-3.2873,0.0,0.0,0.0,0.0,0.0,-4.2088,-4.4541,-4.6077,-4.5079,-4.685,-4.8837,-4.8887,0.0,0.0,0.0,0.0,0.0,0.0,0.0,0.0,0.0,0.0,0.0,0.0,0.0,0.0,0.0,0.0,0.0,0.0,-6.7933,-6.7799,-6.7839,-6.761,-6.7738,-6.8401,-6.7999,-6.8078,-6.8819,-6.8781,-6.8667,-6.8513,-6.8474,-6.8128,-6.7467,-6.6391,-6.544,-6.4491,-6.3706,-6.2922,-6.2212,-6.2082,-6.181,-6.1568,-6.2232,-6.239,-6.2312,-6.354,-6.3845,-6.3641,-6.3757,-6.3578,-6.2972,0.0,0.0,0.0,0.0,0.0,0.0,0.0,0.0,0.0,0.0,0.0,0.0,0.0,0.0,0.0,0.0,0.0,0.0,0.0,0.0,-2.4745,-2.4281,-2.2772,-2.1512,-2.0507,-2.0816,-2.0774,-2.034,-2.033,-2.0195,-1.9921,-1.9217,-1.8506,-1.7859,-1.8437,-1.9671,-2.1426,-2.2503,-2.4121,-2.6052,0.0,0.0,0.0,0.0,0.0,0.0,0.0,0.0,0.0,0.0,-3.1222,-3.2323,-3.2361,0.0,0.0,0.0,0.0,0.0,-4.2029,-4.4563,-4.6471,-4.6002,-4.8695,-5.133,-5.0805,-5.1034,0.0,0.0,0.0,0.0,0.0,0.0,0.0,0.0,0.0,0.0,-6.3148,-6.4256,-6.5508,0.0,0.0,-6.6973,-6.798,-6.7747,-6.7516,-6.7638,-6.749,-6.762,-6.8201,-6.7891,-6.7973,-6.8551,-6.8435,-6.828,-6.8083,-6.7999,-6.7633,-6.7056,-6.6357,-6.5291,-6.4005,-6.4072,-6.3579,-6.263,-6.2918,-6.2922,-6.2774,-6.3126,-6.3252,-6.3254,-6.3875,-6.4074,-6.3923,-6.3499,-6.2796,-6.1785,0.0,0.0,0.0,0.0,0.0,0.0,0.0,0.0,0.0,0.0,0.0,0.0,0.0,0.0,0.0,0.0,0.0,0.0,0.0,-2.6273,-2.5583,-2.4898,-2.3929,-2.2847,-2.1706,-2.2637,-2.3182,-2.3381,-2.3158,-2.3304,-2.3782,-2.162,-2.0353,-1.9826,-2.0258,-2.1428,-2.3172,-2.4411,-2.6156,-2.8145,0.0,0.0,0.0,0.0,0.0,0.0,0.0,0.0,0.0,0.0,0.0,0.0,0.0,0.0,0.0,-3.7478,-3.8809,-4.0307,-4.2009,-4.4265,-4.627,-4.7015,-4.9925,-5.2438,-5.1811,-5.1941,0.0,0.0,0.0,0.0,0.0,0.0,0.0,0.0,-6.084,-6.289,-6.4207,-6.5262,-6.6339,-6.7782,-6.7314,-6.7202,-6.8027,-6.7684,-6.735,-6.7428,-6.7435,-6.7638,-6.7925,-6.7799,-6.7839,-6.8083,-6.7792,-6.7525,-6.7324,-6.7114,-6.695,-6.6816,-6.6167,-6.5203,-6.3964,-6.4288,-6.3908,-6.2991,-6.3568,-6.3666,-6.3434,-6.3815,-6.4012,-6.4033,-6.4224,-6.4161,-6.3959,-6.3099,-6.2116,-6.0957,0.0,0.0,0.0,0.0,0.0,0.0,0.0,0.0,0.0,0.0,0.0,0.0,0.0,0.0,0.0,0.0,0.0,0.0,0.0,-2.638,-2.5579,-2.5112,-2.4919,-2.4016,-2.2264,-2.2626,-2.2903,-2.3046,-2.4667,-2.5235,-2.4751,-2.2837,-2.2168,-2.2526,-2.3081,-2.3855,-2.4941,-2.6691,-2.7966,-2.9004,-3.1037,0.0,0.0,0.0,0.0,0.0,0.0,0.0,0.0,0.0,0.0,0.0,0.0,0.0,-3.8135,-3.7877,-3.8835,-4.0561,-4.3229,-4.456,-4.5725,-4.793,-4.9096,-4.9935,-5.0769,-5.1199,0.0,-5.1854,0.0,0.0,0.0,0.0,0.0,0.0,0.0,-6.3944,-6.4895,0.0,-6.6896,-6.8716,-6.7904,-6.7558,-6.8539,-6.8171,-6.7675,-6.7248,-6.7387,-6.7516,-6.7516,-6.7516,-6.7435,-6.7195,-6.6514,-6.6058,-6.5846,-6.5673,-6.6094,-6.7154,-6.5993,-6.5371,-6.5236,-6.4346,-6.376,-6.3482,-6.3515,-6.3292,-6.3001,-6.365,-6.3934,-6.4033,-6.4224,-6.3865,-6.3228,-6.2905,-6.2252,-6.1376,0.0,0.0,0.0,0.0,0.0,0.0,0.0,0.0,0.0,0.0,0.0,0.0,0.0,0.0,0.0,0.0,0.0,0.0,0.0,-2.7446,-2.653,-2.57,-2.5705,-2.5177,-2.4007,-2.4944,-2.5592,-2.5784,-2.6428,-2.6554,-2.6175,-2.5006,-2.4603,-2.4894,-2.5419,-2.6204,-2.7251,-2.8617,-3.0242,-3.1954,-3.2897,-3.3268,0.0,0.0,0.0,0.0,0.0,0.0,0.0,0.0,-3.1688,-3.3619,-3.376,-3.5915,-3.8399,-3.8439,-3.9402,-4.077,-4.2083,-4.376,-4.5545,-4.7021,-4.8154,0.0,0.0,-5.1843,-5.2595,-5.2345,-5.3166,0.0,0.0,0.0,0.0,0.0,0.0,0.0,-6.5807,-6.6592,-6.7355,-6.8369,-6.8142,-6.7922,-6.7999,-6.7669,-6.7204,-6.655,-6.6601,-6.6694,-6.6854,-6.6694,-6.6567,-6.6482,-6.6051,-6.5789,-6.5737,-6.5684,-6.5947,-6.6516,-6.6042,-6.5545,-6.4939,-6.5053,-6.4627,-6.3847,-6.4311,-6.4332,-6.4051,-6.41,-6.4139,-6.4172,-6.4096,-6.3755,-6.318,-6.2905,-6.2284,-6.1438,0.0,0.0,0.0,0.0,0.0,0.0,0.0,0.0,0.0,0.0,0.0,0.0,0.0,0.0,0.0,0.0,0.0,0.0,-2.9369,-2.8627,-2.7662,-2.6411,-2.668,-2.6411,-2.5475,-2.6633,-2.7267,-2.7296,-2.7295,-2.7355,-2.748,-2.6842,-2.6759,-2.7164,-2.7825,-2.8662,-2.9659,-3.0691,-3.2348,-3.4191,-3.4554,-3.4818,0.0,0.0,0.0,0.0,0.0,0.0,0.0,0.0,-3.2455,-3.3996,-3.461,-3.6377,-3.8234,-3.8628,-3.9638,-4.0809,-4.1485,-4.3218,-4.5127,-4.6224,0.0,0.0,-5.0342,-5.1828,-5.2894,-5.29,-5.3994,-5.5247,-5.6217,0.0,0.0,0.0,-6.3028,-6.4769,-6.6553,-6.708,-6.7535,-6.8323,-6.8307,-6.8155,-6.7856,-6.7463,-6.6923,-6.6278,-6.6011,-6.5965,-6.6172,-6.5965,-6.579,-6.5658,-6.5249,-6.4984,-6.4972,-6.4972,-6.5105,-6.5457,-6.5603,-6.5392,-6.496,-6.5282,-6.5069,-6.4342,-6.4833,-6.4975,-6.4876,-6.4781,-6.4619,-6.4486,-6.4197,-6.3802,-6.3293,-6.3002,-6.2464,-6.1721,0.0,0.0,0.0,0.0,0.0,0.0,0.0,0.0,0.0,0.0,0.0,0.0,0.0,0.0,0.0,0.0,0.0,0.0,-3.0335,-2.9873,-2.8899,-2.73,-2.7857,-2.7696,-2.6533,-2.7233,-2.7364,-2.693,-2.6983,-2.7572,-2.8594,-2.8218,-2.8531,-2.947,-3.0336,-3.123,-3.2097,-3.3039,-3.414,-3.5278,-3.5952,-3.6101,-3.582,0.0,0.0,0.0,0.0,0.0,0.0,0.0,-3.3849,-3.4538,-3.5777,-3.688,-3.7801,-3.8399,-3.9391,-4.0579,-4.1909,-4.3174,-4.4429,0.0,0.0,0.0,-4.9691,-5.0895,-5.2132,-5.36,-5.4875,-5.6009,-5.6927,-5.8591,0.0,-6.2012,-6.385,-6.5596,-6.7009,-6.7081,-6.7468,-6.866,-6.8452,-6.8241,-6.8251,-6.7636,-6.7004,-6.6506,-6.5778,-6.5381,-6.5381,-6.5381,-6.5201,-6.4702,-6.3981,-6.3485,-6.3212,-6.3212,-6.3485,-6.4045,-6.4511,-6.4976,-6.5381,-6.493,-6.4817,-6.498,-6.498,-6.5109,-6.534,-6.5589,-6.5384,-6.4963,-6.4486,-6.4006,-6.3564,-6.3325,-6.2888,-6.2365,0.0,0.0,0.0,0.0,0.0,0.0,0.0,0.0,0.0,0.0,0.0,0.0,0.0,0.0,0.0,0.0,0.0,0.0,-3.1982,-3.1191,-3.0123,-2.8801,-2.8973,-2.8746,-2.7999,-2.8009,-2.7855,-2.7522,-2.8044,-2.873,-2.9591,-3.0088,-3.076,-3.155,-3.2666,-3.3299,-3.3641,-3.4952,-3.5852,-3.6408,-3.7429,-3.7592,-3.7249,0.0,0.0,0.0,0.0,0.0,0.0,0.0,0.0,0.0,-3.5254,-3.6527,-3.7905,-3.7448,-3.8389,-3.97,-4.0061,-4.1728,0.0,0.0,0.0,0.0,0.0,-5.1895,0.0,0.0,-5.6171,-5.7112,-5.8355,-5.9942,0.0,-6.2672,-6.411,-6.5649,-6.7247,-6.762,-6.7906,-6.8528,-6.8834,-6.8381,-6.6874,-6.6757,-6.6151,-6.4784,-6.4444,-6.4314,-6.4314,-6.4207,-6.4053,-6.3912,-6.3529,-6.3447,-6.3775,-6.3775,-6.4007,-6.4465,-6.4466,-6.461,-6.4885,-6.4426,-6.4395,-6.4707,-6.4513,-6.4735,-6.529,-6.539,-6.5361,-6.5186,-6.5059,-6.4799,-6.452,-6.4619,-6.422,-6.3614,0.0,0.0,0.0,0.0,0.0,0.0,0.0,0.0,0.0,0.0,-3.7792,-3.7004,0.0,0.0,0.0,0.0,0.0,0.0,0.0,-3.2528,-3.1463,-3.0366,-3.0127,-2.9779,-2.9285,-2.9204,-2.9248,-2.9337,-2.9047,-2.9417,-3.0428,-3.1723,-3.2664,-3.3345,-3.4858,-3.5597,-3.5807,-3.6637,-3.7242,-3.7681,-3.8523,-3.8421,-3.7776,0.0,0.0,0.0,0.0,0.0,0.0,0.0,0.0,0.0,-3.5665,-3.6695,-3.7761,-3.7431,-3.8576,-4.0007,-4.0171,0.0,0.0,0.0,0.0,0.0,-5.2825,0.0,0.0,0.0,0.0,-5.8404,-5.9718,-6.1119,0.0,-6.3712,-6.5135,-6.6532,-6.7881,-6.8201,-6.8415,-6.8713,-6.8741,-6.8145,-6.6602,-6.6076,-6.5416,-6.4401,-6.3774,-6.3581,-6.3838,-6.3758,-6.3691,-6.3783,-6.3765,-6.3704,-6.3758,-6.3998,-6.4123,-6.4286,-6.4392,-6.4427,-6.4347,-6.419,-6.4336,-6.4717,-6.5044,-6.5403,-6.5784,-6.56,-6.5472,-6.5339,-6.5235,-6.5058,-6.4906,-6.4957,-6.4805,-6.4602,0.0,0.0,-4.1689,-4.1009,0.0,0.0,0.0,0.0,0.0,-3.9985,-3.8663,-3.7549,0.0,0.0,0.0,-3.6472,0.0,0.0,0.0,-3.3875,-3.2791,-3.1863,-3.1287,-3.0885,-3.0681,-3.0871,-3.1296,-3.1969,-3.0249,-3.0023,-3.1305,-3.3252,-3.4384,-3.4891,-3.6791,-3.7811,-3.8026,-3.8044,-3.8315,-3.8745,-3.9288,-3.8792,-3.7785,-3.7624,0.0,0.0,0.0,0.0,0.0,0.0,0.0,0.0,-3.6692,-3.7244,-3.7601,-3.7915,-3.9401,-4.1001,-4.1465,0.0,0.0,0.0,0.0,0.0,0.0,0.0,-5.7413,-5.7275,0.0,-5.9806,-6.1122,-6.2186,-6.338,-6.4968,-6.6585,-6.7881,-6.8671,-6.8735,-6.8757,-6.905,-6.8383,-6.7652,-6.6869,-6.5599,-6.4774,-6.471,-6.3454,-6.301,-6.3594,-6.3739,-6.3836,-6.3954,-6.4243,-6.4133,-6.352,-6.397,-6.4077,-6.3757,-6.4352,-6.4348,-6.3853,-6.407,-6.4516,-6.5008,-6.6112,-6.6638,-6.6691,-6.6237,-6.59,-6.568,-6.5243,-6.5091,-6.5091,-6.4824,-6.5028,-6.5464,0.0,0.0,-4.2596,-4.2462,0.0,0.0,0.0,0.0,-4.1725,-4.2229,-4.1568,-4.0941,-4.0755,-4.0494,0.0,-3.9014,-3.8468,0.0,0.0,-3.4732,-3.372,-3.2844,-3.258,-3.2763,-3.3492,-3.3154,-3.335,-3.4045,-3.2533,-3.2256,-3.3227,-3.52,-3.6171,-3.6414,-3.8025,-3.8292,-3.7569,-3.8899,-3.8899,-3.8054,-3.9526,-3.9601,-3.8718,-3.812,-3.7274,0.0,0.0,0.0,0.0,0.0,0.0,0.0,-3.7241,-3.7717,-3.8326,-3.7725,-3.8701,-4.0152,0.0,0.0,0.0,0.0,0.0,0.0,0.0,0.0,0.0,-5.84,-5.9496,-6.1051,-6.2461,-6.348,-6.4599,-6.6038,-6.7007,-6.8039,-6.9304,-6.88,-6.8453,-6.8757,-6.7931,-6.691,-6.5628,-6.456,-6.3734,-6.3119,-6.2601,-6.2404,-6.254,-6.3246,-6.3537,-6.341,-6.3641,-6.3943,-6.4279,-6.4381,-6.452,-6.4611,-6.4771,-6.4533,-6.394,-6.4279,-6.4871,-6.554,-6.6331,-6.6988,-6.7519,-6.7418,-6.7355,-6.7293,-6.6843,-6.6699,-6.6658,-6.6543,-6.6722,-6.7145,0.0,0.0,0.0,0.0,0.0,0.0,0.0,0.0,-4.363,-4.4244,-4.3689,-4.2977,-4.235,-4.2053,0.0,0.0,-3.9302,-3.8211,0.0,0.0,-3.4503,-3.3945,-3.4101,-3.4718,-3.5732,-3.5206,-3.5498,-3.6617,-3.5331,-3.4875,-3.522,-3.6833,-3.7767,-3.8108,-3.9557,-3.9767,-3.9123,-3.9876,-3.9673,-3.8924,-3.9827,-3.9471,-3.8341,-3.8027,-3.727,-3.6384,-3.6246,0.0,0.0,0.0,0.0,0.0,0.0,0.0,-3.8903,-3.8493,-3.9361,-4.0642,0.0,0.0,0.0,0.0,0.0,0.0,0.0,0.0,0.0,0.0,-6.0415,-6.169,-6.2944,-6.3817,-6.481,-6.6349,-6.7337,-6.8084,-6.8728,-6.8625,-6.8232,-6.7629,-6.7058,-6.6269,-6.4886,-6.4011,-6.3455,-6.322,-6.2615,-6.2478,-6.2924,-6.3317,-6.3549,-6.3779,-6.405,-6.4271,-6.4382,-6.4643,-6.461,-6.4263,-6.4765,-6.4852,-6.4639,-6.4591,-6.508,-6.6012,-6.6464,-6.7025,-6.7567,-6.7735,-6.7654,-6.7367,-6.7274,-6.737,-6.7473,-6.74,-6.7818,-6.8371,0.0,0.0,0.0,0.0,0.0,0.0,0.0,0.0,0.0,-4.585,-4.5325,-4.4423,-4.3302,-4.2987,-4.2286,0.0,0.0,0.0,-3.793,0.0,0.0,-3.5173,-3.5679,-3.6531,-3.7665,-3.7161,-3.7536,-3.8903,-3.7849,-3.7354,-3.7443,-3.8382,-3.9219,-3.9958,-4.117,-4.1485,-4.1047,-4.0889,-4.047,-3.9927,-4.0066,-3.9194,-3.7875,-3.7935,-3.729,-3.6361,-3.651,-3.6788,-3.7087,-3.7595,0.0,0.0,0.0,0.0,-3.9343,-3.9566,-4.042,-4.1469,0.0,0.0,0.0,0.0,0.0,0.0,0.0,0.0,0.0,0.0,0.0,0.0,-6.3087,-6.3766,-6.4779,-6.6574,-6.7512,-6.7974,-6.789,-6.8115,-6.7784,-6.6357,-6.5998,-6.5497,-6.4443,-6.3659,-6.3373,-6.3592,-6.2799,-6.2683,-6.3452,-6.3385,-6.3579,-6.4127,-6.4437,-6.4525,-6.4298,-6.4751,-6.4577,-6.372,-6.4524,-6.5017,-6.5177,-6.4894,-6.5382,-6.6449,-6.6765,-6.7144,-6.7626,-6.7852,-6.7714,-6.7227,-6.7502,-6.7753,-6.7977,-6.7964,-6.8493,-6.9209,0.0,0.0,0.0,0.0,0.0,0.0,0.0,0.0,0.0,0.0,-4.6445,-4.5892,-4.4831,-4.4429,-4.3451,-4.1465,-4.0689,-3.9617,0.0,0.0,0.0,-3.6591,-3.6911,-3.7903,-3.9681,-3.9032,-3.901,-3.9732,-3.87,-3.8915,-4.0248,-4.0021,-4.0633,-4.194,-4.2597,-4.2348,-4.145,-4.1823,-4.0899,-3.9282,-3.9941,-3.9658,-3.8875,-3.8654,-3.8027,-3.731,-3.7878,-3.786,-3.768,-3.8782,-3.9032,0.0,0.0,0.0,-3.937,-3.9997,-4.0729,0.0,0.0,0.0,0.0,0.0,0.0,0.0,0.0,0.0,0.0,0.0,0.0,0.0,-6.3065,-6.3982,-6.5317,-6.7322,-6.7284,-6.7322,-6.8168,-6.7167,-6.6114,-6.5591,-6.4789,-6.4254,-6.4049,-6.3187,-6.2708,-6.2986,-6.2673,-6.2393,-6.2258,-6.3026,-6.3388,-6.3192,-6.3478,-6.3902,-6.4371,-6.4482,-6.442,-6.4273,-6.4173,-6.4288,-6.4613,-6.4779,-6.56,-6.6853,-6.7438,-6.8085,-6.8671,-6.8729,-6.8729,-6.8609,-6.8629,-6.8638,-6.8689,-6.8595,-6.8996,-6.9611,0.0,0.0,0.0,0.0,0.0,0.0,0.0,0.0,0.0,0.0,0.0,-4.729,-4.6303,-4.5425,-4.4297,-4.2669,-4.125,0.0,0.0,0.0,0.0,-3.8244,-3.9098,-4.0236,-4.1578,-4.0443,-4.0081,-4.062,-3.9049,-3.9104,-4.0634,-4.0761,-4.1669,-4.3151,-4.3856,-4.3756,-4.3052,-4.3069,-4.2313,-4.107,-4.0724,-4.0826,-4.1024,-3.9679,-3.9295,-3.945,-3.8967,-3.8493,-3.8223,-3.8855,-3.9053,-3.9103,-3.9103,0.0,0.0,0.0,0.0,0.0,0.0,0.0,0.0,0.0,0.0,0.0,0.0,0.0,0.0,0.0,0.0,0.0,0.0,-6.3702,-6.4994,-6.6449,-6.6592,-6.6647,-6.693,-6.6186,-6.5294,-6.4418,-6.3773,-6.3337,-6.2991,-6.2549,-6.2428,-6.2714,-6.2283,-6.1994,-6.2081,-6.229,-6.2438,-6.2497,-6.2788,-6.3192,-6.3592,-6.3649,-6.3649,-6.3592,-6.3697,-6.397,-6.4533,-6.5198,-6.591,-6.6664,-6.7307,-6.7884,-6.8366,-6.8735,-6.9006,-6.9151,-6.9162,-6.9324,-6.9634,-6.9633,-6.9919,-7.0315,0.0,0.0,0.0,0.0,0.0,0.0,0.0,0.0,0.0,0.0,0.0,-4.8015,-4.7055,0.0,0.0,0.0,-4.1915,0.0,0.0,0.0,0.0,0.0,-4.0967,-4.2023,-4.2797,-4.1623,-4.1045,-4.1103,-3.9316,-3.915,-4.051,-4.1264,-4.2704,-4.463,-4.5384,-4.5494,-4.5058,-4.4812,-4.438,-4.37,-4.2655,-4.2684,-4.3242,-4.1961,-4.1765,-4.2106,-4.0791,-3.9946,-3.9428,-3.9341,-3.9217,-3.9084,-3.8943,-3.936,0.0,0.0,0.0,0.0,0.0,0.0,0.0,0.0,0.0,0.0,0.0,0.0,0.0,0.0,0.0,0.0,0.0,0.0,0.0,-6.552,-6.5719,-6.5769,-6.5591,-6.5098,-6.4422,-6.3367,-6.2903,-6.2497,-6.2028,-6.1763,-6.1674,-6.1821,-6.1263,-6.0997,-6.1261,-6.1142,-6.12,-6.1613,-6.191,-6.2263,-6.2525,-6.2525,-6.2497,-6.2438,-6.2824,-6.3387,-6.4188,-6.5173,-6.5921,-6.6415,-6.7319,-6.7828,-6.8212,-6.8821,-6.9182,-6.9445,-6.953,-6.9875,-7.0306,-7.0419,-7.0589,-7.0789,0.0,0.0,0.0,0.0,0.0,0.0,0.0,0.0,0.0,0.0,0.0,-4.7624,-4.6638,-4.6197,-4.5207,-4.327,-4.2828,0.0,0.0,0.0,0.0,0.0,0.0,0.0,-4.2797,-4.2538,-4.1891,-4.0822,-3.9694,-3.9625,-4.0546,-4.1704,-4.39,-4.687,-4.7494,-4.7524,-4.7162,-4.7392,-4.7212,-4.6704,-4.6093,-4.5499,-4.5094,-4.636,-4.6081,-4.4964,-4.4072,-4.296,-4.1797,-4.0901,-3.9973,-3.9323,-4.0048,-3.9778,-3.9427,0.0,0.0,0.0,0.0,0.0,0.0,0.0,0.0,0.0,0.0,0.0,0.0,0.0,0.0,0.0,0.0,0.0,0.0,0.0,-6.4758,-6.4488,-6.4556,-6.3757,-6.3021,-6.2673,-6.2028,-6.1673,-6.1613,-6.0792,-6.0177,-5.9881,-5.9273,-5.8979,-5.8949,-5.9248,-5.9686,-6.0287,-6.0621,-6.0894,-6.1226,-6.1226,-6.1046,-6.0802,-6.1404,-6.2226,-6.3178,-6.4183,-6.5323,-6.6492,-6.7754,-6.8533,-6.8917,-6.924,-6.9356,-6.9445,-6.999,-7.0306,-7.0363,-7.0645,-7.0789,-7.0789,0.0,0.0,0.0,0.0,0.0,0.0,0.0,0.0,0.0,0.0,0.0,0.0,0.0,-4.6478,-4.557,-4.4765,-4.3897,0.0,0.0,0.0,0.0,0.0,0.0,0.0,-4.4858,-4.4085,-4.3069,-4.1884,-4.0747,-4.036,-4.0799,-4.1857,-4.3668,-4.6063,-4.7756,-4.8778,-4.9233,-4.9206,-4.874,-4.8021,-4.767,-4.801,-4.8614,-4.7855,-4.7611,-4.7495,-4.6226,-4.4443,-4.2673,-4.2544,-4.1848,-4.0982,-4.0683,-4.0356,-4.0246,-4.0868,-4.2076,0.0,0.0,0.0,0.0,0.0,0.0,0.0,0.0,0.0,0.0,0.0,0.0,0.0,0.0,0.0,0.0,0.0,0.0,-6.411,-6.3924,-6.3342,-6.273,-6.2028,-6.1055,-6.0403,-6.0352,-5.8981,-5.8305,-5.8974,-5.7523,-5.7043,-5.798,-5.7799,-5.8069,-5.8927,-5.9426,-5.9797,-5.9891,-5.9891,-5.9953,-6.0071,-6.0872,-6.1903,-6.3113,-6.394,-6.5321,-6.7155,-6.7541,-6.8068,-6.8621,-6.9344,-6.9761,-6.999,-7.0249,-7.0419,-7.0645,-7.0789,-7.0645,-7.0532,0.0,0.0,0.0,-4.9086,0.0,-4.9379,-4.945,-4.8959,-4.8713,-4.9147,0.0,0.0,0.0,0.0,-4.6671,-4.6189,-4.4988,-4.4155,-4.3912,-4.4507,0.0,0.0,0.0,0.0,-4.5662,-4.5081,-4.3892,-4.216,-4.1266,-4.0849,-4.0851,-4.219,-4.415,-4.6636,-4.8404,-5.0038,-5.143,-5.1511,-5.1329,-5.0895,-4.9838,-5.0192,-5.1298,-5.0421,-5.0044,-4.984,-4.897,-4.7137,-4.5152,-4.5325,-4.4589,-4.3306,-4.2361,-4.1587,-4.1057,-4.1106,-4.2288,0.0,-4.4785,0.0,0.0,0.0,0.0,0.0,0.0,0.0,0.0,0.0,0.0,0.0,0.0,0.0,0.0,0.0,0.0,0.0,-6.2632,-6.2348,-6.1792,-6.0816,-5.9632,-5.8706,-5.8317,-5.6747,-5.606,-5.6768,-5.5294,0.0,-5.6198,-5.6097,-5.645,-5.755,-5.7993,-5.839,-5.8676,-5.8676,-5.8864,-5.9177,-6.0036,-6.1251,-6.2616,-6.3512,-6.5197,-6.7335,-6.7751,-6.8212,-6.8794,-6.9631,-7.0104,-7.0306,-7.0419,-7.0589,-7.0789,-7.0789,-7.0589,-7.0363,-4.8127,-4.9266,-5.0171,-4.9942,-4.9925,-4.9947,-5.0059,-5.0006,-4.9807,-4.9343,0.0,0.0,0.0,0.0,0.0,-4.7359,-4.615,-4.5505,-4.5517,-4.5294,0.0,0.0,0.0,0.0,-4.5122,-4.5559,-4.4414,-4.163,-4.1324,-4.1041,-4.0798,-4.2691,-4.5437,-4.8881,-4.9546,-5.1213,-5.3646,-5.4192,-5.4866,-5.5354,-5.2552,-5.1947,-5.2864,-5.4018,-5.3427,-5.2004,-5.2397,-5.1157,-4.9375,-4.9299,-4.7997,-4.6196,-4.5092,-4.3366,-4.1695,-4.1496,-4.2526,-4.3796,0.0,0.0,0.0,0.0,0.0,0.0,0.0,0.0,0.0,0.0,0.0,0.0,0.0,0.0,0.0,0.0,0.0,0.0,0.0,-6.058,-6.0033,-5.886,-5.7796,-5.6706,-5.5418,-5.4137,-5.3339,-5.3243,-5.2656,-5.2646,-5.3539,-5.4024,-5.4868,-5.6197,-5.6251,-5.6741,-5.7597,-5.7688,-5.7816,-5.8198,-5.8857,-6.0096,-6.1635,-6.3018,-6.4831,-6.7091,-6.8327,-6.9065,-6.9445,-7.0078,-7.0275,-7.0363,-7.0645,-7.0789,-7.0789,-7.0789,-7.0589,-7.0306,-5.0011,-4.9751,-4.9487,-5.0089,-5.0711,-5.1117,-5.1166,-5.1544,-5.1683,0.0,0.0,0.0,-4.9826,-4.9238,-4.8705,-4.8188,-4.7844,-4.7798,-4.8068,-4.7452,-4.7299,-4.771,-4.7781,-4.7662,-4.7254,-4.7534,-4.661,-4.4316,-4.3646,-4.2777,-4.1857,-4.2439,-4.4599,-4.7958,-4.9662,-5.0741,-5.1128,-5.0473,-5.1269,-5.2724,-4.9285,-5.0064,-5.311,-5.2201,-5.2613,-5.368,-5.3646,-5.2492,-5.0969,-5.1208,-4.995,-4.7968,-4.6035,-4.4507,-4.3216,-4.2368,-4.3325,-4.4554,-4.4122,0.0,0.0,0.0,0.0,0.0,0.0,0.0,0.0,0.0,0.0,0.0,0.0,0.0,0.0,0.0,0.0,0.0,0.0,-5.8711,-5.814,-5.6876,-5.5414,-5.4252,-5.3602,-5.1755,-5.083,0.0,-5.0268,-5.0419,-5.2447,-5.3567,-5.4337,-5.4549,-5.5205,-5.5719,-5.5945,-5.6634,-5.7109,-5.7523,-5.9339,-6.085,-6.2016,-6.3545,-6.5367,-6.7396,-6.7661,-6.8544,-6.9761,-7.0419,-7.0645,-7.0645,-7.0789,-7.0789,-7.0789,-7.0789,-7.0589,-7.0363,-5.0365,-5.0188,-5.0089,-5.1022,-5.1596,-5.2038,-5.2394,-5.2688,-5.2883,0.0,0.0,0.0,-5.1988,-5.1088,-5.0346,-4.9888,-4.9363,-4.9193,-4.9422,-4.8899,-4.8663,-4.8872,-4.8411,-4.7998,-4.766,-4.7578,-4.6558,-4.4483,-4.3939,-4.3087,-4.203,-4.2179,-4.3868,-4.6801,-4.7683,-4.825,-4.8417,-4.6488,-4.753,-5.032,-4.8149,-4.9406,-5.2456,-5.21,-5.2941,-5.4328,-5.4855,-5.4161,-5.3111,-5.3698,-5.2179,-4.9739,-4.7582,-4.6402,-4.5459,-4.3815,-4.4832,-4.6284,-4.5316,-4.6541,-4.8248,-4.8657,0.0,0.0,0.0,-5.0534,0.0,0.0,0.0,0.0,0.0,0.0,0.0,0.0,0.0,0.0,0.0,0.0,-5.6243,-5.4664,-5.3223,-5.196,-5.0901,-4.9501,-4.8944,-4.9528,-4.9066,-4.9608,-5.1607,-5.2297,-5.2672,-5.2853,-5.3789,-5.4469,-5.4863,-5.5773,-5.6459,-5.7006,-5.8788,-6.0258,-6.1554,-6.3437,-6.5314,-6.7125,-6.7749,-6.8636,-6.9703,-7.0363,-7.0645,-7.0789,-7.0789,-7.0789,-7.0789,-7.0789,-7.0589,-7.0363,0.0,-5.0779,-5.1581,-5.2351,-5.2563,-5.2873,-5.358,-5.3583,-5.3697,0.0,-5.4402,-5.4541,-5.4646,-5.3632,-5.2729,-5.2276,-5.1084,-5.04,-5.0497,-5.0048,-4.9626,-4.9298,-4.8553,-4.7869,-4.7178,-4.6652,-4.5505,-4.3597,-4.3294,-4.2674,-4.1799,-4.1915,-4.3193,-4.5399,-4.462,-4.48,-4.5604,-4.3022,-4.4153,-4.7749,-4.7633,-4.9081,-5.1401,-5.271,-5.3613,-5.4403,-5.5852,-5.5877,-5.5314,-5.6035,-5.4347,-5.1639,-4.9745,-4.9014,-4.8353,-4.5895,-4.7014,-4.8673,-4.723,-4.8061,-4.9512,-4.9921,-4.933,0.0,-5.093,-5.013,-4.9387,0.0,0.0,0.0,0.0,0.0,0.0,0.0,0.0,0.0,0.0,0.0,0.0,-5.2343,-5.1151,-4.9781,-4.7894,-4.7407,-4.7369,-4.7723,-4.8556,-4.9582,-5.088,-5.0629,-5.068,-5.1356,-5.2258,-5.3153,-5.4078,-5.505,-5.5895,-5.6762,-5.7852,-5.9269,-6.1024,-6.3211,-6.5111,-6.6763,-6.8172,-6.9006,-6.9414,-6.999,-7.0419,-7.0789,-7.0789,-7.0789,-7.0789,-7.0789,-7.0589,-7.0363,-5.1548,-5.2263,-5.2825,-5.2994,-5.3521,-5.3978,-5.4154,-5.4536,-5.4799,-5.4694,-5.453,-5.4699,-5.5459,-5.4807,-5.4503,-5.4984,-5.3962,-5.3567,-5.4285,-5.2564,-5.121,-5.0488,-4.9609,-4.8843,-4.8208,-4.7894,-4.72,-4.6105,-4.4603,-4.3406,-4.2478,-4.1971,-4.2415,-4.3593,-4.3492,-4.3261,-4.2997,-4.31,-4.3432,-4.3838,-4.3372,-4.6251,-5.0907,-5.0823,-5.2517,-5.5027,-5.5822,-5.6221,-5.6439,-5.6288,-5.5568,-5.454,-5.3068,-5.273,-5.2339,-4.9664,-5.0109,-5.1066,-4.9204,-5.0038,-5.1108,-4.9783,-5.0067,0.0,-4.7941,-4.6954,-4.6574,0.0,0.0,0.0,0.0,0.0,0.0,0.0,0.0,0.0,0.0,0.0,0.0,0.0,-4.8756,-4.7545,-4.6001,-4.5528,-4.5531,-4.6011,-4.7653,-4.88,-4.9267,-5.0008,-5.0484,-5.0615,-5.1762,-5.2719,-5.3284,-5.4612,-5.5775,-5.6997,-5.8472,-6.0524,-6.2974,-6.4236,-6.587,-6.7728,-6.8029,-6.8654,-6.9445,-6.9761,-7.0104,-7.0419,-7.0701,-7.0789,-7.0789,-7.0789,-7.0789,-7.0701,-5.2537,-5.2909,-5.3436,-5.4057,-5.4513,-5.4869,-5.5164,-5.5711,-5.6102,-5.6028,-5.6656,-5.729,-5.7907,-5.7463,-5.7222,-5.7488,-5.6707,-5.609,-5.5859,-5.4769,-5.3346,-5.1695,-5.0547,-4.9354,-4.8073,-4.7897,-4.7334,-4.6225,-4.5244,-4.401,-4.2613,-4.1626,-4.2715,-4.5376,-4.3822,-4.4621,-4.7022,-4.6389,-4.5763,-4.5055,-4.4527,-4.7002,-5.0986,-5.1627,-5.3613,-5.6051,-5.6651,-5.7149,-5.732,-5.666,-5.599,-5.5185,-5.3923,-5.3953,-5.4002,-5.1679,-5.2082,-5.2842,-5.0935,-5.132,-5.2122,-5.1548,-5.0947,0.0,0.0,-4.765,-4.6451,-4.6782,0.0,0.0,0.0,0.0,0.0,0.0,0.0,0.0,0.0,0.0,0.0,0.0,-4.6489,-4.5314,-4.4279,-4.4456,-4.502,-4.6192,-4.7353,-4.7998,-4.8223,-4.8561,-4.9001,-4.9603,-5.088,-5.1959,-5.3021,-5.4489,-5.5913,-5.7141,-5.888,-6.0691,-6.2571,-6.4435,-6.5878,-6.7065,-6.7878,-6.8476,-6.8948,-6.9557,-6.9933,-7.0104,-7.0589,-7.0789,-7.0789,-7.0789,-7.0789,-7.0782,-5.335,-5.3589,-5.4128,-5.5264,-5.5553,-5.5807,-5.6307,-5.6712,-5.7071,-5.7448,-5.8909,-6.014,-6.0693,-6.0818,-6.0957,-6.1219,-6.0289,-5.9349,-5.8403,-5.757,-5.6091,-5.3739,-5.2033,-5.0306,-4.8553,-4.7869,-4.7067,-4.6097,-4.5403,-4.4167,-4.2532,-4.1336,-4.2912,-4.6665,-4.4667,-4.6787,-5.1725,-5.0193,-4.966,-4.9749,-4.8946,-4.9299,-5.0573,-5.2659,-5.4573,-5.6361,-5.7523,-5.8212,-5.8399,-5.7434,-5.6598,-5.5706,-5.4304,-5.4612,-5.5014,-5.2953,-5.3407,-5.4163,-5.231,-5.2336,-5.2861,-5.2809,-5.1684,-5.0572,0.0,0.0,0.0,-4.7197,0.0,0.0,0.0,0.0,0.0,0.0,0.0,0.0,0.0,0.0,0.0,0.0,-4.4313,-4.3444,-4.2762,-4.3533,-4.4798,-4.6557,-4.6678,-4.7005,-4.762,-4.7163,-4.7566,-4.8985,-4.9952,-5.1259,-5.2961,-5.4474,-5.5933,-5.7478,-5.9179,-6.0682,-6.2011,-6.436,-6.5674,-6.6281,-6.7577,-6.8208,-6.8446,-6.9267,-6.9703,-6.9818,-7.0532,-7.0789,-7.0789,-7.0789,-7.0789,-7.075,-5.4056,-5.4969,-5.5881,-5.633,-5.6776,-5.7108,-5.7304,-5.6992,-5.7052,-5.7974,-5.94,-6.1057,-6.2905,-6.4415,-6.618,-6.8378,-6.6298,-6.5079,-6.5673,-6.235,-5.9689,-5.8155,-5.5093,-5.2948,-5.1871,-4.8925,-4.7489,-4.7542,-4.4986,-4.3323,-4.2467,-4.1691,-4.189,-4.3003,-4.5267,-4.8264,0.0,0.0,-5.4603,-5.8213,-5.6075,-5.2345,-4.8291,-5.1347,-5.2966,-5.4025,-5.7412,-5.9322,-6.009,-5.8842,-5.8367,-5.8016,-5.6124,-5.6373,-5.6847,-5.4112,-5.4274,-5.4865,-5.3033,-5.3172,-5.3351,-5.0929,-5.1601,-5.1802,-4.7921,0.0,-4.6617,-4.4407,0.0,0.0,0.0,0.0,0.0,0.0,0.0,0.0,0.0,0.0,0.0,0.0,-4.2127,-4.2278,-4.1641,-4.2414,-4.3718,-4.5733,-4.49,-4.5161,-4.7353,-4.681,-4.7471,-4.9707,-4.9757,-5.0842,-5.3143,-5.4031,-5.5676,-5.8127,-5.963,-6.1507,-6.3643,-6.463,-6.5764,-6.6879,-6.7061,-6.7638,-6.8446,-6.883,-6.9182,-6.9561,-7.0419,-7.0789,-7.0789,-7.0789,-7.0789,-7.0869,-5.4709,-5.5405,-5.6245,-5.676,-5.7364,-5.7756,-5.759,-5.9116,-6.0162,-5.9806,-6.2201,-6.4592,-6.634,-6.7539,-6.9267,-7.1893,-7.0755,-6.9309,-6.7749,-6.5045,-6.2352,-5.9831,-5.6896,-5.4482,-5.2603,-5.0232,-4.8718,-4.8026,-4.5953,-4.4228,-4.2844,-4.2248,-4.3857,-4.7327,-4.8751,0.0,-5.8101,0.0,-5.6401,0.0,-5.5928,-5.3497,-5.224,-5.553,-5.6795,-5.714,-5.9096,-5.9732,-5.9627,-5.8897,-5.7749,-5.6526,-5.6246,-5.551,-5.4662,-5.4205,-5.4096,-5.382,-5.2502,-5.2708,-5.2908,-5.1391,-5.1309,-5.0979,-4.8761,-4.7383,-4.6269,-4.5316,0.0,0.0,0.0,0.0,0.0,0.0,-3.9771,0.0,0.0,0.0,0.0,0.0,0.0,0.0,-4.1383,-4.2241,-4.2943,-4.3638,-4.3337,-4.3713,-4.4903,-4.4889,-4.5966,-4.8474,-4.8633,-4.983,-5.2228,-5.3964,-5.5784,-5.7582,-5.9791,-6.1741,-6.3319,-6.4454,-6.5412,-6.6165,-6.6753,-6.7335,-6.7939,-6.8595,-6.9182,-6.9703,-7.0306,-7.0532,-7.0532,-7.0532,-7.0701,-7.1029,-5.5504,-5.6088,-5.6747,-5.7305,-5.8074,-5.8668,-5.8561,-6.0901,-6.243,-6.1782,-6.4598,-6.754,-6.9671,-7.0759,-7.2595,-7.5688,-7.4978,-7.3323,-7.0927,-6.8166,-6.548,-6.2909,-5.9619,-5.6814,-5.4697,-5.2169,-5.0217,-4.8897,-4.6852,-4.5223,-4.3983,-4.3336,-4.5505,-5.004,-5.1379,-5.539,-6.0947,0.0,-5.786,-5.9723,-5.6048,-5.521,-5.6405,-5.8417,-5.9381,-5.9755,-6.0138,-5.9926,-5.9466,-5.8899,-5.744,-5.5819,-5.5991,-5.4799,-5.3388,-5.3838,-5.3697,-5.3079,-5.1988,-5.2045,-5.224,-5.1207,-5.0515,-4.98,-4.886,-4.7401,-4.6116,-4.5762,-4.4454,0.0,0.0,0.0,-4.0539,-3.9969,0.0,-3.8764,0.0,0.0,0.0,0.0,0.0,0.0,0.0,-4.1067,-4.1228,-4.1432,-4.12,-4.1571,-4.2678,-4.2979,-4.4409,-4.7193,-4.7583,-4.8897,-5.1274,-5.3694,-5.5592,-5.7092,-5.9896,-6.1761,-6.282,-6.4196,-6.5124,-6.5538,-6.6382,-6.706,-6.7669,-6.8358,-6.9065,-6.9703,-6.9933,-7.0161,-7.0388,-7.0501,-7.0813,-7.125,-5.6703,-5.7322,-5.794,-5.827,-5.9184,-6.0134,-6.0935,-6.1644,-6.2448,-6.3651,-6.5751,-6.8618,-7.2552,-7.4282,-7.6883,-8.107,-7.9174,-7.7592,-7.721,-7.263,-6.964,-6.8849,-6.406,-6.0813,-5.9521,-5.4922,-5.1927,-5.0627,-4.7274,-4.5873,-4.6247,-4.5081,-4.5665,-4.7868,-5.1869,-5.4581,-5.6298,-5.7803,-5.9792,-6.1638,-5.8699,-5.8159,-5.9133,-5.7581,-5.8288,-6.0061,-5.9801,-6.015,-6.0443,-5.9247,-5.8312,-5.7404,-5.5597,-5.497,-5.4661,-5.3204,-5.3116,-5.3281,-5.1807,-5.1601,-5.1377,-4.931,-4.9036,-4.8708,-4.6571,-4.6518,-4.6301,-4.4358,-4.431,-4.4122,-4.2436,-4.1344,-4.0397,-3.9508,-3.8942,0.0,0.0,0.0,0.0,0.0,0.0,0.0,0.0,-3.8044,-3.8076,0.0,-3.7987,-3.8276,-4.1488,-4.1622,-4.3113,-4.6401,-4.6857,-4.8249,-5.0889,-5.3027,-5.5072,-5.7092,-5.9896,-6.1654,-6.2448,-6.39,-6.4868,-6.5538,-6.5882,-6.6753,-6.797,-6.803,-6.8566,-6.9414,-6.9445,-6.9933,-7.0726,-7.1037,-7.1203,-7.1314,-5.8806,-5.9529,-5.984,-5.8806,-5.9596,-6.1084,-6.3248,-6.464,-6.6263,-6.8481,-7.0456,-7.3122,-7.7109,-7.785,-7.9262,-8.2386,-8.1006,-7.9246,-7.7276,-7.3705,-7.1081,-6.9808,-6.5359,-6.234,-6.0992,-5.7004,-5.3884,-5.1908,-4.9001,-4.7286,-4.6798,-4.6471,-4.6925,-4.8125,-5.1056,-5.2904,0.0,0.0,0.0,0.0,0.0,-5.4461,-5.596,-5.6753,-5.7622,-5.8353,-5.8788,-5.8598,-5.811,-5.832,-5.7108,-5.553,-5.5557,-5.4309,-5.2875,-5.3234,-5.2738,-5.1991,-5.1754,-5.2171,-5.2143,-4.9845,-4.938,-4.8888,-4.6541,-4.5893,-4.5373,-4.3866,-4.3863,-4.3614,-4.207,-4.1344,-4.0534,-3.9082,-3.8331,-3.7308,0.0,0.0,0.0,0.0,0.0,0.0,0.0,0.0,0.0,0.0,-3.714,0.0,-3.9191,-4.0103,-4.2102,-4.5238,-4.5917,-4.7265,-4.9504,-5.2545,-5.4728,-5.6199,-5.9391,-6.1411,-6.2448,-6.3638,-6.4418,-6.4868,-6.563,-6.6506,-6.7365,-6.785,-6.8654,-6.9703,-6.9875,-7.0388,-7.1037,-7.0893,-7.1337,-7.2208,-6.0889,-6.1238,-6.1103,-6.0074,-6.122,-6.3012,-6.5203,-6.748,-6.9656,-7.1679,-7.3589,-7.6057,-7.9544,-7.9652,-8.0468,-8.2979,-8.1823,-7.9947,-7.7431,-7.4823,-7.2432,-7.0261,-6.7021,-6.4395,-6.2585,-5.9217,-5.6158,-5.3414,-5.0772,-4.8829,-4.7625,-4.7322,-4.7285,-4.7553,-4.9515,-5.0063,-4.9474,-4.7604,-4.7638,0.0,0.0,-4.9801,-5.1819,-5.4004,-5.5581,-5.6877,-5.7723,-5.7428,-5.667,-5.7487,-5.6511,-5.4907,-5.5411,-5.411,-5.2633,-5.3497,-5.291,-5.1982,-5.209,-5.2484,-5.238,-5.03,-4.9556,-4.8846,-4.6586,-4.5907,-4.5463,-4.4147,-4.399,-4.3853,-4.2905,-4.1842,-4.0664,-3.9268,-3.8076,-3.6626,0.0,-3.3344,0.0,0.0,0.0,0.0,0.0,0.0,-3.6073,-3.4901,-3.5845,0.0,0.0,-3.8799,-4.0942,-4.3751,-4.5146,-4.6842,-4.8846,-5.2278,-5.4653,-5.5985,-5.9173,-6.1207,-6.2248,-6.3442,-6.4224,-6.474,-6.563,-6.6506,-6.7426,-6.7939,-6.883,-6.9844,-7.0275,-7.0782,-7.1369,-7.1337,-7.2046,-7.309,-6.2847,-6.2459,-6.2119,-6.2361,-6.4023,-6.5789,-6.7135,-7.0021,-7.2349,-7.331,-7.5198,-7.7423,-7.9968,-7.9932,-8.0674,-8.3043,-8.1736,-7.9918,-7.7938,-7.6101,-7.3745,-7.0564,-6.8955,-6.6938,-6.4411,-6.1508,-5.8386,-5.513,-5.2435,-5.0384,-4.8852,-4.7728,-4.6773,-4.607,-4.7192,0.0,-4.3718,-4.4573,-4.3821,-4.2192,-4.262,-4.4473,-4.7203,-4.9437,-5.2413,-5.5497,-5.662,-5.6638,-5.6141,-5.6801,-5.6367,-5.5499,-5.5244,-5.4505,-5.3794,-5.3958,-5.3616,-5.3059,-5.2854,-5.2571,-5.2047,-5.0495,-4.9637,-4.8642,-4.6637,-4.6552,-4.6511,-4.5072,-4.4745,-4.4755,-4.4691,-4.269,-4.0765,-3.9861,-3.8078,-3.5969,-3.3494,0.0,0.0,0.0,0.0,0.0,0.0,0.0,-3.3521,-3.4214,-3.4024,0.0,0.0,-3.7634,-3.9658,-4.2046,-4.4567,-4.6834,-4.8686,-5.225,-5.4794,-5.6332,-5.9311,-6.1138,-6.1856,-6.3319,-6.4325,-6.506,-6.5727,-6.6723,-6.803,-6.8268,-6.8945,-6.9844,-7.0438,-7.1084,-7.1721,-7.2348,-7.309,-7.3848,-6.4619,-6.5825,-6.6828,-6.6709,-6.6268,-6.759,-7.2626,-7.2589,-7.3542,-7.7766,-7.8571,-7.9679,-8.22,-8.1765,-8.1598,-8.2215,-8.1003,-7.9569,-7.7953,-7.5804,-7.3672,-7.1791,-6.8923,-6.6593,-6.4841,-6.1649,-5.8999,-5.6865,-5.3472,-5.1281,-5.0227,-4.8259,-4.6461,-4.4801,0.0,0.0,-4.0576,-3.9199,-3.8045,-3.7385,-3.8751,-4.1215,-4.4433,-4.7618,-5.0965,-5.4069,-5.5779,-5.6077,-5.5683,-5.5733,-5.5403,-5.4986,-5.4727,-5.4131,-5.3515,-5.4033,-5.385,-5.3504,-5.3703,-5.4034,-5.3795,-5.184,-5.0929,-4.9909,-4.7578,-4.7166,-4.6887,-4.5634,-4.5897,-4.5859,-4.4313,-4.3494,-4.2167,-3.9462,-3.7164,-3.5257,-3.373,-3.3599,0.0,-3.1948,0.0,0.0,0.0,-3.2621,-3.3185,-3.1982,-3.363,-3.4855,-3.5247,-3.7059,-3.9312,-4.1954,-4.4524,-4.69,-4.9131,-5.2392,-5.4794,-5.6332,-5.9311,-6.1275,-6.2287,-6.296,-6.3894,-6.5031,-6.5477,-6.6398,-6.7608,-6.7897,-6.8865,-7.0186,-7.0236,-7.1316,-7.2867,-7.3057,-7.3525,-7.4087,-6.6623,-6.8383,-7.0021,-7.0856,-6.9976,-7.0456,-7.4402,-7.4539,-7.5473,-7.9032,-8.0013,-8.0711,-8.1712,-8.1617,-8.1404,-8.1079,-7.9686,-7.8125,-7.6455,-7.4844,-7.2847,-7.0378,-6.8655,-6.6756,-6.4581,-6.2213,-5.9737,-5.7182,-5.3859,-5.1117,-4.9021,0.0,0.0,0.0,0.0,-3.9573,-3.8498,-3.6479,-3.5262,-3.4839,-3.7327,-4.0354,0.0,-4.8423,-5.1751,-5.4252,-5.6226,-5.6239,-5.5287,-5.5073,-5.4689,-5.4474,-5.4578,-5.4278,-5.3935,-5.4379,-5.427,-5.4039,-5.4276,-5.458,-5.4394,-5.251,-5.1646,-5.079,-4.8509,-4.7906,-4.7573,-4.6917,-4.6891,-4.6643,-4.5685,-4.428,-4.2177,-3.8556,-3.6634,-3.5076,-3.3654,-3.353,0.0,0.0,-3.1481,0.0,-2.9742,-3.1552,-3.2495,-3.1548,-3.332,-3.4501,0.0,-3.7193,-3.9667,-4.1914,-4.4964,-4.7679,-5.0038,-5.3193,-5.5497,-5.702,-5.9681,-6.1546,-6.262,-6.3049,-6.3942,-6.5256,-6.5221,-6.6042,-6.7275,-6.7488,-6.8318,-6.9476,-7.0317,-7.1581,-7.2944,-7.3445,-7.3902,-7.4389,-6.8423,-7.0181,-7.2,-7.3937,-7.382,-7.3787,-7.4632,-7.6109,-7.7587,-7.8864,-8.0508,-8.1101,-8.013,-8.0499,-8.0516,-7.972,-7.8121,-7.6288,-7.4315,-7.3566,-7.1637,-6.8048,-6.8161,-6.695,-6.408,-6.2677,-6.0275,-5.6773,-5.3843,-5.0509,-4.6875,0.0,0.0,0.0,0.0,0.0,0.0,-3.5409,-3.4653,-3.4858,-3.8063,-4.148,-4.5271,-5.0837,-5.3884,-5.5436,-5.7175,-5.6768,-5.529,-5.4863,-5.4455,-5.4331,-5.481,-5.4766,-5.4623,-5.4944,-5.4924,-5.4828,-5.4824,-5.4837,-5.4505,-5.2798,-5.2151,-5.1397,-4.9349,-4.8691,-4.8522,-4.8578,-4.7873,-4.7383,-4.7695,-4.5074,-4.1659,-3.8222,-3.6905,-3.5678,-3.3939,-3.3723,0.0,0.0,0.0,0.0,-2.9425,-3.0601,-3.1652,-3.1921,-3.2929,-3.383,0.0,0.0,-4.0156,-4.2018,-4.5622,-4.8629,-5.093,-5.4144,-5.6496,-5.7931,-6.0226,-6.1884,-6.299,-6.3343,-6.4294,-6.5605,-6.5231,-6.58,-6.7023,-6.7156,-6.7634,-6.8468,-7.0566,-7.176,-7.2488,-7.3589,-7.4323,-7.4722,-6.9069,-7.0996,-7.2737,-7.311,-7.4674,-7.6342,-7.7708,-7.7632,-7.834,-8.0613,-8.149,-8.1621,-8.0884,-8.0237,-7.935,-7.7992,-7.6467,-7.5098,-7.3784,-7.2214,-7.0374,-6.8394,-6.698,-6.5462,-6.3987,-6.1828,-5.9605,-5.7286,-5.4091,-5.0814,-4.7405,-4.3908,0.0,0.0,0.0,0.0,-3.5727,-3.4273,0.0,-4.0,-4.1846,-4.5109,-4.9399,-5.3312,-5.558,-5.6675,-5.7292,-5.7098,-5.6595,-5.5856,-5.5485,-5.538,-5.5598,-5.5314,-5.5087,-5.5996,-5.6377,-5.6376,-5.5853,-5.6104,-5.592,-5.3345,-5.2699,-5.2111,-5.0202,-4.9761,-4.9734,-4.9988,-4.9359,-4.8622,-4.8217,-4.5524,-4.2749,-4.0889,-3.9606,-3.8343,-3.693,-3.6343,-3.5019,0.0,0.0,-3.2069,-2.9715,-3.0727,-3.1402,-3.1207,-3.218,-3.3468,0.0,0.0,-3.9428,0.0,-4.598,-4.8719,-5.0794,-5.438,-5.6771,-5.7931,-6.0226,-6.2046,-6.3319,-6.3408,-6.4547,-6.6293,-6.5652,-6.6302,-6.7696,-6.7026,-6.7594,-6.8909,-7.055,-7.1796,-7.2709,-7.336,-7.4286,-7.5228,-7.0653,-7.2262,-7.3782,-7.4526,-7.6391,-7.8144,-7.9357,-7.965,-7.9977,-8.0831,-8.1263,-8.1217,-8.0365,-7.956,-7.8579,-7.7539,-7.5437,-7.3812,-7.287,-7.1028,-6.9417,-6.8272,-6.6788,-6.5345,-6.4108,-6.2121,-5.9919,-5.7524,-5.423,-5.0863,-4.7483,-4.4126,-4.1307,-3.8954,0.0,-3.7484,0.0,0.0,-4.082,-4.2881,-4.6352,-4.9692,-5.301,-5.628,-5.7938,-5.8345,-5.8011,-5.8035,-5.795,-5.6728,-5.644,-5.655,-5.658,-5.6803,-5.7146,-5.7551,-5.7815,-5.7981,-5.7332,-5.7049,-5.6437,-5.4441,-5.3516,-5.268,-5.1484,-5.0795,-5.0491,-5.0764,-5.0345,-4.9461,-4.8177,-4.5865,-4.357,-4.1825,-4.0417,-3.9004,-3.7496,-3.6901,-3.5565,0.0,0.0,0.0,0.0,-3.1095,0.0,0.0,0.0,0.0,0.0,0.0,-4.0209,0.0,-4.6418,-4.9236,-5.1984,-5.464,-5.6689,-5.8278,-6.0066,-6.1603,-6.2908,-6.2972,-6.3989,-6.571,-6.5162,-6.5643,-6.6822,-6.6986,-6.764,-6.8683,-7.0237,-7.1227,-7.1903,-7.3207,-7.4243,-7.5012,-7.2253,-7.3596,-7.492,-7.6217,-7.8118,-7.986,-8.075,-8.1678,-8.1932,-8.107,-8.1094,-8.0832,-7.9812,-7.896,-7.8072,-7.7198,-7.4691,-7.2764,-7.1764,-7.0043,-6.8693,-6.7798,-6.6738,-6.543,-6.4001,-6.2581,-6.0448,-5.7523,-5.4764,-5.1467,-4.7799,-4.5107,-4.2497,-4.0175,-4.1522,0.0,-4.0056,-4.4354,-4.6378,-4.7214,-5.123,-5.4245,-5.6566,-5.898,-5.9722,-5.9508,-5.8579,-5.8524,-5.8693,-5.7418,-5.7331,-5.766,-5.7687,-5.8323,-5.912,-5.9016,-5.9164,-5.9289,-5.8671,-5.7991,-5.7036,-5.5544,-5.4392,-5.3443,-5.2743,-5.1813,-5.118,-5.1575,-5.1041,-4.9938,-4.7931,-4.6223,-4.4412,-4.2251,-4.0823,-3.9495,-3.7915,-3.7293,-3.6048,0.0,0.0,0.0,-3.1224,0.0,0.0,0.0,0.0,0.0,-3.5639,-3.8054,-4.0846,-4.3997,-4.6627,-4.9495,-5.2583,-5.476,-5.6793,-5.8721,-5.9977,-6.1352,-6.262,-6.2744,-6.3651,-6.5083,-6.4805,-6.5146,-6.604,-6.7091,-6.7797,-6.8416,-6.9846,-7.0614,-7.1202,-7.2945,-7.4026,-7.4788,-7.3124,-7.4512,-7.5842,-7.6605,-7.948,-8.1857,-8.234,-8.3525,-8.3962,-8.2685,-8.1976,-8.1154,-8.0088,-7.8955,-7.7624,-7.5976,-7.427,-7.2584,-7.0991,-6.9701,-6.8253,-6.6666,-6.612,-6.4958,-6.3161,-6.248,-6.0595,-5.7457,-5.6198,-5.3301,-4.8884,-4.7508,-4.5412,-4.304,-4.3451,-4.5361,-4.8223,-4.8005,-5.1041,-5.6185,-5.6547,-5.8079,-6.022,-6.0311,-5.9866,-5.9163,-5.8242,-5.7962,-5.7996,-5.7782,-5.813,-5.8691,-5.8828,-5.9189,-5.9601,-5.9995,-6.0106,-5.9907,-5.9289,-5.9107,-5.8472,-5.6063,-5.5164,-5.4658,-5.3687,-5.2619,-5.2122,-5.2924,-5.1689,-4.9727,-4.7511,-4.6716,-4.5468,-4.2624,-4.1768,-4.1063,-3.9697,-3.8679,-3.7363,-3.5451,0.0,0.0,-3.3443,-3.1701,0.0,0.0,-3.3397,-3.4097,-3.6896,-3.7792,-4.0065,-4.398,-4.6402,-4.8798,-5.1173,-5.476,-5.7407,-5.9045,-6.0365,-6.1671,-6.296,-6.3579,-6.4456,-6.5467,-6.5635,-6.5996,-6.6575,-6.742,-6.8101,-6.8649,-6.9529,-7.0472,-7.1356,-7.2241,-7.3535,-7.5046,-7.4034,-7.5246,-7.6779,-7.8953,-8.1017,-8.2942,-8.4543,-8.4812,-8.4668,-8.433,-8.3082,-8.1852,-8.1025,-7.8719,-7.6762,-7.5583,-7.3656,-7.2131,-7.0954,-6.9656,-6.8706,-6.8164,-6.6965,-6.5883,-6.4823,-6.3434,-6.1721,-5.9533,-5.7963,-5.5633,-5.2558,-5.1771,-5.0731,-4.9487,-5.0783,-5.2055,-5.3172,-5.4685,-5.669,-5.8831,-5.9631,-6.0399,-6.1213,-6.091,-6.0036,-5.876,-5.7561,-5.7454,-5.7881,-5.7452,-5.8259,-5.9345,-5.9331,-6.0073,-6.086,-6.0687,-6.0821,-6.078,-5.9935,-5.9248,-5.8389,-5.7205,-5.5936,-5.5017,-5.4963,-5.3779,-5.2841,-5.3533,-5.2072,-5.0329,-4.9115,-4.7486,-4.578,-4.4134,-4.2739,-4.1484,-4.0389,-3.9628,-3.8366,-3.6221,0.0,-3.5681,0.0,-3.3592,0.0,0.0,0.0,-3.4209,-3.641,-3.8475,-4.0624,-4.2952,0.0,-4.9296,-5.1138,-5.4101,-5.6409,-5.8014,-5.9498,-6.0825,-6.1908,-6.2913,-6.4088,-6.5402,-6.5847,-6.6381,-6.7161,-6.7949,-6.8501,-6.8896,-6.9751,-7.0343,-7.0958,-7.1858,-7.2903,-7.3979,-7.5633,-7.6939,-7.8596,-8.1017,-8.293,-8.4647,-8.6357,-8.6169,-8.5823,-8.5737,-8.403,-8.2486,-8.1379,-7.8635,-7.6444,-7.552,-7.3385,-7.174,-7.096,-6.9612,-6.8838,-6.877,-6.744,-6.6363,-6.5619,-6.4455,-6.3112,-6.1633,-6.0392,-5.8673,-5.6549,-5.5849,-5.5482,-5.536,-5.6783,-5.7327,-5.7285,-5.9499,-6.0471,-6.0589,-6.1384,-6.1494,-6.1157,-6.0586,-5.9522,-5.8228,-5.672,-5.6917,-5.7655,-5.7132,-5.799,-5.9273,-5.9579,-6.0618,-6.1615,-6.0972,-6.0914,-6.0921,-6.0181,-5.9267,-5.8477,-5.8158,-5.6824,-5.5758,-5.6201,-5.4807,-5.3429,-5.3467,-5.2078,-5.0692,-4.9898,-4.7865,-4.5932,-4.4719,-4.3294,-4.1903,-4.0693,-4.0167,-3.921,-3.7359,-3.6978,-3.6868,-3.6801,-3.5665,0.0,0.0,-3.7068,-3.6306,-3.7672,-3.9697,-4.1567,-4.3287,-4.6923,-4.9732,-5.1562,-5.3888,-5.5941,-5.7743,-5.9124,-6.0268,-6.1221,-6.2675,-6.4168,-6.5677,-6.6076,-6.6764,-6.7695,-6.8351,-6.8847,-6.9285,-7.0035,-7.041,-7.0721,-7.158,-7.2383,-7.3181,-7.8051,-7.9983,-8.1661,-8.2346,-8.536,-8.7574,-8.7332,-8.7887,-8.7978,-8.6945,-8.4864,-8.2778,-8.0941,-7.8695,-7.6876,-7.5591,-7.3428,-7.1741,-7.0853,-6.9422,-6.8276,-6.751,-6.6967,-6.6112,-6.4764,-6.5331,-6.4789,-6.3055,-6.3436,-6.2527,-6.0367,-5.9285,-5.8982,-5.956,-5.9742,-6.018,-6.0733,-6.0845,-6.1518,-6.2432,-6.1951,-6.1216,-6.0363,-5.9348,-5.8317,-5.7223,-5.579,-5.6076,-5.7184,-5.7013,-5.7477,-5.8249,-5.9618,-6.0713,-6.1379,-6.0592,-6.0245,-6.0005,-5.9687,-5.9392,-5.908,-5.8807,-5.7938,-5.7237,-5.7431,-5.5838,-5.3913,-5.2673,-5.1678,-5.0491,-4.8881,-4.7679,-4.61,-4.3738,-4.323,-4.2553,-4.0814,-4.0323,-3.9869,-3.9244,-3.7228,-3.7025,-3.9861,-3.7746,0.0,0.0,-4.1576,-4.0978,-4.1524,-4.1355,-4.2659,-4.575,-4.7684,-4.9807,-5.2197,-5.4342,-5.6528,-5.8693,-5.9625,-6.0565,-6.1489,-6.3309,-6.5045,-6.6617,-6.6617,-6.7213,-6.8201,-6.8501,-6.9091,-6.9846,-7.0283,-7.0654,-7.0961,-7.1423,-7.2209,-7.3157,-7.9464,-8.0938,-8.2425,-8.4346,-8.578,-8.6912,-8.7611,-8.6659,-8.6044,-8.6369,-8.3746,-8.1569,-8.0441,-7.8079,-7.5796,-7.3959,-7.2526,-7.1123,-6.9829,-6.9047,-6.8182,-6.7234,-6.6635,-6.5968,-6.5161,-6.5193,-6.5104,-6.5248,-6.4831,-6.4149,-6.3181,-6.2761,-6.2751,-6.3207,-6.3073,-6.3191,-6.3436,-6.248,-6.2041,-6.206,-6.1184,-6.0071,-5.8893,-5.8556,-5.7656,-5.6381,-5.5535,-5.5824,-5.6664,-5.6586,-5.7485,-5.8596,-5.8718,-5.9417,-6.0135,-5.983,-5.9441,-5.9088,-5.9042,-5.8515,-5.8055,-5.835,-5.7661,-5.7024,-5.7652,-5.6252,-5.4549,-5.3503,-5.2194,-5.0884,-4.9819,-4.834,-4.6757,-4.5104,-4.4226,-4.3282,-4.1889,-4.1462,-4.1077,-4.0427,-4.0278,-4.0723,-4.1877,-4.1407,0.0,0.0,0.0,-4.1625,-4.2475,-4.3813,-4.4775,-4.5399,-4.9106,-5.1372,-5.1904,-5.4398,-5.6319,-5.7722,-5.9215,-6.0886,-6.2634,-6.3437,-6.4538,-6.5859,-6.6242,-6.7093,-6.8251,-6.9091,-6.9559,-6.9893,-7.0699,-7.1098,-7.1233,-7.1722,-7.2165,-7.2544,-8.0883,-8.2236,-8.3571,-8.5545,-8.6508,-8.7122,-8.7423,-8.6178,-8.5164,-8.533,-8.2723,-8.0445,-7.9322,-7.7094,-7.4916,-7.3267,-7.1743,-7.0306,-6.9148,-6.8126,-6.7238,-6.6424,-6.5649,-6.521,-6.5196,-6.5388,-6.6023,-6.7078,-6.6653,-6.6382,-6.6075,-6.4985,-6.4444,-6.4367,-6.3676,-6.3191,-6.2983,-6.1977,-6.1335,-6.0975,-6.0182,-5.9023,-5.7693,-5.7872,-5.7175,-5.6078,-5.5654,-5.6069,-5.6771,-5.6662,-5.7114,-5.7811,-5.7697,-5.7713,-5.7847,-5.8292,-5.8319,-5.8168,-5.802,-5.7721,-5.7541,-5.8114,-5.7546,-5.6885,-5.7075,-5.5981,-5.4666,-5.3638,-5.2493,-5.1268,-5.0025,-4.8728,-4.7408,-4.601,-4.4886,-4.3756,-4.2624,-4.2328,-4.2125,-4.1721,-4.2492,-4.3423,-4.4242,-4.4826,-4.5563,-4.6498,0.0,-4.5068,-4.6172,-4.5946,-4.6165,-4.7077,-5.0535,-5.2528,-5.2909,-5.5206,-5.6865,-5.7868,-5.9749,-6.1608,-6.335,-6.368,-6.4468,-6.5593,-6.6017,-6.6984,-6.8275,-6.9082,-6.9769,-7.0456,-7.1052,-7.1412,-7.159,-7.1898,-7.2202,-7.2459,-8.2102,-8.3664,-8.4918,-8.5972,-8.7322,-8.7887,-8.6871,-8.6081,-8.519,-8.3992,-8.1691,-7.957,-7.7686,-7.5875,-7.4359,-7.329,-7.1088,-6.9474,-6.8847,-6.7002,-6.5702,-6.5292,-6.4345,-6.4108,-6.4805,-6.5899,-6.716,-6.8597,-6.8742,-6.8758,-6.8628,-6.6166,-6.4494,-6.3477,-6.2117,-6.1066,-6.0247,-5.9838,-5.9612,-5.9521,-5.9107,-5.8068,-5.6817,-5.7268,-5.6843,-5.61,-5.6015,-5.6429,-5.7172,-5.7064,-5.6598,-5.6155,-5.6726,-5.5947,-5.5066,-5.6252,-5.6904,-5.71,-5.6832,-5.6999,-5.7369,-5.7833,-5.75,-5.6819,-5.6013,-5.5268,-5.4416,-5.3318,-5.2611,-5.1674,-4.9746,-4.8877,-4.7964,-4.652,-4.5296,-4.4197,-4.3248,-4.3215,-4.3274,-4.3293,-4.4216,-4.5504,-4.7045,-4.8074,-4.918,-5.0564,0.0,-5.0319,-5.1704,-4.7876,-4.7178,-5.0388,-5.1908,-5.3406,-5.4896,-5.6637,-5.7971,-5.8979,-6.0994,-6.2499,-6.3431,-6.3959,-6.4688,-6.564,-6.5934,-6.6905,-6.8276,-6.8559,-6.9654,-7.1153,-7.1198,-7.1498,-7.196,-7.196,-7.2262,-7.2644,-8.22,-8.3664,-8.4892,-8.5677,-8.6567,-8.684,-8.5792,-8.4532,-8.3292,-8.212,-8.0063,-7.8105,-7.6552,-7.5211,-7.3863,-7.2537,-7.1444,-7.0173,-6.8481,-6.7557,-6.6339,-6.4705,-6.4149,-6.4299,-6.5361,-6.6055,-6.7341,-6.9131,-6.9107,-6.8519,-6.7197,-6.5512,-6.4009,-6.2614,-6.1605,-6.0678,-5.9816,-5.9339,-5.8993,-5.8555,-5.8071,-5.7244,-5.6297,-5.6388,-5.6309,-5.6013,-5.5584,-5.6006,-5.6781,-5.6679,-5.6438,-5.6081,-5.593,-5.5717,-5.5676,-5.616,-5.5898,-5.5618,-5.5999,-5.5991,-5.6019,-5.6225,-5.6416,-5.6435,-5.5922,-5.5609,-5.515,-5.4142,-5.3169,-5.2075,-5.0793,-4.9522,-4.8368,-4.7355,-4.6448,-4.5692,-4.5226,-4.6203,-4.6976,-4.7082,-4.8771,-4.9971,-5.0189,-5.123,-5.1395,-5.0248,-5.0268,-5.0601,-5.1213,-5.0007,-5.0334,-5.2702,-5.3743,-5.4789,-5.5932,-5.6972,-5.8162,-5.9506,-6.1072,-6.1979,-6.246,-6.3341,-6.4272,-6.519,-6.5668,-6.6579,-6.7831,-6.8426,-6.902,-6.9596,-7.0149,-7.0823,-7.143,-7.1767,-7.1974,-7.2063,-8.3383,-8.4242,-8.4932,-8.6019,-8.6009,-8.56,-8.4892,-8.3464,-8.1945,-8.0731,-7.8821,-7.7013,-7.5542,-7.4621,-7.3634,-7.2629,-7.1409,-7.0032,-6.875,-6.7587,-6.6197,-6.4662,-6.4367,-6.4601,-6.5184,-6.6235,-6.7735,-6.9714,-6.9421,-6.842,-6.6927,-6.5149,-6.3332,-6.1428,-6.0454,-5.9452,-5.8383,-5.8053,-5.7885,-5.7629,-5.7256,-5.6892,-5.6513,-5.6877,-5.6821,-5.6459,-5.6603,-5.6896,-5.7191,-5.67,-5.6401,-5.607,-5.5208,-5.5007,-5.5032,-5.4825,-5.4958,-5.5175,-5.5239,-5.5254,-5.5233,-5.5445,-5.565,-5.5852,-5.605,-5.558,-5.4903,-5.4229,-5.3532,-5.2674,-5.117,-5.0518,-4.9758,-4.8452,-4.7886,-4.7461,-4.698,-4.8431,-4.9683,-5.0095,-5.197,-5.3207,-5.3264,-5.387,-5.371,-5.2354,-5.2034,-5.2177,-5.2851,-5.2411,-5.2794,-5.4144,-5.4978,-5.5845,-5.6793,-5.8106,-5.9437,-6.0665,-6.1509,-6.1956,-6.2174,-6.3288,-6.4072,-6.4602,-6.5403,-6.6464,-6.7658,-6.8146,-6.8784,-6.9518,-6.9932,-7.0381,-7.0891,-7.122,-7.1423,-7.1468,-8.4784,-8.4919,-8.5163,-8.6354,-8.558,-8.4617,-8.4123,-8.2548,-8.0994,-7.9699,-7.7903,-7.622,-7.4746,-7.4052,-7.3486,-7.3081,-7.124,-6.994,-6.9501,-6.758,-6.6066,-6.5084,-6.4973,-6.4999,-6.5275,-6.6677,-6.8229,-6.9966,-6.9345,-6.8282,-6.6869,-6.4811,-6.2606,-6.0468,-5.9227,-5.8024,-5.6849,-5.6731,-5.6738,-5.6803,-5.6832,-5.6809,-5.6902,-5.773,-5.7514,-5.6976,-5.7702,-5.793,-5.779,-5.6954,-5.6395,-5.5806,-5.4878,-5.4419,-5.4174,-5.3713,-5.449,-5.532,-5.4585,-5.454,-5.4773,-5.5061,-5.5158,-5.5357,-5.6081,-5.5489,-5.4619,-5.4179,-5.3924,-5.3257,-5.1583,-5.1522,-5.1166,-4.9627,-4.945,-4.9289,-4.8641,-5.0445,-5.2059,-5.2661,-5.4481,-5.5779,-5.6018,-5.6036,-5.5738,-5.5159,-5.4428,-5.4397,-5.5267,-5.4822,-5.4841,-5.5453,-5.5962,-5.6758,-5.7732,-5.9447,-6.0805,-6.1678,-6.1955,-6.2121,-6.2154,-6.3396,-6.4046,-6.4222,-6.5303,-6.644,-6.7545,-6.7726,-6.8599,-6.9797,-6.9838,-7.0071,-7.0344,-7.0545,-7.0779,-7.1081,-8.4583,-8.5103,-8.5531,-8.5462,-8.5278,-8.476,-8.3539,-8.2078,-8.0505,-7.8893,-7.7318,-7.5848,-7.4385,-7.3913,-7.347,-7.2601,-7.1509,-7.0776,-7.068,-6.8737,-6.7206,-6.6217,-6.573,-6.5999,-6.68,-6.7892,-6.8627,-6.8908,-6.7999,-6.6955,-6.5832,-6.3844,-6.2265,-6.1001,-5.8685,-5.7645,-5.7358,-5.6449,-5.6367,-5.6686,-5.6774,-5.6746,-5.671,-5.6946,-5.7171,-5.7358,-5.7132,-5.7227,-5.7537,-5.7238,-5.6232,-5.5249,-5.5846,-5.5524,-5.4828,-5.4814,-5.542,-5.5762,-5.417,-5.3873,-5.4111,-5.4806,-5.5165,-5.5409,-5.5626,-5.5996,-5.6085,-5.528,-5.446,-5.3817,-5.3266,-5.2105,-5.1067,-5.0622,-5.0842,-5.0937,-5.0586,-5.3157,-5.5104,-5.5128,-5.7024,-5.8111,-5.7634,-5.7229,-5.674,-5.6146,-5.6118,-5.6279,-5.6565,-5.6576,-5.6862,-5.7621,-5.7199,-5.7682,-5.9231,-6.0201,-6.0788,-6.1141,-6.1801,-6.2098,-6.2174,-6.3297,-6.4209,-6.4853,-6.5455,-6.6263,-6.7199,-6.7441,-6.7878,-6.8423,-6.8621,-6.9198,-6.9984,-7.0217,-7.0678,-7.1276,-8.6744,-8.6876,-8.6661,-8.6234,-8.5363,-8.4219,-8.2846,-8.133,-7.9749,-7.7903,-7.6885,-7.5628,-7.3783,-7.3454,-7.3146,-7.2485,-7.1022,-7.0387,-7.0942,-6.9074,-6.7469,-6.648,-6.6518,-6.6878,-6.7578,-6.8122,-6.8337,-6.8337,-6.7268,-6.6175,-6.485,-6.3431,-6.169,-5.9955,-5.8758,-5.7746,-5.6985,-5.6485,-5.641,-5.6675,-5.6422,-5.6705,-5.7112,-5.7197,-5.7339,-5.7534,-5.7851,-5.7909,-5.7832,-5.7523,-5.683,-5.6032,-5.5844,-5.5805,-5.5625,-5.5151,-5.5076,-5.499,-5.456,-5.4111,-5.3861,-5.4259,-5.4666,-5.507,-5.531,-5.5677,-5.5791,-5.5343,-5.4844,-5.4308,-5.3702,-5.3267,-5.2786,-5.2135,-5.293,-5.3566,-5.3442,-5.5556,-5.7057,-5.6806,-5.7788,-5.807,-5.709,-5.6928,-5.6635,-5.6077,-5.6672,-5.7182,-5.7308,-5.759,-5.8015,-5.8563,-5.8702,-5.927,-6.0451,-6.1187,-6.1635,-6.1683,-6.2051,-6.2178,-6.2286,-6.3721,-6.4585,-6.4998,-6.6173,-6.7046,-6.7644,-6.7799,-6.8044,-6.8435,-6.8513,-6.8837,-6.93,-6.9526,-6.9887,-7.0278,-8.8749,-8.8334,-8.7631,-8.7006,-8.531,-8.3596,-8.226,-8.0593,-7.8891,-7.7382,-7.6421,-7.5253,-7.3451,-7.3063,-7.2549,-7.1923,-7.0407,-6.9739,-7.0371,-6.8818,-6.7488,-6.6872,-6.7066,-6.7488,-6.7971,-6.788,-6.7788,-6.7696,-6.6774,-6.5537,-6.4016,-6.2845,-6.1222,-5.9261,-5.866,-5.7753,-5.6579,-5.6377,-5.6203,-5.6168,-5.6022,-5.6432,-5.7133,-5.7416,-5.7475,-5.7567,-5.8255,-5.832,-5.8098,-5.7539,-5.7103,-5.6824,-5.6281,-5.6228,-5.6284,-5.5909,-5.5127,-5.4571,-5.5158,-5.463,-5.391,-5.4154,-5.4475,-5.4826,-5.512,-5.5315,-5.5453,-5.5429,-5.515,-5.4717,-5.4223,-5.4338,-5.4224,-5.3412,-5.4562,-5.5544,-5.5594,-5.7026,-5.7973,-5.7774,-5.7863,-5.7559,-5.6625,-5.6645,-5.6606,-5.6283,-5.7145,-5.7761,-5.7988,-5.8394,-5.8885,-5.9459,-6.0066,-6.0717,-6.1465,-6.2174,-6.2547,-6.2586,-6.2547,-6.2547,-6.262,-6.4215,-6.505,-6.5289,-6.6822,-6.7787,-6.8241,-6.8241,-6.8435,-6.8781,-6.8781,-6.8819,-6.8895,-6.9118,-6.9409,-6.9765,-8.9009,-8.8388,-8.7691,-8.6953,-8.51,-8.3318,-8.215,-7.9879,-7.8095,-7.7665,-7.5887,-7.439,-7.3652,-7.2865,-7.1923,-7.0478,-6.9919,-6.9181,-6.8416,-6.7689,-6.7523,-6.7848,-6.7479,-6.7488,-6.7971,-6.7488,-6.7027,-6.6589,-6.6124,-6.5095,-6.3535,-6.1986,-6.0934,-6.0244,-5.7783,-5.6662,-5.6469,-5.5545,-5.5135,-5.5182,-5.5602,-5.5904,-5.6037,-5.7154,-5.7532,-5.7454,-5.7103,-5.7447,-5.8068,-5.7022,-5.661,-5.6699,-5.805,-5.76,-5.678,-5.7736,-5.6973,-5.5737,-5.5703,-5.4857,-5.4236,-5.4939,-5.5117,-5.5114,-5.4904,-5.5402,-5.5981,-5.6042,-5.5398,-5.4978,-5.5521,-5.4894,-5.4124,-5.3897,-5.4879,-5.575,-5.5921,-5.6723,-5.7426,-5.7838,-5.763,-5.7505,-5.7603,-5.7274,-5.7236,-5.7604,-5.7902,-5.8287,-5.878,-5.913,-5.9804,-6.0829,-6.1085,-6.1562,-6.2286,-6.2927,-6.334,-6.3526,-6.3302,-6.334,-6.3526,-6.4542,-6.5377,-6.6069,-6.7128,-6.8002,-6.8667,-6.8667,-6.8816,-6.9078,-6.9078,-6.919,-6.9376,-6.9524,-7.0055,-7.0832,-8.9511,-8.9054,-8.8211,-8.7003,-8.5201,-8.3221,-8.1395,-7.938,-7.7612,-7.6498,-7.4904,-7.3541,-7.2605,-7.1496,-7.0605,-6.9768,-6.8715,-6.8079,-6.8039,-6.7257,-6.6878,-6.7088,-6.6871,-6.6774,-6.6589,-6.6091,-6.5646,-6.5182,-6.4015,-6.3174,-6.2552,-6.1014,-5.982,-5.8881,-5.7556,-5.6602,-5.5968,-5.5586,-5.5426,-5.5326,-5.4978,-5.5262,-5.5766,-5.5712,-5.609,-5.6664,-5.6753,-5.6862,-5.6888,-5.7117,-5.6882,-5.6549,-5.6973,-5.6958,-5.6823,-5.6917,-5.6541,-5.6043,-5.5768,-5.5215,-5.4665,-5.4449,-5.4463,-5.4456,-5.4126,-5.4773,-5.5629,-5.6281,-5.571,-5.5299,-5.599,-5.528,-5.4625,-5.4817,-5.5412,-5.6058,-5.6655,-5.6993,-5.7186,-5.7146,-5.6861,-5.6548,-5.6312,-5.6437,-5.6715,-5.7143,-5.8555,-5.9331,-5.9141,-5.9857,-6.0919,-6.2322,-6.2248,-6.2369,-6.2751,-6.2991,-6.3407,-6.3965,-6.3892,-6.3892,-6.3999,-6.5322,-6.6127,-6.6516,-6.7768,-6.8578,-6.9083,-6.9005,-6.908,-6.9264,-6.9264,-6.9377,-6.9524,-6.9561,-7.0026,-7.07,-8.9265,-8.8636,-8.7608,-8.6374,-8.4457,-8.2523,-8.0661,-7.857,-7.6761,-7.5374,-7.3882,-7.2613,-7.1529,-7.0455,-6.9511,-6.8989,-6.7855,-6.729,-6.7492,-6.6713,-6.631,-6.631,-6.631,-6.5959,-6.535,-6.4995,-6.434,-6.3619,-6.2688,-6.1914,-6.1234,-6.0023,-5.8801,-5.7734,-5.7035,-5.6233,-5.5325,-5.5325,-5.5224,-5.5082,-5.4684,-5.474,-5.5103,-5.4973,-5.5125,-5.5479,-5.5976,-5.605,-5.5976,-5.6419,-5.6432,-5.6332,-5.6452,-5.6675,-5.6857,-5.6239,-5.6244,-5.6286,-5.5608,-5.5486,-5.5285,-5.4442,-5.4034,-5.3874,-5.3923,-5.4592,-5.5414,-5.6188,-5.5825,-5.5536,-5.5935,-5.5354,-5.4924,-5.5326,-5.5665,-5.6174,-5.7081,-5.6946,-5.6732,-5.6697,-5.6404,-5.6109,-5.584,-5.6312,-5.6961,-5.7685,-5.9074,-5.9844,-5.9781,-6.0848,-6.2057,-6.3227,-6.3041,-6.3178,-6.3728,-6.3624,-6.3834,-6.4463,-6.4463,-6.4498,-6.4603,-6.6143,-6.688,-6.7058,-6.8418,-6.9157,-6.9379,-6.9264,-6.9264,-6.9412,-6.9412,-6.9487,-6.9598,-6.9742,-7.0097,-7.0587,-8.801,-8.6758,-8.5556,-8.473,-8.2733,-8.0913,-8.0012,-7.7403,-7.5267,-7.4574,-7.2859,-7.1393,-7.0732,-6.9838,-6.8913,-6.8105,-6.7488,-6.7027,-6.6496,-6.6055,-6.5775,-6.5775,-6.5775,-6.5327,-6.4341,-6.4318,-6.3526,-6.1993,-6.2452,-6.1665,-5.9698,-5.9061,-5.8189,-5.7135,-5.6031,-5.5325,-5.4838,-5.4838,-5.4533,-5.4023,-5.4513,-5.4303,-5.3628,-5.5164,-5.4979,-5.3831,-5.4393,-5.4952,-5.5308,-5.4783,-5.5191,-5.6007,-5.6772,-5.6966,-5.6825,-5.6172,-5.6342,-5.6433,-5.5222,-5.5642,-5.6152,-5.5166,-5.4141,-5.3629,-5.4496,-5.507,-5.5446,-5.5672,-5.5686,-5.5623,-5.5454,-5.5077,-5.4924,-5.5326,-5.5638,-5.6115,-5.7062,-5.6405,-5.6022,-5.6625,-5.6401,-5.6374,-5.6755,-5.7266,-5.8202,-5.9699,-5.9439,-5.9688,-6.0764,-6.2193,-6.3105,-6.3413,-6.3413,-6.4005,-6.5316,-6.4877,-6.4775,-6.5014,-6.5014,-6.5115,-6.5351,-6.6875,-6.7583,-6.7654,-6.8999,-6.9598,-6.9598,-6.9451,-6.9412,-6.9412,-6.9412,-6.9487,-6.9634,-7.0026,-7.0306,-7.0655,-8.4728,-8.4206,-8.342,-8.1858,-8.0538,-7.9308,-7.8301,-7.591,-7.4101,-7.3732,-7.1603,-7.0088,-7.0049,-6.8988,-6.8218,-6.8445,-6.7672,-6.6843,-6.6055,-6.5868,-6.5494,-6.4836,-6.5024,-6.493,-6.4319,-6.3223,-6.2501,-6.2051,-6.0732,-5.9972,-5.958,-5.8349,-5.7301,-5.6635,-5.5102,-5.4208,-5.3697,-5.3697,-5.3595,-5.3473,-5.3672,-5.3725,-5.347,-5.3304,-5.3304,-5.3282,-5.3215,-5.3273,-5.3443,-5.3909,-5.4076,-5.4152,-5.5038,-5.5282,-5.5191,-5.5143,-5.5767,-5.6159,-5.4913,-5.5245,-5.56,-5.4636,-5.4666,-5.4835,-5.4557,-5.529,-5.6112,-5.6366,-5.5946,-5.5702,-5.6088,-5.5911,-5.5645,-5.5377,-5.6033,-5.6478,-5.6115,-5.5802,-5.5612,-5.5632,-5.5945,-5.6343,-5.688,-5.7473,-5.8383,-5.977,-6.0494,-6.1189,-6.1865,-6.2703,-6.3393,-6.386,-6.4189,-6.4796,-6.5643,-6.4716,-6.4584,-6.5216,-6.5216,-6.5249,-6.5351,-6.6309,-6.6837,-6.7009,-6.7832,-6.8505,-6.9035,-6.8857,-6.903,-6.9412,-6.9487,-6.9352,-6.9106,-6.9419,-6.9759,-7.0058,-8.2525,-8.1764,-8.0794,-7.9351,-7.8242,-7.7328,-7.6294,-7.4511,-7.2967,-7.2501,-7.0731,-6.96,-6.9816,-6.8733,-6.8221,-6.8627,-6.758,-6.6589,-6.5868,-6.5587,-6.5118,-6.434,-6.4151,-6.3776,-6.31,-6.2198,-6.1294,-6.0548,-5.9478,-5.8919,-5.8718,-5.7522,-5.6547,-5.5709,-5.429,-5.339,-5.2897,-5.3083,-5.3185,-5.3269,-5.3527,-5.3463,-5.3172,-5.3013,-5.2827,-5.2559,-5.2662,-5.2493,-5.233,-5.3122,-5.3185,-5.3198,-5.4334,-5.4494,-5.4336,-5.4808,-5.5477,-5.5939,-5.5055,-5.5409,-5.5786,-5.4854,-5.5048,-5.5306,-5.4816,-5.5506,-5.6169,-5.5741,-5.5559,-5.5469,-5.545,-5.5755,-5.5943,-5.5646,-5.6243,-5.6574,-5.6074,-5.5618,-5.539,-5.5573,-5.6141,-5.6889,-5.784,-5.8466,-5.9373,-6.0648,-6.1647,-6.2438,-6.2913,-6.3502,-6.4118,-6.4686,-6.5148,-6.5551,-6.5863,-6.5209,-6.5015,-6.5382,-6.548,-6.5513,-6.5548,-6.6327,-6.6782,-6.6916,-6.7603,-6.8354,-6.8996,-6.8787,-6.9035,-6.9487,-6.9561,-6.9283,-6.8926,-6.9267,-6.963,-6.9949,-8.0774,-7.9433,-7.8018,-7.6973,-7.6121,-7.5201,-7.4214,-7.2992,-7.1878,-7.1107,-7.0104,-6.949,-6.9704,-6.8917,-6.8386,-6.8709,-6.7372,-6.631,-6.5775,-6.5212,-6.4741,-6.4151,-6.313,-6.2199,-6.1152,-6.113,-6.0233,-5.8318,-5.8708,-5.8308,-5.7334,-5.6722,-5.581,-5.4677,-5.3595,-5.2756,-5.2325,-5.2878,-5.3064,-5.3128,-5.3697,-5.3516,-5.2853,-5.3787,-5.3097,-5.1799,-5.2672,-5.2429,-5.1778,-5.2245,-5.2555,-5.3083,-5.4123,-5.4219,-5.396,-5.4756,-5.5352,-5.5627,-5.5222,-5.5794,-5.6362,-5.5517,-5.532,-5.536,-5.5339,-5.5821,-5.5974,-5.4652,-5.4991,-5.5214,-5.4272,-5.5187,-5.6101,-5.6185,-5.6487,-5.6643,-5.6559,-5.5815,-5.5513,-5.6095,-5.6749,-5.774,-5.9159,-6.0017,-6.0965,-6.2036,-6.2862,-6.3481,-6.3884,-6.4529,-6.514,-6.5591,-6.6085,-6.6238,-6.6052,-6.6052,-6.5895,-6.551,-6.574,-6.5804,-6.5839,-6.6678,-6.7096,-6.7132,-6.7884,-6.861,-6.9194,-6.8991,-6.9211,-6.9634,-6.9634,-6.9389,-6.9028,-6.9328,-6.9749,-7.0082,-7.7683,-7.7081,-7.6235,-7.4227,-7.4006,-7.3732,-7.2758,-7.1474,-7.0682,-7.0581,-6.9381,-6.852,-6.8596,-6.8157,-6.8006,-6.8608,-6.761,-6.6472,-6.5306,-6.4741,-6.4056,-6.3081,-6.243,-6.1479,-6.0117,-6.0094,-5.9627,-5.8861,-5.8465,-5.7806,-5.6723,-5.6468,-5.5608,-5.4086,-5.3083,-5.209,-5.1295,-5.2231,-5.2398,-5.2215,-5.3479,-5.3711,-5.3245,-5.2778,-5.2437,-5.1993,-5.1196,-5.1047,-5.1251,-5.1395,-5.1841,-5.2493,-5.3038,-5.3063,-5.3029,-5.3514,-5.4314,-5.4805,-5.3851,-5.4842,-5.6087,-5.5384,-5.5907,-5.6529,-5.6241,-5.6372,-5.6564,-5.6667,-5.6129,-5.58,-5.6383,-5.6944,-5.7208,-5.692,-5.7586,-5.7673,-5.6375,-5.6512,-5.6532,-5.5961,-5.7062,-5.8201,-5.9046,-6.0907,-6.233,-6.3039,-6.3759,-6.4266,-6.4566,-6.5314,-6.5722,-6.5591,-6.6329,-6.6548,-6.6238,-6.633,-6.6177,-6.574,-6.5895,-6.5895,-6.5804,-6.6014,-6.6145,-6.6272,-6.6451,-6.7314,-6.8574,-6.8373,-6.8991,-7.0062,-7.0062,-6.974,-6.9229,-6.9081,-6.9178,-6.9352,-7.6426,-7.5384,-7.4158,-7.2533,-7.1783,-7.1255,-7.0708,-6.9964,-6.9465,-6.9631,-6.8973,-6.8469,-6.8587,-6.8236,-6.779,-6.7612,-6.647,-6.5454,-6.4648,-6.4179,-6.3517,-6.2793,-6.2053,-6.0892,-5.9358,-5.8927,-5.8424,-5.7901,-5.7165,-5.6542,-5.6242,-5.5604,-5.4923,-5.3984,-5.3185,-5.2238,-5.1349,-5.2087,-5.2355,-5.2246,-5.3076,-5.3262,-5.2988,-5.264,-5.2104,-5.1569,-5.1109,-5.0965,-5.1141,-5.1356,-5.1819,-5.2421,-5.297,-5.31,-5.3229,-5.3909,-5.4389,-5.4781,-5.4592,-5.5334,-5.6071,-5.5914,-5.6275,-5.6659,-5.6487,-5.6737,-5.6869,-5.6399,-5.6158,-5.6057,-5.6045,-5.6768,-5.7332,-5.7248,-5.7805,-5.798,-5.7163,-5.7003,-5.6917,-5.6807,-5.7828,-5.9119,-6.057,-6.2519,-6.3781,-6.3938,-6.4633,-6.52,-6.553,-6.5843,-6.6078,-6.625,-6.6539,-6.6578,-6.6391,-6.6452,-6.6515,-6.6467,-6.6169,-6.5927,-6.5804,-6.5962,-6.6052,-6.6213,-6.6787,-6.7678,-6.8773,-6.9038,-6.992,-7.1117,-7.1048,-7.0652,-7.0102,-7.0161,-6.96,-6.9027,-7.5808,-7.4096,-7.2496,-7.1337,-7.0025,-6.9094,-6.8886,-6.8652,-6.853,-6.8612,-6.8607,-6.8565,-6.8714,-6.8271,-6.7464,-6.6266,-6.4927,-6.4188,-6.4084,-6.3456,-6.2891,-6.233,-6.1307,-6.0099,-5.8751,-5.7725,-5.6916,-5.6508,-5.5628,-5.5317,-5.5576,-5.4663,-5.3959,-5.3581,-5.3275,-5.2393,-5.1447,-5.2113,-5.2296,-5.22,-5.2532,-5.2615,-5.2576,-5.2758,-5.2065,-5.1111,-5.1349,-5.1321,-5.1177,-5.157,-5.2039,-5.2536,-5.3085,-5.3312,-5.3497,-5.4516,-5.4712,-5.488,-5.5677,-5.6079,-5.6285,-5.6503,-5.6606,-5.6698,-5.6799,-5.7073,-5.702,-5.5834,-5.6152,-5.6412,-5.5649,-5.6497,-5.7368,-5.764,-5.7874,-5.7996,-5.7941,-5.7454,-5.7305,-5.7959,-5.8965,-6.0356,-6.2284,-6.3974,-6.4888,-6.4766,-6.546,-6.6072,-6.6533,-6.6336,-6.647,-6.6954,-6.6727,-6.6512,-6.6482,-6.6656,-6.6931,-6.7267,-6.6729,-6.6352,-6.6196,-6.6545,-6.6731,-6.6829,-6.7902,-6.8777,-6.9479,-7.0107,-7.1146,-7.2332,-7.2099,-7.1809,-7.147,-7.1571,-7.0526,-6.9262,-7.4346,-7.3478,-7.2524,-7.0491,-6.9989,-6.945,-6.8374,-6.804,-6.7924,-6.8119,-6.7759,-6.755,-6.7697,-6.701,-6.6116,-6.5104,-6.453,-6.4022,-6.3659,-6.2364,-6.1359,-6.079,-5.945,-5.8409,-5.7703,-5.6284,-5.5556,-5.5472,-5.5246,-5.4929,-5.4517,-5.4285,-5.3398,-5.212,-5.2425,-5.158,-5.0078,-5.1458,-5.1501,-5.0896,-5.218,-5.2416,-5.1977,-5.2147,-5.2148,-5.1867,-5.083,-5.067,-5.0981,-5.1161,-5.1766,-5.2415,-5.229,-5.2365,-5.2664,-5.3545,-5.4041,-5.4306,-5.4551,-5.5595,-5.6589,-5.6543,-5.7219,-5.7888,-5.7935,-5.7252,-5.6738,-5.7458,-5.767,-5.7836,-5.8357,-5.846,-5.8555,-5.8827,-5.8637,-5.8169,-5.7448,-5.8074,-5.8601,-5.8574,-6.0561,-6.2063,-6.2398,-6.3771,-6.4877,-6.5398,-6.616,-6.6712,-6.7075,-6.7056,-6.6959,-6.6815,-6.6786,-6.6668,-6.6482,-6.7355,-6.7661,-6.7492,-6.8035,-6.8127,-6.7799,-6.8227,-6.8449,-6.8569,-6.8929,-6.9738,-7.0822,-7.0635,-7.1556,-7.3006,-7.2597,-7.2857,-7.3378,-7.2351,-7.1398,-7.0653,-7.4632,-7.327,-7.1895,-7.0396,-6.9309,-6.846,-6.7872,-6.7482,-6.7319,-6.7491,-6.7364,-6.7234,-6.699,-6.6051,-6.5071,-6.4367,-6.3428,-6.2992,-6.3026,-6.1649,-6.0764,-6.0494,-5.9345,-5.814,-5.7099,-5.6178,-5.5378,-5.483,-5.4252,-5.4122,-5.432,-5.347,-5.291,-5.2734,-5.2603,-5.2058,-5.1102,-5.179,-5.1771,-5.138,-5.1519,-5.1556,-5.1531,-5.1403,-5.1017,-5.0625,-5.0028,-5.0059,-5.0306,-5.0653,-5.1333,-5.2059,-5.1804,-5.2424,-5.3231,-5.3824,-5.4592,-5.527,-5.5579,-5.6449,-5.7155,-5.687,-5.7273,-5.7744,-5.7777,-5.7623,-5.7492,-5.7833,-5.794,-5.8055,-5.8237,-5.843,-5.8673,-5.9128,-5.9114,-5.8968,-5.8744,-5.9223,-5.9973,-6.1055,-6.2256,-6.3385,-6.4359,-6.5416,-6.6112,-6.6396,-6.6957,-6.7257,-6.7314,-6.7182,-6.7201,-6.7474,-6.7474,-6.7662,-6.8,-6.8458,-6.8795,-6.8944,-6.9435,-6.9237,-6.845,-6.8646,-6.8899,-6.9237,-7.0032,-7.0982,-7.201,-7.2422,-7.3472,-7.4787,-7.4383,-7.4446,-7.4555,-7.3083,-7.2206,-7.1714]},{"header":{"parameterUnit":"m.s-1","parameterCategory":1,"la1":30.6,"la2":28.766,"lo1":-90.7593,"lo2":-88.6598,"dy":0.0162,"dx":0.0183,"nx":116,"ny":114,"refTime":"2024-07-09T12:00:00:Z","depth":0,"parameterNumber":3,"parameterNumberName":"V-component_of_WINDS"},"data":[0.0,0.0,0.0,0.0,0.0,0.0,0.0,0.0,0.0,0.0,0.0,0.0,0.0,0.0,0.0,0.0,0.0,0.0,0.0,0.0,0.0,0.0,0.0,0.0,0.0,0.0,0.0,0.0,0.0,0.0,0.0,0.0,0.0,0.0,0.0,0.0,0.0,0.0,0.0,0.0,0.0,0.0,0.0,0.0,0.0,0.0,0.0,0.0,0.0,0.0,0.0,0.0,0.0,0.0,0.0,0.0,0.0,0.0,0.0,0.0,0.0,0.0,0.0,0.0,0.0,0.0,0.0,0.0,0.0,0.0,0.0,0.0,0.0,0.0,0.0,0.0,0.0,0.0,0.0,0.0,0.0,0.0,0.0,0.0,0.0,0.0,0.0,0.0,0.0,0.0,0.0,0.0,0.0,0.0,0.0,0.0,0.0,0.0,0.0,0.0,0.0,0.0,0.0,0.0,0.0,0.0,0.0,0.0,0.0,0.0,0.0,0.0,0.0,0.0,0.0,0.0,0.0,0.0,0.0,0.0,0.0,0.0,0.0,0.0,0.0,0.0,0.0,0.0,0.0,0.0,0.0,0.0,0.0,0.0,0.0,0.0,0.0,0.0,0.0,0.0,0.0,0.0,0.0,0.0,0.0,0.0,0.0,0.0,0.0,0.0,0.0,0.0,0.0,0.0,0.0,0.0,0.0,0.0,0.0,0.0,0.0,0.0,0.0,0.0,0.0,0.0,0.0,0.0,0.0,0.0,0.0,0.0,0.0,0.0,0.0,0.0,0.0,0.0,0.0,0.0,0.0,0.0,0.0,0.0,0.0,0.0,0.0,0.0,0.0,0.0,0.0,0.0,0.0,0.0,0.0,0.0,0.0,0.0,0.0,0.0,0.0,0.0,0.0,0.0,0.0,0.0,0.0,0.0,0.0,0.0,0.0,0.0,0.0,0.0,0.0,0.0,0.0,0.0,0.0,0.0,0.0,0.0,0.0,0.0,0.0,0.0,0.0,0.0,0.0,0.0,0.0,0.0,0.0,0.0,0.0,0.0,0.0,0.0,0.0,0.0,0.0,0.0,0.0,0.0,0.0,0.0,0.0,0.0,0.0,0.0,0.0,0.0,0.0,0.0,0.0,0.0,0.0,0.0,0.0,0.0,0.0,0.0,0.0,0.0,0.0,0.0,0.0,0.0,0.0,0.0,0.0,0.0,0.0,0.0,0.0,0.0,0.0,0.0,0.0,0.0,0.0,0.0,0.0,0.0,0.0,0.0,0.0,0.0,0.0,0.0,0.0,0.0,0.0,0.0,0.0,0.0,0.0,0.0,0.0,0.0,0.0,0.0,0.0,0.0,0.0,0.0,0.0,0.0,0.0,0.0,0.0,0.0,0.0,0.0,0.0,0.0,0.0,0.0,0.0,0.0,0.0,0.0,0.0,0.0,0.0,0.0,0.0,0.0,0.0,0.0,0.0,0.0,0.0,0.0,0.0,0.0,0.0,0.0,0.0,0.0,0.0,0.0,0.0,0.0,0.0,0.0,0.0,0.0,0.0,0.0,0.0,0.0,0.0,0.0,0.0,0.0,0.0,0.0,0.0,0.0,0.0,0.0,0.0,0.0,0.0,0.0,0.0,0.0,0.0,0.0,0.0,0.0,0.0,0.0,0.0,0.0,0.0,0.0,0.0,0.0,0.0,0.0,0.0,0.0,0.0,0.0,0.0,0.0,0.0,0.0,0.0,0.0,0.0,0.0,0.0,0.0,0.0,0.0,0.0,0.0,0.0,0.0,0.0,0.0,0.0,0.0,0.0,0.0,0.0,0.0,0.0,0.0,0.0,0.0,0.0,0.0,0.0,0.0,0.0,0.0,0.0,0.0,0.0,0.0,0.0,0.0,0.0,0.0,0.0,0.0,0.0,0.0,0.0,0.0,0.0,0.0,0.0,0.0,0.0,0.0,0.0,0.0,0.0,0.0,0.0,0.0,0.0,0.0,0.0,0.0,0.0,0.0,0.0,0.0,0.0,0.0,0.0,0.0,0.0,0.0,0.0,0.0,0.0,0.0,0.0,0.0,0.0,0.0,0.0,0.0,0.0,0.0,0.0,0.0,0.0,0.0,0.0,0.0,0.0,0.0,0.0,0.0,0.0,0.0,0.0,0.0,0.0,0.0,0.0,0.0,0.0,0.0,0.0,0.0,0.0,0.0,0.0,0.0,0.0,0.0,0.0,0.0,0.0,0.0,0.0,0.0,0.0,0.0,0.0,0.0,0.0,0.0,0.0,0.0,0.0,0.0,0.0,0.0,0.0,0.0,0.0,0.0,0.0,0.0,0.0,0.0,0.0,0.0,0.0,0.0,0.0,0.0,0.0,0.0,0.0,0.0,0.0,0.0,0.0,0.0,0.0,0.0,0.0,0.0,0.0,0.0,0.0,0.0,0.0,0.0,0.0,0.0,0.0,0.0,0.0,0.0,0.0,0.0,0.0,0.0,0.0,0.0,0.0,0.0,0.0,0.0,0.0,0.0,0.0,0.0,0.0,0.0,0.0,0.0,0.0,0.0,0.0,0.0,0.0,0.0,0.0,0.0,0.0,0.0,0.0,0.0,0.0,0.0,0.0,0.0,0.0,0.0,0.0,0.0,0.0,0.0,0.0,0.0,0.0,0.0,0.0,0.0,0.0,0.0,0.0,0.0,0.0,0.0,0.0,0.0,0.0,0.0,0.0,0.0,0.0,0.0,0.0,0.0,0.0,0.0,0.0,0.0,0.0,0.0,0.0,0.0,0.0,0.0,0.0,0.0,0.0,0.0,0.0,0.0,0.0,0.0,0.0,0.0,0.0,0.0,0.0,0.0,0.0,0.0,0.0,0.0,0.0,0.0,0.0,0.0,0.0,0.0,0.0,0.0,0.0,0.0,0.0,0.0,0.0,0.0,0.0,0.0,0.0,0.0,0.0,0.0,0.0,0.0,0.0,0.0,0.0,0.0,0.0,0.0,0.0,0.0,0.0,0.0,0.0,0.0,0.0,0.0,0.0,0.0,0.0,0.0,0.0,0.0,0.0,0.0,0.0,0.0,0.0,0.0,0.0,0.0,0.0,0.0,0.0,0.0,0.0,0.0,0.0,0.0,0.0,0.0,0.0,0.0,0.0,0.0,0.0,0.0,0.0,0.0,0.0,0.0,0.0,0.0,0.0,0.0,0.0,0.0,0.0,0.0,0.0,0.0,0.0,0.0,0.0,0.0,0.0,0.0,0.0,0.0,0.0,0.0,0.0,0.0,0.0,0.0,0.0,0.0,0.0,0.0,0.0,0.0,0.0,0.0,0.0,0.0,0.0,0.0,0.0,0.0,0.0,0.0,0.0,0.0,0.0,0.0,0.0,0.0,0.0,0.0,0.0,0.0,0.0,0.0,0.0,0.0,0.0,0.0,0.0,0.0,0.0,0.0,0.0,0.0,0.0,0.0,0.0,0.0,0.0,0.0,0.0,0.0,0.0,0.0,0.0,0.0,0.0,0.0,0.0,0.0,0.0,0.0,0.0,0.0,0.0,0.0,0.0,0.0,0.0,0.0,0.0,0.0,0.0,0.0,0.0,0.0,0.0,0.0,0.0,0.0,0.0,0.0,0.0,0.0,0.0,0.0,0.0,0.0,0.0,0.0,0.0,0.0,0.0,0.0,0.0,0.0,0.0,0.0,0.0,0.0,0.0,0.0,0.0,0.0,0.0,0.0,0.0,0.0,0.0,0.0,0.0,0.0,0.0,0.0,0.0,0.0,0.0,0.0,0.0,0.0,0.0,0.0,0.0,0.0,0.0,0.0,0.0,0.0,0.0,0.0,0.0,0.0,0.0,0.0,0.0,0.0,0.0,0.0,0.0,0.0,0.0,0.0,0.0,0.0,0.0,0.0,0.0,0.0,0.0,0.0,0.0,0.0,0.0,0.0,0.0,0.0,0.0,0.0,0.0,0.0,0.0,0.0,0.0,0.0,0.0,0.0,0.0,0.0,0.0,0.0,0.0,0.0,0.0,0.0,0.0,0.0,0.0,0.0,0.0,0.0,0.0,0.0,0.0,0.0,0.0,0.0,0.0,0.0,0.0,0.0,0.0,0.0,0.0,0.0,0.0,0.0,0.0,0.0,0.0,0.0,0.0,0.0,0.0,0.0,0.0,0.0,0.0,0.0,0.0,0.0,0.0,0.0,0.0,0.0,0.0,0.0,0.0,0.0,0.0,0.0,0.0,0.0,0.0,0.0,0.0,0.0,0.0,0.0,0.0,0.0,0.0,0.0,0.0,0.0,0.0,0.0,0.0,0.0,0.0,0.0,0.0,0.0,0.0,0.0,0.0,0.0,0.0,0.0,0.0,0.0,0.0,0.0,0.0,0.0,0.0,0.0,0.0,0.0,0.0,0.0,0.0,0.0,0.0,0.0,0.0,0.0,0.0,0.0,0.0,0.0,0.0,0.0,0.0,0.0,0.0,0.0,0.0,0.0,0.0,0.0,0.0,0.0,0.0,0.0,0.0,0.0,0.0,0.0,0.0,0.0,0.0,0.0,0.0,0.0,0.0,0.0,0.0,0.0,0.0,0.0,0.0,0.0,0.0,0.0,0.0,0.0,0.0,0.0,0.0,0.0,0.0,0.0,0.0,0.0,0.0,0.0,0.0,0.0,0.0,0.0,0.0,0.0,0.0,0.0,0.0,0.0,0.0,0.0,0.0,0.0,0.0,0.0,0.0,0.0,0.0,0.0,0.0,0.0,0.0,0.0,0.0,0.0,0.0,0.0,0.0,0.0,0.0,0.0,0.0,0.0,0.0,0.0,0.0,0.0,0.0,0.0,0.0,0.0,0.0,0.0,0.0,0.0,0.0,0.0,0.0,0.0,0.0,0.0,0.0,0.0,0.0,0.0,0.0,0.0,0.0,0.0,0.0,0.0,0.0,0.0,0.0,0.0,0.0,0.0,0.0,0.0,0.0,0.0,0.0,0.0,0.0,0.0,0.0,0.0,0.0,0.0,0.0,0.0,0.0,0.0,0.0,0.0,0.0,0.0,0.0,0.0,0.0,0.0,0.0,0.0,0.0,0.0,0.0,0.0,0.0,0.0,0.0,0.0,0.0,0.0,0.0,0.0,0.0,0.0,0.0,0.0,0.0,0.0,0.0,0.0,0.0,0.0,0.0,0.0,0.0,0.0,0.0,0.0,0.0,0.0,0.0,0.0,0.0,0.0,0.0,0.0,0.0,0.0,0.0,0.0,0.0,0.0,0.0,0.0,0.0,0.0,0.0,0.0,0.0,0.0,0.0,0.0,0.0,0.0,0.0,0.0,0.0,0.0,0.0,0.0,0.0,0.0,0.0,0.0,0.0,0.0,0.0,0.0,0.0,0.0,0.0,0.0,0.0,0.0,0.0,0.0,0.0,0.0,0.0,0.0,0.0,0.0,0.0,0.0,0.0,0.0,0.0,0.0,0.0,0.0,0.0,0.0,0.0,0.0,0.0,0.0,0.0,0.0,0.0,0.0,0.0,0.0,0.0,0.0,0.0,0.0,0.0,0.0,0.0,0.0,0.0,0.0,0.0,0.0,0.0,0.0,0.0,0.0,0.0,0.0,0.0,0.0,0.0,0.0,0.0,0.0,0.0,0.0,0.0,0.0,0.0,0.0,0.0,0.0,0.0,0.0,0.0,0.0,0.0,0.0,0.0,0.0,0.0,0.0,0.0,0.0,0.0,0.0,0.0,0.0,0.0,0.0,0.0,0.0,0.0,0.0,0.0,0.0,0.0,0.0,0.0,0.0,0.0,0.0,0.0,0.0,0.0,0.0,0.0,0.0,0.0,0.0,0.0,0.0,0.0,0.0,0.0,0.0,0.0,0.0,0.0,0.0,0.0,0.0,0.0,0.0,0.0,0.0,0.0,0.0,0.0,0.0,0.0,0.0,0.0,0.0,0.0,0.0,0.0,0.0,0.0,0.0,0.0,0.0,0.0,0.0,0.0,0.0,0.0,0.0,0.0,0.0,0.0,0.0,0.0,0.0,0.0,0.0,0.0,0.0,0.0,0.0,0.0,0.0,0.0,0.0,0.0,0.0,0.0,0.0,0.0,0.0,0.0,0.0,0.0,0.0,-3.9756,-3.7093,0.0,0.0,0.0,0.0,0.0,0.0,0.0,0.0,0.0,0.0,0.0,0.0,0.0,0.0,0.0,0.0,0.0,0.0,0.0,0.0,0.0,0.0,0.0,-2.3783,-2.4777,-2.568,-2.6151,-2.632,-2.6121,0.0,0.0,0.0,0.0,0.0,-2.8053,-2.8031,-2.8101,-2.8239,-2.8479,-2.9515,-3.1287,-3.0148,-2.896,-2.7801,0.0,0.0,0.0,0.0,0.0,0.0,0.0,0.0,0.0,0.0,0.0,0.0,0.0,0.0,0.0,0.0,0.0,0.0,0.0,0.0,0.0,0.0,0.0,0.0,0.0,0.0,0.0,0.0,0.0,0.0,0.0,0.0,0.0,0.0,0.0,0.0,0.0,0.0,0.0,0.0,0.0,0.0,0.0,0.0,0.0,0.0,0.0,0.0,0.0,0.0,0.0,0.0,0.0,0.0,0.0,0.0,0.0,0.0,0.0,0.0,0.0,0.0,0.0,0.0,0.0,0.0,0.0,0.0,0.0,0.0,-4.1183,-3.8811,0.0,0.0,0.0,0.0,0.0,0.0,0.0,0.0,0.0,0.0,0.0,0.0,0.0,0.0,0.0,0.0,0.0,0.0,0.0,0.0,0.0,-2.0397,-2.2395,-2.3794,-2.4933,-2.5697,-2.6579,-2.6945,-2.6563,-2.6913,0.0,0.0,0.0,-2.9015,-2.9598,-2.9519,-2.9996,-3.1016,-3.1915,-3.4023,-3.7401,-3.9335,-3.8291,-3.4792,-3.5724,0.0,0.0,0.0,0.0,0.0,0.0,0.0,0.0,0.0,0.0,0.0,0.0,0.0,0.0,0.0,0.0,0.0,0.0,0.0,0.0,0.0,0.0,0.0,0.0,0.0,0.0,0.0,0.0,0.0,0.0,0.0,0.0,0.0,0.0,0.0,0.0,0.0,0.0,0.0,0.0,0.0,0.0,0.0,0.0,0.0,0.0,0.0,0.0,0.0,0.0,0.0,0.0,0.0,0.0,0.0,0.0,0.0,0.0,0.0,0.0,0.0,0.0,0.0,-3.2025,-3.5065,-3.707,-3.9351,-4.0712,-4.1266,-4.1123,-3.9446,-3.6495,-3.214,0.0,0.0,0.0,0.0,0.0,0.0,0.0,0.0,0.0,0.0,0.0,0.0,0.0,0.0,0.0,0.0,0.0,0.0,0.0,-2.0692,-2.2861,-2.3996,-2.51,-2.6368,-2.7169,-2.7575,-2.753,-2.8326,0.0,0.0,-2.958,-3.0008,-3.0122,-3.0762,-3.1501,-3.2342,-3.7139,-4.0519,-4.2669,-4.5602,-4.6839,-4.6353,-4.3224,-4.2547,-4.377,0.0,0.0,0.0,0.0,0.0,0.0,0.0,0.0,0.0,0.0,0.0,0.0,0.0,0.0,0.0,0.0,0.0,0.0,0.0,0.0,0.0,0.0,0.0,0.0,0.0,0.0,0.0,0.0,0.0,0.0,0.0,0.0,0.0,0.0,0.0,0.0,0.0,0.0,0.0,0.0,0.0,-2.5528,-2.6789,0.0,0.0,0.0,0.0,0.0,0.0,0.0,0.0,0.0,0.0,0.0,0.0,0.0,-3.1934,-2.8268,-2.8252,-2.8747,-2.9782,-3.294,-3.5166,-3.6567,-3.8364,-3.8887,-3.8442,-3.7987,0.0,-3.6878,-3.2389,0.0,0.0,0.0,0.0,0.0,0.0,0.0,0.0,0.0,0.0,0.0,0.0,0.0,0.0,0.0,0.0,0.0,0.0,0.0,0.0,0.0,-2.4779,-2.6131,-2.7495,-2.8516,-2.9011,-2.8916,-2.9423,-2.9818,-3.0079,-3.0444,-3.0915,-3.1664,-3.2456,-3.4464,-3.7699,-4.2438,-4.5614,-4.741,-5.0451,-5.2192,-5.2604,-5.1406,-4.9928,-4.8289,-4.8056,0.0,0.0,0.0,0.0,0.0,0.0,0.0,0.0,0.0,0.0,0.0,0.0,0.0,0.0,0.0,0.0,0.0,0.0,0.0,0.0,0.0,0.0,0.0,0.0,0.0,0.0,0.0,0.0,0.0,0.0,0.0,0.0,0.0,0.0,0.0,0.0,0.0,0.0,0.0,-2.5741,-2.6525,-2.7305,-2.9289,-3.1151,0.0,0.0,0.0,0.0,0.0,0.0,0.0,0.0,0.0,-4.4616,-4.041,-3.6267,-3.2235,-3.1584,-3.0955,-3.0374,-3.2527,-3.3796,-3.4358,-3.5413,-3.5695,-3.535,-3.4778,-3.4155,-3.3442,-3.1297,-2.8583,-2.5423,0.0,0.0,0.0,0.0,-1.3341,-1.1925,0.0,0.0,0.0,0.0,0.0,0.0,0.0,0.0,0.0,0.0,0.0,0.0,-2.3825,-2.5528,-2.6951,-2.8207,-2.9432,-3.0112,-2.9894,-3.0221,-3.0646,-3.1258,-3.128,-3.1892,-3.3144,-3.493,-3.8162,-4.2735,-4.6909,-4.9736,-5.1285,-5.4166,-5.5842,-5.6437,-5.742,-5.6014,-5.2901,-5.2631,-5.1978,-5.0946,0.0,0.0,0.0,0.0,0.0,0.0,0.0,0.0,0.0,0.0,0.0,0.0,0.0,0.0,0.0,0.0,0.0,0.0,0.0,0.0,0.0,0.0,0.0,0.0,0.0,0.0,0.0,0.0,0.0,0.0,0.0,0.0,0.0,0.0,0.0,0.0,0.0,-2.6484,-2.7449,-2.7755,-2.9442,-3.0978,0.0,0.0,0.0,0.0,0.0,0.0,-5.1922,-5.191,-5.0475,-4.7392,-4.3522,-3.9371,-3.4995,-3.3796,-3.2298,-3.0455,-3.1775,-3.2387,-3.2316,-3.2676,-3.282,-3.2609,-3.1743,-3.0883,-3.0025,-2.9935,-2.8559,-2.6169,-2.3412,-2.0851,-1.8512,-1.7626,-1.587,-1.4012,0.0,0.0,0.0,0.0,0.0,0.0,0.0,0.0,0.0,0.0,0.0,-2.2025,-2.4315,-2.598,-2.7278,-2.7934,-2.9332,-3.0209,-3.0161,-3.0624,-3.1302,-3.2263,-3.2306,-3.2924,-3.4215,-3.8642,-4.2436,-4.5573,-4.9891,-5.2699,-5.4137,-5.6496,-5.7862,-5.8332,-5.9435,-5.9355,-5.8258,-5.7276,-5.637,-5.528,-5.1926,0.0,0.0,0.0,0.0,0.0,0.0,0.0,0.0,0.0,0.0,0.0,0.0,0.0,0.0,0.0,0.0,0.0,0.0,0.0,0.0,0.0,0.0,0.0,0.0,0.0,0.0,0.0,0.0,0.0,0.0,0.0,0.0,0.0,0.0,0.0,0.0,0.0,0.0,-2.8035,-2.8873,0.0,0.0,0.0,0.0,-4.202,-4.5305,-4.864,-5.2218,-5.2779,-5.1782,-4.9013,-4.5571,-4.1285,-3.6156,-3.4158,-3.223,-3.031,-3.1085,-3.1368,-3.1146,-3.1228,-3.0975,-3.0477,-2.9018,-2.8376,-2.8344,-2.8701,-2.8076,-2.6672,-2.4461,-2.2491,-2.0746,-1.9399,-1.7711,-1.6054,0.0,0.0,0.0,-1.0376,-1.1996,-1.3632,-1.4927,-1.6128,-1.7523,-1.9334,-2.0909,-2.2794,-2.522,-2.7107,-2.8596,-2.9783,-3.0927,-3.1841,-3.2355,-3.2353,-3.3193,-3.5074,-3.4665,-3.6034,-3.9511,-4.2975,-4.6265,-4.957,-5.2998,-5.532,-5.6566,-5.8695,-5.955,-5.9264,-6.0216,-6.0705,-6.0661,-5.9746,-5.9045,-5.8311,-5.5289,-5.2743,0.0,0.0,0.0,0.0,0.0,0.0,0.0,0.0,0.0,0.0,0.0,0.0,0.0,0.0,0.0,0.0,0.0,0.0,0.0,0.0,0.0,0.0,0.0,0.0,0.0,0.0,0.0,0.0,0.0,0.0,0.0,0.0,0.0,0.0,0.0,0.0,0.0,-2.8626,-2.8855,0.0,-3.064,-3.2705,-3.5837,-4.0487,-4.4443,-4.797,-5.0925,-5.1293,-5.0299,-4.7933,-4.4526,-4.04,-3.5577,-3.3607,-3.1249,-2.8643,-2.8626,-2.8459,-2.8135,-2.7891,-2.7503,-2.6991,-2.6122,-2.5594,-2.5271,-2.5246,-2.5679,-2.6132,-2.4344,-2.3004,-2.1987,-2.0837,-1.9643,-1.8377,-0.6797,-0.8065,0.0,-1.045,-1.2211,-1.3861,-1.5124,-1.6421,-1.7939,-1.9805,-2.1483,-2.3456,-2.5822,-2.785,-2.9503,-3.0726,-3.2053,-3.3149,-3.3933,-3.395,-3.4779,-3.6658,-3.7247,-3.9383,-4.3255,-4.6375,-4.9303,-5.2074,-5.5027,-5.6999,-5.7971,-5.961,-6.0325,-6.0176,-6.1091,-6.1935,-6.2637,-6.2065,-6.1524,-6.0626,-5.7799,-5.5403,-5.3134,0.0,0.0,0.0,0.0,0.0,0.0,0.0,0.0,0.0,0.0,0.0,0.0,0.0,0.0,0.0,0.0,0.0,0.0,0.0,0.0,0.0,0.0,0.0,0.0,0.0,0.0,0.0,0.0,0.0,0.0,0.0,0.0,0.0,0.0,0.0,-3.0019,-2.9269,-2.8962,-2.9104,-2.9824,-3.1944,-3.4936,-3.899,-4.2948,-4.6252,-4.8676,-4.8935,-4.8088,-4.5962,-4.2795,-3.8975,-3.4404,-3.2351,-2.9806,-2.6743,-2.6375,-2.5905,-2.5423,-2.5041,-2.4705,-2.4336,-2.3588,-2.3153,-2.3042,-2.2554,-2.325,-2.4438,-2.3625,-2.2997,-2.2466,-2.1539,-2.0704,-1.9799,-0.6784,-0.8132,-0.9506,-1.0692,-1.2429,-1.4054,-1.5303,-1.6584,-1.8273,-2.0573,-2.2265,-2.3988,-2.6087,-2.8261,-2.9873,-3.0599,-3.2465,-3.3901,-3.4639,-3.5186,-3.5927,-3.6994,-3.9969,-4.2794,-4.5184,-4.8715,-5.133,-5.2986,-5.5944,-5.7692,-5.8232,-5.9312,-6.0286,-6.106,-6.2035,-6.3052,-6.4184,-6.4385,-6.3831,-6.2467,-5.9421,-5.7445,-5.5772,0.0,0.0,0.0,0.0,0.0,0.0,0.0,0.0,0.0,0.0,0.0,0.0,0.0,0.0,0.0,0.0,0.0,0.0,0.0,0.0,0.0,0.0,0.0,0.0,0.0,0.0,0.0,0.0,0.0,0.0,0.0,0.0,0.0,-3.0561,-3.0573,-3.0453,-2.9852,-2.9106,-2.908,-3.012,-3.1439,-3.3849,-3.7747,-4.0713,-4.3373,-4.5439,-4.6022,-4.5304,-4.315,-4.0589,-3.7118,-3.2723,-3.0428,-2.7765,-2.4834,-2.4428,-2.3887,-2.3188,-2.2835,-2.2646,-2.2619,-2.1385,-2.12,-2.174,-2.0909,-2.0991,-2.1633,-2.2452,-2.2545,-2.2194,-2.1539,-2.0933,-2.0398,-0.6841,-0.8276,-0.974,-1.1019,-1.3134,-1.4877,-1.5583,-1.7114,-1.8803,-2.0467,-2.2461,-2.4543,-2.6671,-2.9067,-3.091,-3.1895,-3.3047,-3.4095,-3.493,-3.5077,-3.6511,-3.9531,-4.3254,-4.622,-4.8305,-5.0558,-5.2573,-5.4591,-5.6899,-5.802,-5.7919,-5.9658,-6.0358,-6.0311,-6.1886,-6.2859,-6.3569,-6.4194,-6.3896,-6.2633,-6.0634,-5.8426,-5.5987,0.0,0.0,0.0,0.0,0.0,0.0,0.0,0.0,0.0,0.0,0.0,0.0,0.0,0.0,0.0,0.0,0.0,0.0,0.0,0.0,0.0,0.0,0.0,0.0,0.0,0.0,0.0,0.0,0.0,0.0,0.0,-3.1513,-3.2157,-3.2241,-3.2187,-3.1832,-3.1083,-3.0188,-2.9872,-3.0517,-3.1782,-3.361,-3.6081,-3.9049,-4.134,-4.2802,-4.2952,-4.2149,-4.0142,-3.7348,-3.4093,-3.0335,-2.7495,-2.5008,-2.2859,-2.1505,-2.0596,-2.019,-2.0119,-1.9888,-1.9588,-1.9616,-1.9689,-1.9855,-1.9993,-2.0333,-2.0781,-2.1069,-2.1454,-2.1709,-2.1775,-2.2015,-2.2333,-0.6989,-0.8462,-0.9955,-1.1406,-1.3439,-1.5098,-1.5794,-1.7364,-1.9048,-2.0696,-2.2623,-2.4723,-2.6969,-2.9041,-3.0749,-3.1934,-3.3077,-3.3972,-3.4614,-3.5824,-3.8136,-4.171,-4.4785,-4.7395,-4.9442,-5.1198,-5.2767,-5.4151,-5.6209,-5.7245,-5.7261,-5.9186,-6.0057,-6.0009,-6.1827,-6.2724,-6.2805,-6.3527,-6.3041,-6.1728,-6.0225,-5.8491,-5.6547,-5.3299,-5.06,-4.819,-4.547,-4.3118,-4.0989,-3.9189,0.0,0.0,0.0,0.0,0.0,0.0,0.0,0.0,0.0,0.0,0.0,0.0,0.0,0.0,0.0,0.0,0.0,0.0,0.0,0.0,0.0,0.0,0.0,0.0,-3.2019,-3.2357,-3.2975,-3.2816,-3.2544,-3.2153,-3.1299,-3.0858,-3.1077,-3.2003,-3.3348,-3.4988,-3.7137,-3.8885,-3.9958,-4.0028,-3.908,-3.7166,-3.4636,-3.1712,-2.8206,-2.5239,-2.262,-2.047,-1.8856,-1.783,-1.7348,-1.7489,-1.7559,-1.7479,-1.7818,-1.8136,-1.8457,-1.8766,-1.924,-1.9727,0.0,0.0,0.0,0.0,-2.3508,-2.454,-0.7238,-0.8674,-1.0143,-1.1767,-1.3556,-1.5033,-1.5872,-1.7388,-1.9102,-2.1004,-2.2776,-2.4722,-2.6995,-2.8482,-2.9891,-3.1213,-3.2664,-3.3763,-3.429,-3.7061,-4.0058,-4.313,-4.504,-4.6963,-4.9105,-5.0914,-5.2056,-5.2541,-5.4595,-5.5848,-5.631,-5.8372,-5.9553,-5.9966,-6.1811,-6.2438,-6.2051,-6.2388,-6.1658,-6.0076,-5.8635,-5.7749,-5.699,-5.3566,-5.1253,-4.9315,-4.5867,-4.3527,-4.1768,-3.9439,0.0,0.0,0.0,0.0,0.0,0.0,0.0,0.0,0.0,0.0,0.0,0.0,0.0,0.0,0.0,0.0,0.0,0.0,0.0,0.0,0.0,0.0,0.0,0.0,-3.2675,-3.2667,-3.3257,-3.3118,-3.3003,-3.3017,-3.239,-3.1899,-3.1803,-3.2263,-3.304,-3.4164,-3.5253,-3.6285,-3.7072,0.0,0.0,0.0,0.0,-2.9431,-2.6125,-2.3117,-2.0413,-1.796,-1.6538,-1.5452,-1.4742,-1.5106,-1.5532,-1.5938,-1.619,-1.6728,-1.741,-1.768,-1.8271,-1.909,-2.0244,-2.1115,-2.1987,-2.3764,-2.5359,-2.6896,-0.7579,-0.8995,-1.0449,-1.2104,-1.381,-1.5177,-1.5904,-1.7456,-1.9138,-2.0775,-2.2494,-2.4257,-2.6055,-2.8025,-2.9593,-3.0665,-3.2127,-3.3862,-3.6048,-3.7831,-3.9881,-4.2373,-4.4865,-4.6746,-4.8035,-4.899,-5.0143,-5.1571,-5.3477,-5.4751,-5.5287,-5.7682,-5.8998,-5.9536,-6.1088,-6.181,-6.1652,-6.138,-6.0237,-5.8379,-5.6536,-5.569,-5.5381,-5.3132,-5.0954,-4.8952,-4.7088,-4.5195,-4.3451,-4.1868,-4.0061,-3.8227,-3.7035,0.0,0.0,0.0,0.0,0.0,0.0,0.0,0.0,0.0,0.0,0.0,0.0,0.0,0.0,0.0,0.0,0.0,0.0,0.0,0.0,-3.3499,-3.3577,-3.3897,-3.4832,-3.4803,-3.4437,-3.3865,-3.3341,-3.2991,-3.2947,-3.2944,-3.304,-3.3329,-3.3948,-3.4338,-3.4587,-3.4252,-3.311,-3.09,-2.8829,-2.62,-2.2838,-2.0224,-1.7865,-1.5957,-1.4256,0.0,-1.3253,-1.3325,-1.3682,-1.4395,-1.5354,-1.6042,-1.6535,-1.7757,-1.9265,-2.0767,-2.1189,-2.2057,-2.3427,-2.5218,-2.7128,-2.9219,-0.7745,-0.9045,-1.0422,-1.2109,-1.3698,-1.5028,-1.5886,-1.751,-1.9003,-1.9984,-2.1928,-2.3685,-2.5039,-2.6625,-2.8013,-2.8919,-3.0585,-3.2785,-3.5753,-3.7457,-3.958,-4.2185,-4.4302,-4.5948,-4.7052,-4.777,-4.8633,-4.9822,-5.1524,-5.2858,-5.3912,-5.5842,-5.7123,-5.7862,-5.9203,-5.9588,-5.938,-5.8927,-5.7798,-5.6196,-5.4691,-5.3715,-5.2914,-5.208,-5.0691,-4.9157,-4.7438,-4.5959,-4.4554,-4.2692,-4.1199,-3.9864,-3.8318,-3.6749,-3.532,0.0,0.0,0.0,0.0,0.0,0.0,0.0,0.0,0.0,0.0,0.0,0.0,0.0,0.0,-3.3954,-3.4068,0.0,-3.4114,-3.4252,-3.393,-3.4019,-3.5034,-3.5231,-3.5054,-3.4547,-3.4289,-3.3827,-3.3195,-3.3054,-3.2765,-3.2324,-3.2326,-3.218,-3.1652,-3.1282,-3.008,-2.7753,-2.594,-2.3536,-2.0405,-1.7969,-1.5858,-1.4018,-1.2567,-1.1893,-1.19,-1.2108,-1.2681,-1.3682,-1.4617,-1.5399,-1.6046,-1.7845,-1.9662,-2.1438,-2.2464,-2.3599,-2.4824,-2.6846,-2.9094,-3.164,-0.7743,-0.8978,-1.0302,-1.203,-1.3458,-1.4737,-1.5771,-1.7423,-1.8695,-1.9203,-2.1165,-2.2827,-2.3692,-2.4967,-2.6305,-2.7525,-2.9314,-3.1809,0.0,-3.7032,-3.9258,-4.1995,-4.3526,-4.4806,-4.5861,-4.6421,-4.7167,-4.8157,-4.9513,-5.0949,-5.2452,-5.3865,-5.5012,-5.5794,-5.6598,-5.6753,-5.6327,-5.5808,-5.4866,-5.3632,-5.2622,-5.1595,-5.0501,-5.0544,-5.0123,-4.9249,-4.7493,-4.6209,-4.501,-4.2909,-4.1684,-4.0745,-3.9055,-3.7748,-3.653,-3.4953,-3.4032,0.0,0.0,0.0,0.0,0.0,0.0,0.0,0.0,0.0,-3.3394,-3.4544,-3.5531,-3.6174,-3.6179,-3.5671,-3.5115,-3.4843,-3.4257,-3.4225,-3.5146,-3.5457,-3.55,-3.5413,-3.5222,-3.4623,-3.3335,-3.3001,-3.239,-3.1317,-3.09,-3.0116,-2.893,-2.8461,-2.7161,-2.4918,-2.3332,-2.1186,-1.8389,-1.6164,-1.4139,-1.2388,-1.1312,-1.0815,-1.0828,-1.1175,-1.2036,-1.3182,-1.4223,-1.515,-1.6127,-1.8134,-1.993,-2.1738,-2.3718,-2.5256,-2.6634,-2.8579,-3.1079,-3.3996,-0.7568,-0.8844,-1.0261,-1.1988,-1.323,-1.4372,-1.5528,-1.695,-1.8172,-1.8956,-2.0251,-2.1347,-2.1842,-2.3426,-2.5468,-2.8163,-2.9952,0.0,-3.507,-3.7215,-3.9229,-4.1235,-4.2705,-4.3616,-4.4081,-4.417,-4.5224,-4.7349,-4.8169,-4.95,-5.1295,-5.2452,-5.3075,-5.3257,-5.3382,-5.3293,-5.2902,-5.2478,-5.1702,-5.0708,-4.9787,-4.9258,-4.9007,-4.8485,-4.841,-4.8487,-4.7628,-4.6099,-4.4263,-4.3148,-4.1521,-3.972,-3.8332,-3.7183,-3.614,-3.509,0.0,-3.3296,-3.3112,-3.2643,-3.2339,-3.2876,-3.2548,-3.2814,0.0,0.0,-3.6425,-3.7169,-3.778,-3.7942,-3.7269,-3.6331,-3.5511,-3.5229,-3.5168,-3.5469,-3.6223,-3.6273,-3.6323,-3.6645,-3.6156,-3.5291,-3.4051,-3.3135,-3.2011,-3.0465,-2.9812,-2.8793,-2.7112,-2.6315,-2.4848,-2.2561,-2.097,-1.891,-1.6327,-1.4736,-1.2982,-1.1168,-1.0383,-1.0023,-1.0023,-1.0455,-1.1247,-1.2402,-1.4427,-1.5991,-1.7218,-1.8769,-2.0455,-2.2219,-2.4302,-2.6881,-2.9529,-3.0518,-3.2823,-3.5923,-0.7241,-0.8307,-0.9535,-1.1085,-1.2777,-1.4262,-1.5256,-1.6576,-1.7678,-1.8076,-1.9337,-2.0364,-2.0813,-2.2866,-2.504,-2.7059,-2.9398,-3.1832,-3.4195,-3.647,-3.8611,-4.0643,-4.1662,-4.2569,-4.3514,-4.3607,-4.4476,-4.5976,-4.6681,-4.7562,-4.8567,-4.8941,-4.9308,-4.9691,-4.8944,-4.8964,-4.9641,-4.9118,-4.8996,-4.9063,-4.8819,-4.885,-4.9018,-4.8623,-4.8369,-4.8128,-4.6866,-4.5602,0.0,0.0,-4.0751,-3.8938,-3.7799,-3.6579,-3.542,-3.4572,-3.4234,0.0,-3.4716,-3.4492,-3.4188,0.0,-3.4608,-3.5046,-3.6238,-3.6914,-3.7469,-3.7816,-3.8619,-3.8815,-3.7324,-3.67,-3.608,0.0,-3.5113,-3.5536,-3.6608,-3.6691,-3.6635,-3.664,-3.6107,-3.5104,-3.3796,-3.2835,-3.1577,-2.9762,-2.8798,-2.7457,-2.5539,-2.4491,-2.2998,-2.1038,-1.9413,-1.7511,-1.5149,-1.357,-1.2093,-1.0671,-1.0167,-1.0023,-1.0239,-1.0887,-1.2036,-1.3619,-1.4702,-1.6187,-1.7887,-1.9173,-2.0831,-2.2866,-2.5239,-2.8112,-3.0998,-3.1811,-3.4231,-3.7648,-0.6882,-0.791,-0.9004,-1.0265,-1.204,-1.365,-1.4687,-1.6,-1.6987,-1.7206,-1.8359,-1.9527,-2.0429,-2.2453,-2.4339,-2.5851,-2.8551,-3.106,-3.3054,-3.542,-3.7637,-3.9633,-4.0397,-4.1377,-4.2678,-4.2833,-4.3415,-4.4547,-4.4902,-4.5208,-4.5549,-4.5385,-4.5337,-4.5372,-4.4326,-4.4525,-4.5579,-4.5565,-4.6197,-4.7351,-4.7872,-4.843,-4.8928,-4.8631,-4.817,-4.7396,-4.6136,-4.4924,-4.3621,-4.1591,-3.9618,-3.7895,-3.6865,-3.5679,-3.46,-3.4108,-3.4297,-3.4831,-3.538,0.0,0.0,-3.5623,-3.6241,-3.6814,-3.6337,-3.7244,-3.8111,-3.7988,-3.8821,-3.9055,-3.7376,-3.6687,-3.6104,-3.5324,-3.4958,-3.5268,-3.6585,-3.6598,-3.6417,-3.6258,-3.5519,-3.4386,-3.2912,-3.2117,-3.0853,-2.8774,-2.768,-2.6131,-2.388,-2.2768,-2.1314,-1.9379,-1.8061,-1.6301,-1.4173,-1.2745,-1.1534,-1.0599,-1.0167,-1.0095,-1.0527,-1.1456,-1.2896,-1.4688,-1.5176,-1.6463,-1.8367,-1.9587,-2.1256,-2.3365,-2.6054,-2.9008,-3.1906,-3.3148,-3.5742,-3.9007,-0.6581,-0.78,-0.8963,-0.9794,-1.0956,-1.2255,-1.372,-1.5021,-1.6046,-1.6548,-1.7342,-1.8686,-2.0934,-2.2007,-2.3271,-2.5057,-2.7496,-2.9764,-3.1734,-3.4245,-3.6386,-3.7998,-3.8776,-3.9849,-4.1244,-4.1153,-4.1754,-4.316,-4.2643,-4.2578,-4.2798,-4.2282,-4.1479,-4.0418,-4.0061,-4.0061,-4.0415,-4.1658,-4.3206,-4.5004,-4.6238,-4.74,-4.8327,-4.7875,-4.7112,-4.6287,-4.562,-4.4072,-4.1994,-4.0151,-3.8209,-3.6262,-3.5224,-3.4331,0.0,-3.3976,-3.4217,0.0,0.0,0.0,-3.6072,-3.6095,-3.6961,-3.7537,-3.6778,-3.7894,-3.8813,-3.8065,-3.8395,-3.8594,-3.7722,-3.6204,-3.5157,-3.5599,-3.4869,-3.4759,-3.6219,-3.5847,-3.5468,-3.5511,-3.4397,-3.3048,-3.1518,-3.1054,-2.9785,-2.728,-2.6414,-2.4805,-2.2016,-2.1254,-1.9816,-1.7489,-1.6664,-1.5328,-1.3325,-1.2173,-1.139,-1.0972,-1.0245,-1.0095,-1.0527,-1.2036,-1.3603,-1.5035,-1.6018,-1.7215,-1.8498,-2.0061,-2.1679,-2.3594,-2.6388,-2.9429,-3.2475,-3.4666,-3.7321,-4.0187,-0.6374,-0.7068,-0.792,-0.9028,-1.0278,-1.1381,-1.2183,-1.3573,-1.4977,-1.6254,-1.7898,0.0,0.0,0.0,0.0,0.0,-2.7203,-2.9183,-3.0225,-3.2783,-3.4848,-3.6135,-3.7108,-3.8257,-3.9753,-3.9594,-3.9953,-4.0903,-3.9984,-3.8953,-3.7835,-3.6825,-3.5728,-3.4491,-3.447,-3.5333,-3.7001,-3.9131,-4.1479,-4.4075,-4.6158,-4.7666,-4.8663,-4.8216,-4.6925,-4.5183,0.0,-4.1861,-3.9929,-3.8048,-3.6042,-3.4226,-3.3538,0.0,0.0,-3.3678,0.0,-3.4479,0.0,0.0,-3.7202,-3.7636,-3.8293,-3.8574,-3.7785,-3.8365,-3.888,-3.8049,-3.8349,-3.826,-3.6904,-3.5904,-3.5057,-3.4516,-3.4175,-3.424,-3.5206,-3.5133,-3.4875,-3.4487,-3.348,0.0,-3.082,-3.0372,0.0,-2.7142,-2.5932,-2.4408,-2.2345,-2.0826,-1.9404,-1.8051,-1.6593,-1.5257,-1.4118,-1.2681,-1.1821,-1.139,-1.0894,-1.1109,-1.2036,-1.2824,-1.3967,-1.5461,-1.6041,-1.7228,-1.8887,-2.0343,-2.204,-2.3993,-2.715,-2.9955,-3.2524,-3.5339,-3.7988,-4.0537,-0.6018,-0.6462,-0.7138,-0.8328,-0.9305,0.0,0.0,0.0,0.0,0.0,0.0,0.0,0.0,0.0,0.0,0.0,0.0,-2.7994,-2.8779,-3.097,-3.2685,-3.3743,-3.4655,-3.5755,-3.7186,-3.6942,-3.7107,-3.7598,-3.6372,-3.4848,-3.3146,-3.1677,-3.0348,-2.9145,-2.9411,-3.0811,-3.309,-3.5978,-3.9213,-4.2602,-4.4911,-4.691,-4.8347,-4.7514,-4.6153,0.0,0.0,-3.9844,-3.7824,-3.6345,-3.4553,-3.2934,-3.2574,0.0,0.0,0.0,-3.4185,-3.5173,-3.7042,-3.7618,-3.7872,-3.8148,-3.8722,-3.8922,-3.7721,-3.8231,-3.8653,-3.7805,-3.7591,-3.7099,-3.5759,-3.461,-3.3652,-3.3214,-3.3236,-3.3574,-3.4288,-3.4518,-3.4361,-3.3868,-3.312,-3.2135,0.0,0.0,0.0,-2.6857,-2.5999,-2.4592,-2.2359,-2.0961,-1.961,-1.8261,-1.6664,-1.5328,-1.4332,-1.3039,-1.2108,-1.1599,-1.1667,-1.2172,-1.2968,-1.3611,-1.4679,-1.6028,-1.6603,-1.7791,-1.9494,-2.0919,-2.2574,-2.4595,-2.7896,-3.0575,-3.2999,-3.6061,-3.8648,-4.1027,-0.5489,-0.5938,-0.6561,0.0,0.0,0.0,0.0,0.0,0.0,0.0,0.0,0.0,0.0,0.0,0.0,0.0,0.0,0.0,-2.7365,-2.8846,0.0,-3.093,-3.1653,-3.2534,-3.37,-3.3403,-3.3384,-3.3576,-3.2026,-3.0461,-2.8775,-2.6911,-2.5402,-2.438,-2.4881,-2.641,-2.8788,-3.235,-3.6383,-4.0515,-4.2655,-4.5113,-4.7315,-4.5935,0.0,0.0,0.0,0.0,0.0,0.0,0.0,0.0,0.0,0.0,0.0,0.0,0.0,-3.6273,-3.6963,-3.7637,-3.8055,-3.7684,-3.8397,-3.8657,-3.6908,-3.7584,-3.8299,-3.734,-3.625,-3.5154,-3.427,0.0,-3.1207,-3.1767,-3.2119,-3.264,-3.345,-3.3797,-3.3855,0.0,0.0,0.0,0.0,0.0,0.0,-2.6427,0.0,-2.5286,-2.2188,-2.1523,-2.0227,-1.7931,-1.6764,-1.5497,-1.4,-1.3284,-1.2488,-1.1685,-1.2634,-1.3207,-1.3396,-1.4546,-1.5683,-1.6815,-1.7611,-1.8805,-2.0284,-2.1702,-2.3399,-2.5437,-2.8575,-3.1287,-3.3725,-3.673,-3.9343,-4.1749,0.0,0.0,0.0,0.0,0.0,0.0,0.0,0.0,0.0,0.0,0.0,0.0,0.0,0.0,0.0,0.0,0.0,0.0,-2.5271,-2.6962,0.0,0.0,0.0,-3.1247,-3.2603,-3.1931,-3.1622,-3.1676,-2.9435,-2.7275,-2.5099,-2.2961,-2.1159,-1.9709,-2.1024,-2.3007,-2.5749,-3.0041,-3.4277,-3.8428,0.0,-4.3851,-4.5607,0.0,0.0,0.0,0.0,0.0,0.0,0.0,0.0,0.0,0.0,0.0,-3.3967,0.0,0.0,-3.644,-3.6839,-3.7536,-3.8121,-3.8116,-3.8523,-3.8712,-3.8157,-3.8254,-3.8,-3.6502,-3.5324,-3.395,-3.1706,0.0,0.0,-3.0209,-3.0988,0.0,-3.1643,-3.1981,0.0,-3.1512,0.0,-3.1231,-3.0721,-3.0371,0.0,0.0,-2.6851,-2.5458,-2.3601,-2.201,-2.0433,-1.8954,-1.7126,-1.5839,-1.5182,-1.4449,-1.3717,-1.3084,-1.3631,-1.3994,-1.4252,-1.5247,-1.6539,-1.7908,-1.8587,-1.9772,-2.1307,-2.2479,-2.4246,-2.6439,-2.9211,-3.1805,-3.4347,-3.7365,-3.9681,-4.1632,0.0,0.0,0.0,0.0,0.0,0.0,0.0,0.0,0.0,0.0,0.0,0.0,0.0,0.0,0.0,0.0,0.0,0.0,0.0,-2.5278,0.0,0.0,-2.7751,-2.8563,-2.9577,-2.9034,-2.8769,0.0,0.0,0.0,-2.1917,-1.9369,-1.7239,-1.5589,-1.6807,-1.8895,-2.1826,-2.6584,0.0,0.0,0.0,0.0,0.0,0.0,0.0,0.0,0.0,0.0,0.0,0.0,0.0,-3.2648,-3.2623,-3.3356,-3.4316,-3.456,0.0,-3.6419,-3.6832,-3.7496,-3.7946,-3.7612,-3.8035,-3.8176,-3.6674,-3.6806,-3.6465,-3.3723,-3.2426,0.0,-2.9048,-2.8943,0.0,0.0,0.0,0.0,-3.0221,-3.0924,-3.1184,0.0,-3.1094,0.0,-3.0917,-3.0877,-3.052,0.0,-2.8151,-2.6595,-2.4797,-2.3188,-2.169,-2.0341,-1.8176,-1.6646,-1.5919,-1.5406,-1.4975,-1.479,-1.5086,-1.5392,-1.5858,-1.6774,-1.7846,-1.9011,-1.9865,-2.0935,-2.2167,-2.3761,-2.5544,-2.7567,-3.0452,-3.2955,-3.527,-3.8107,-4.0428,-4.246,0.0,0.0,0.0,0.0,0.0,0.0,0.0,0.0,0.0,0.0,0.0,0.0,0.0,0.0,0.0,0.0,0.0,0.0,0.0,0.0,-2.4311,-2.4519,-2.5071,-2.5555,-2.592,-2.5787,-2.5826,0.0,0.0,0.0,0.0,0.0,0.0,0.0,0.0,0.0,0.0,0.0,0.0,0.0,0.0,0.0,0.0,0.0,0.0,0.0,0.0,0.0,0.0,0.0,-3.216,-3.3068,-3.2928,-3.3668,-3.4635,-3.4849,-3.5417,-3.6106,-3.6531,-3.7042,-3.7318,-3.6666,-3.7231,-3.7224,-3.4358,-3.4492,-3.4183,-3.0441,0.0,-2.7833,-2.632,-2.5932,-2.6016,-2.6543,0.0,-2.864,-2.9011,-3.0103,-3.0707,-3.0277,-3.1265,-3.1799,-3.1352,-3.1709,-3.1669,-3.097,-2.9747,-2.8096,-2.5959,-2.4689,-2.3214,-2.1426,-1.9325,-1.7709,-1.6656,-1.6487,-1.6469,-1.6674,-1.6852,-1.7205,-1.7736,-1.8508,-1.9322,-2.0195,-2.1282,-2.2271,-2.327,-2.5353,-2.7102,-2.8822,-3.2069,-3.4452,-3.6374,-3.8958,-4.1395,-4.3659,0.0,0.0,0.0,0.0,0.0,0.0,0.0,0.0,0.0,0.0,-1.5826,0.0,0.0,0.0,0.0,0.0,0.0,0.0,0.0,0.0,0.0,-2.3675,-2.4272,-2.4627,-2.4716,0.0,0.0,0.0,0.0,0.0,0.0,0.0,0.0,0.0,0.0,0.0,0.0,0.0,0.0,0.0,0.0,0.0,0.0,0.0,0.0,0.0,0.0,0.0,0.0,0.0,-3.0904,-3.2699,-3.3034,-3.3737,-3.4382,-3.3657,-3.4149,-3.4753,-3.4302,-3.4755,-3.5392,-3.5794,-3.6018,-3.5883,-3.4941,-3.3763,0.0,0.0,-2.7901,-2.6384,-2.4259,-2.4746,0.0,-2.4638,0.0,0.0,0.0,0.0,-2.9075,0.0,0.0,0.0,0.0,0.0,0.0,0.0,0.0,-2.9277,-2.7327,-2.6081,-2.3901,-2.0602,-1.9701,-1.8922,-1.821,-1.8734,-1.8795,-1.8535,-1.8863,-1.898,-1.8915,-1.9925,-2.097,-2.2056,-2.2857,-2.3973,-2.5437,-2.6748,-2.8443,-3.0584,-3.3296,-3.5628,-3.7742,-3.9704,-4.1885,-4.3986,0.0,0.0,0.0,0.0,0.0,0.0,0.0,0.0,0.0,-1.3754,-1.5392,-1.6855,0.0,0.0,0.0,0.0,0.0,0.0,0.0,0.0,0.0,0.0,0.0,0.0,0.0,0.0,0.0,0.0,0.0,0.0,0.0,0.0,0.0,0.0,0.0,0.0,0.0,0.0,0.0,0.0,0.0,0.0,0.0,0.0,0.0,0.0,0.0,0.0,0.0,0.0,-2.8763,-2.9642,-3.1177,-3.2153,-3.2639,-3.2121,-3.2421,-3.2888,-3.3184,-3.359,-3.4095,-3.4993,-3.505,-3.4446,-3.2871,0.0,0.0,0.0,0.0,-2.3202,-2.169,0.0,0.0,0.0,0.0,0.0,0.0,0.0,0.0,0.0,0.0,0.0,0.0,0.0,0.0,0.0,0.0,-3.0422,-2.8535,-2.6414,-2.4072,-2.1337,-2.0802,-2.0299,-1.9822,-2.0168,-2.0567,-2.0992,-2.0694,-2.086,-2.1408,-2.1907,-2.2633,-2.3663,-2.4747,-2.5841,-2.6852,-2.8747,-3.0226,-3.1653,-3.4596,-3.6747,-3.8398,-4.0285,-4.2431,-4.4552,0.0,0.0,0.0,0.0,0.0,0.0,0.0,-0.9694,-1.156,-1.3351,-1.4792,-1.624,-1.775,-1.8488,-1.9059,0.0,0.0,0.0,0.0,0.0,0.0,0.0,0.0,0.0,0.0,0.0,0.0,0.0,0.0,0.0,0.0,0.0,0.0,0.0,0.0,0.0,0.0,0.0,0.0,0.0,0.0,0.0,0.0,0.0,0.0,0.0,0.0,0.0,0.0,0.0,-2.6731,-2.6392,-2.8439,-2.968,-3.0408,-3.0262,-3.0475,-3.1043,-3.2218,-3.2601,-3.3041,-3.4258,-3.4113,-3.2994,-3.0545,-2.8648,0.0,0.0,-2.1359,-2.0557,-1.9872,0.0,0.0,0.0,0.0,0.0,0.0,0.0,0.0,0.0,0.0,0.0,0.0,0.0,0.0,0.0,0.0,0.0,-2.9138,-2.6533,-2.4406,-2.2725,-2.2283,-2.1901,-2.1644,-2.1766,-2.2268,-2.319,-2.2657,-2.2868,-2.3783,-2.3857,-2.4375,-2.5258,-2.6576,-2.7509,-2.8239,-3.0613,-3.1906,-3.2784,-3.596,-3.7806,-3.8993,-4.0829,-4.289,-4.4842,0.0,0.0,0.0,0.0,0.0,0.0,0.0,-0.8545,-1.0367,-1.228,-1.3565,-1.488,-1.6485,-1.7599,-1.8385,0.0,0.0,0.0,0.0,0.0,0.0,0.0,0.0,0.0,0.0,0.0,0.0,0.0,0.0,0.0,0.0,0.0,0.0,0.0,0.0,0.0,0.0,0.0,0.0,0.0,0.0,0.0,0.0,0.0,0.0,0.0,0.0,0.0,0.0,0.0,0.0,-2.4771,-2.5168,-2.6703,-2.8277,-2.776,0.0,0.0,-3.0645,-3.1411,-3.2258,-3.3622,-3.3045,-3.1596,-2.9581,0.0,0.0,-2.2052,-2.0964,-2.0295,-1.986,-2.0276,0.0,0.0,0.0,-2.3148,0.0,0.0,0.0,0.0,0.0,0.0,0.0,0.0,0.0,0.0,0.0,0.0,-2.8576,-2.6898,-2.5521,-2.4608,-2.4212,-2.387,-2.3669,-2.4227,-2.454,-2.4462,-2.4653,-2.4863,-2.5051,-2.5419,-2.6152,-2.7288,-2.774,-2.8749,-3.0174,-3.1836,-3.3203,-3.464,-3.7334,-3.9066,-4.0151,-4.1643,-4.302,-4.4411,0.0,0.0,0.0,0.0,0.0,0.0,0.0,-0.792,-0.9472,-1.1567,-1.2653,-1.3737,-1.5143,-1.5965,-1.6818,0.0,0.0,0.0,0.0,0.0,0.0,0.0,0.0,0.0,0.0,0.0,0.0,0.0,0.0,0.0,0.0,0.0,0.0,0.0,0.0,0.0,0.0,0.0,0.0,0.0,0.0,0.0,0.0,0.0,0.0,0.0,0.0,0.0,0.0,0.0,0.0,0.0,-2.3368,-2.4217,0.0,0.0,-2.7039,-2.8265,-2.9479,-3.0293,-3.1151,-3.2452,-3.1554,-2.9908,-2.8019,0.0,-2.2687,-2.0296,-1.9413,-1.898,-1.8597,-1.9717,-2.076,-2.1048,-2.1956,-2.2952,0.0,0.0,0.0,0.0,0.0,0.0,0.0,0.0,0.0,0.0,0.0,0.0,-2.9468,-2.8178,-2.6835,-2.5601,-2.5481,-2.5264,-2.5019,-2.5588,-2.6038,-2.6371,-2.65,-2.6559,-2.6677,-2.7245,-2.7753,-2.8315,-2.9358,-3.0326,-3.1393,-3.2852,-3.4171,-3.5425,-3.736,-3.8829,-3.9986,-4.1242,-4.2445,-4.3723,0.0,0.0,0.0,0.0,0.0,0.0,-0.6082,-0.7226,-0.8636,-1.0657,-1.1633,-1.2612,-1.39,-1.4514,-1.5339,-1.6531,0.0,0.0,0.0,0.0,0.0,0.0,0.0,0.0,0.0,0.0,0.0,0.0,0.0,0.0,0.0,0.0,0.0,0.0,0.0,0.0,0.0,0.0,0.0,0.0,0.0,0.0,0.0,0.0,0.0,0.0,0.0,0.0,0.0,0.0,0.0,0.0,0.0,0.0,0.0,0.0,-2.5643,-2.6898,-2.8301,-2.9177,-2.9949,-3.0888,-2.9802,-2.7999,0.0,0.0,-2.0933,-1.8968,-1.8315,-1.8171,-1.8312,-1.9606,-2.0839,-2.1357,-2.2089,-2.2899,-2.368,0.0,0.0,0.0,0.0,0.0,0.0,0.0,0.0,0.0,0.0,0.0,-3.0531,-2.9586,-2.8371,-2.699,-2.6634,-2.6552,-2.6583,-2.7026,-2.7452,-2.7913,-2.8182,-2.8313,-2.8274,-2.8907,-2.9338,-2.9608,-3.0852,-3.1782,-3.2551,-3.41,-3.5324,-3.6286,-3.7869,-3.9087,-4.0056,-4.0988,-4.1969,-4.3129,0.0,0.0,0.0,0.0,0.0,0.0,0.0,-0.6359,-0.7831,-0.9331,-1.038,-1.1522,-1.2869,-1.3438,-1.4109,-1.5034,0.0,0.0,0.0,0.0,0.0,0.0,0.0,0.0,0.0,0.0,0.2307,0.7603,1.5036,2.2424,0.0,0.0,0.0,0.0,0.0,0.0,0.0,0.0,0.0,0.0,0.0,0.0,0.0,0.0,0.0,0.0,0.0,0.0,0.0,0.0,0.0,0.0,0.0,0.0,0.0,0.0,-2.4297,-2.5702,-2.7061,-2.7941,-2.8661,-2.9137,-2.7793,-2.5792,0.0,-2.1213,-1.9118,-1.8348,-1.8106,-1.839,-1.9665,-2.0249,-2.0903,-2.1856,-2.2199,-2.2898,-2.4312,0.0,0.0,0.0,0.0,0.0,0.0,0.0,0.0,0.0,0.0,0.0,-3.1395,-3.101,-3.0159,-2.8886,-2.7934,-2.7747,-2.8447,-2.8972,-2.9008,-2.8707,-2.976,-3.0096,-2.9855,-3.0195,-3.0835,-3.1613,-3.2258,-3.2936,-3.3738,-3.5706,-3.6807,-3.7508,-3.9109,-4.0127,-4.0819,-4.1164,-4.1742,-4.2558,0.0,0.0,0.0,0.0,0.0,0.0,0.0,-0.5164,-0.6372,-0.8122,-0.9047,-1.0316,-1.2305,-1.2891,-1.3665,-1.493,0.0,0.0,0.0,0.0,0.0,0.0,0.0,0.0,0.0,0.0,0.5782,1.1607,1.8864,2.6405,3.4157,3.7988,0.0,0.0,0.0,0.0,0.0,0.0,0.0,0.0,0.0,0.0,0.0,0.0,0.0,0.0,0.0,0.0,0.0,0.0,0.0,0.0,0.0,0.0,0.0,-2.308,-2.4225,-2.5216,-2.5912,-2.6632,-2.714,-2.6983,-2.5462,-2.352,-2.175,-1.9668,-1.7911,-1.7292,-1.7764,-1.8636,-1.9714,-2.1277,-2.2716,-2.3632,-2.4388,0.0,0.0,0.0,0.0,0.0,0.0,0.0,0.0,0.0,0.0,0.0,0.0,-3.23,-3.1863,-3.1017,-3.0162,-2.9472,-2.9397,-2.9544,-2.9809,-3.024,-3.0515,-3.0673,-3.1224,-3.1382,-3.1076,-3.1945,-3.2316,-3.2368,-3.3358,-3.4115,-3.4851,-3.5639,-3.6835,-3.8187,-3.8679,-3.939,-4.0127,-4.0712,-4.0971,-4.1189,0.0,0.0,0.0,0.0,0.0,0.0,0.0,-0.4534,-0.5525,-0.7327,-0.8314,-0.9688,-1.1859,-1.2727,-1.369,-1.5126,0.0,0.0,0.0,0.0,0.0,0.0,0.0,0.0,-0.336,0.191,0.7575,1.3642,2.08,2.8037,3.5284,3.8161,3.9334,3.8669,0.0,0.0,0.0,0.0,0.0,0.0,0.0,0.0,-3.0867,0.0,0.0,0.0,0.0,0.0,0.0,0.0,0.0,0.0,0.0,0.0,0.0,0.0,-2.3807,-2.4476,0.0,-2.5418,-2.5595,-2.4861,-2.3231,-2.1487,-1.9894,-1.8049,-1.6766,-1.6967,-1.7902,-1.9094,-2.0621,-2.2359,-2.3967,-2.505,-2.5508,0.0,0.0,0.0,0.0,0.0,0.0,0.0,0.0,0.0,0.0,0.0,-3.358,-3.301,-3.271,-3.1754,-3.1124,-3.0801,-3.0648,-3.0697,-3.106,-3.1581,-3.1943,-3.203,-3.2667,-3.2765,-3.2466,-3.3282,-3.3448,-3.3146,-3.4289,-3.4941,0.0,-3.6168,-3.7167,-3.8335,-3.8825,-3.9428,-4.0015,-4.0454,-4.0782,-4.1265,0.0,0.0,0.0,0.0,0.0,0.0,0.0,0.0,0.0,0.0,-0.8176,-0.9623,-1.1628,-1.2831,-1.4123,0.0,0.0,0.0,0.0,0.0,0.0,0.0,0.0,0.0,-0.2707,0.2304,0.7794,1.3747,2.0759,2.7253,3.3216,3.5299,3.5699,3.4337,2.7234,1.9125,0.0,0.0,0.0,0.0,-2.7347,-2.9693,0.0,0.0,0.0,0.0,0.0,0.0,0.0,0.0,0.0,0.0,0.0,0.0,0.0,0.0,0.0,0.0,0.0,-2.4179,-2.4013,-2.2803,-2.1233,-1.9665,-1.8144,-1.6601,0.0,-1.7315,-1.8419,-1.9907,-2.23,-2.3645,-2.4845,-2.6339,0.0,0.0,0.0,0.0,0.0,0.0,0.0,0.0,0.0,0.0,0.0,-3.5007,-3.4278,-3.3809,-3.3844,-3.2961,-3.2581,-3.2631,-3.1655,-3.1473,-3.2184,-3.3008,-3.3192,-3.2904,-3.3962,-3.4324,-3.3926,-3.4316,-3.4253,0.0,-3.5024,-3.548,-3.5434,-3.6936,-3.7769,-3.818,-3.9372,-4.0134,-4.0468,-4.0468,-4.1172,-4.2237,0.0,0.0,0.0,0.0,0.0,0.0,0.0,0.0,0.0,0.0,-0.8579,-1.0243,-1.2272,-1.3208,-1.4223,0.0,0.0,0.0,0.0,0.0,0.0,0.0,0.0,0.0,-0.2909,0.1562,0.6276,1.1255,1.7127,2.2357,2.6871,2.7909,2.7952,2.6918,2.0218,0.9703,0.0,0.0,0.0,0.0,-2.8261,-3.0201,0.0,0.0,0.0,0.0,-2.8505,-2.7338,0.0,0.0,0.0,0.0,0.0,0.0,0.0,0.0,-2.3371,-2.275,-2.2809,0.0,-2.2423,-2.1415,-1.9872,-1.8366,0.0,-1.6626,-1.6444,-1.7649,0.0,-2.1501,-2.449,-2.6045,-2.7682,-3.0012,0.0,0.0,0.0,0.0,0.0,0.0,0.0,0.0,0.0,0.0,0.0,-3.5456,-3.4162,-3.3526,-3.3821,-3.2566,-3.2221,-3.3075,-3.2912,-3.2997,-3.3364,-3.3926,-3.4399,-3.4946,-3.5175,-3.5247,-3.52,-3.5514,-3.5444,-3.5131,-3.5957,-3.642,-3.671,-3.7333,-3.7955,-3.8576,-3.9277,-3.9732,-4.011,-4.0721,-4.1139,-4.1586,0.0,0.0,0.0,0.0,0.0,0.0,0.0,0.0,0.0,0.0,0.0,0.0,0.0,0.0,0.0,0.0,0.0,0.0,0.0,0.0,0.0,0.0,0.0,-0.6875,-0.3486,0.0198,0.4118,0.8294,1.27,1.6472,1.9612,2.0051,1.9741,1.8465,1.0429,0.0511,0.0,0.0,0.0,0.0,-2.9335,0.0,0.0,0.0,0.0,0.0,-2.8445,-2.7088,0.0,-2.4485,-2.3334,-2.2397,0.0,0.0,0.0,0.0,-2.3411,-2.257,-2.2568,-2.2176,-2.1547,-2.0351,-1.91,-1.8017,-1.7241,0.0,0.0,0.0,0.0,-2.2792,-2.554,-2.7773,0.0,0.0,0.0,0.0,0.0,0.0,0.0,0.0,0.0,0.0,0.0,0.0,-3.6293,-3.5903,-3.4913,-3.4401,-3.439,-3.3635,-3.3248,-3.3511,-3.3678,-3.3914,-3.4046,-3.4499,-3.4861,-3.5335,-3.5686,-3.5694,-3.5567,-3.592,-3.5859,-3.5472,-3.6169,-3.6602,-3.6864,-3.7624,-3.8259,-3.8812,-3.9684,-4.023,-4.0661,-4.1395,-4.1975,-4.2379,0.0,0.0,0.0,0.0,0.0,0.0,0.0,0.0,0.0,0.0,0.0,0.0,0.0,0.0,0.0,0.0,0.0,0.0,0.0,0.0,0.0,0.0,-1.0308,-0.768,-0.4415,-0.1556,0.157,0.4984,0.789,1.0307,1.221,1.2197,1.1187,0.9023,0.0179,-0.7464,0.0,0.0,0.0,0.0,-3.027,0.0,0.0,0.0,0.0,0.0,0.0,0.0,0.0,-2.3792,-2.268,-2.1914,-2.2207,0.0,0.0,0.0,0.0,0.0,-2.2635,-2.2059,-2.1105,-1.9665,-1.8905,-1.8251,-1.7601,0.0,0.0,0.0,0.0,0.0,0.0,-2.9497,0.0,0.0,0.0,0.0,0.0,0.0,0.0,0.0,0.0,0.0,0.0,-3.7145,-3.6664,-3.6275,-3.5774,-3.5402,-3.5082,-3.4954,-3.4654,-3.3988,-3.429,-3.4516,-3.4591,-3.4932,-3.522,-3.5339,-3.6024,-3.611,-3.5743,-3.6034,-3.5898,-3.5508,-3.6245,-3.6502,-3.6576,-3.7807,-3.8514,-3.8937,-4.0285,-4.0968,-4.1385,-4.2232,-4.3068,-4.3772,0.0,0.0,0.0,0.0,0.0,0.0,0.0,0.0,0.0,0.0,0.0,0.0,0.0,0.0,0.0,0.0,0.0,0.0,0.0,0.0,0.0,-1.2947,-1.0836,-0.8518,-0.6017,-0.3565,-0.1155,0.123,0.3357,0.4915,0.5888,0.5154,0.2425,-0.209,-0.6553,-1.1562,-1.6946,-2.1387,0.0,-2.8595,-3.0578,0.0,0.0,0.0,0.0,0.0,0.0,0.0,0.0,-2.3641,-2.3282,-2.336,-2.2858,0.0,0.0,0.0,0.0,0.0,-2.2437,-2.1844,-2.0877,-1.9659,-1.9286,-1.9053,-1.8705,0.0,0.0,0.0,0.0,0.0,0.0,0.0,0.0,0.0,0.0,0.0,0.0,0.0,0.0,0.0,0.0,0.0,0.0,-3.7462,-3.6812,-3.6738,-3.576,-3.5262,-3.5512,-3.4928,-3.4688,-3.4782,-3.4857,-3.5082,-3.5381,-3.5456,-3.6034,-3.7014,-3.7181,-3.7118,-3.7047,-3.6688,-3.6328,-3.5918,-3.6296,-3.6682,-3.7085,-3.7949,-3.8514,-3.8937,-4.0285,-4.0968,-4.1428,-4.2601,-4.3492,-4.4094,0.0,0.0,0.0,0.0,0.0,0.0,0.0,0.0,0.0,0.0,0.0,0.0,0.0,0.0,0.0,0.0,0.0,0.0,0.0,0.0,-1.425,-1.3321,-1.1665,-0.969,-0.7388,-0.5773,-0.4085,-0.2295,-0.0932,-0.0088,0.0196,-0.126,-0.387,-0.7512,-1.0645,-1.4722,-1.9462,-2.285,-2.6323,-2.9576,0.0,0.0,0.0,0.0,0.0,0.0,0.0,0.0,0.0,0.0,-2.3474,-2.3163,-2.3243,0.0,0.0,0.0,0.0,0.0,-2.2465,-2.1976,-2.1424,-2.0662,-2.0545,-2.0608,-2.0656,-2.1532,0.0,0.0,0.0,0.0,0.0,0.0,0.0,0.0,0.0,0.0,-4.4114,-4.4162,-4.3565,0.0,0.0,-3.9845,-3.9051,-3.8037,-3.7329,-3.7107,-3.6644,-3.6239,-3.5978,-3.5814,-3.5573,-3.5306,-3.553,-3.5829,-3.6201,-3.6442,-3.6626,-3.6788,-3.7162,-3.7222,-3.6953,-3.6992,-3.6986,-3.6984,-3.734,-3.7714,-3.8186,-3.9254,-3.9716,-4.0007,-4.1283,-4.1909,-4.2209,-4.354,-4.4277,-4.4684,0.0,0.0,0.0,0.0,0.0,0.0,0.0,0.0,0.0,0.0,0.0,0.0,0.0,0.0,0.0,0.0,0.0,0.0,0.0,-1.4563,-1.4035,-1.3413,-1.249,-1.0897,-0.8632,-0.7684,-0.6593,-0.5344,-0.4712,-0.4583,-0.4974,-0.6507,-0.8535,-1.1046,-1.3696,-1.7236,-2.1373,-2.4146,-2.7144,-3.005,0.0,0.0,0.0,0.0,0.0,0.0,0.0,0.0,0.0,0.0,0.0,0.0,0.0,0.0,0.0,-2.4339,-2.384,-2.3154,-2.275,-2.2311,-2.1946,-2.1923,-2.1838,-2.1922,-2.2595,-2.3739,0.0,0.0,0.0,0.0,0.0,0.0,0.0,0.0,-4.5638,-4.6218,-4.5798,-4.5591,-4.4851,-4.3078,-4.2062,-4.098,-3.9672,-3.8783,-3.8105,-3.7568,-3.7476,-3.7107,-3.6497,-3.6812,-3.6738,-3.6201,-3.6331,-3.6663,-3.7031,-3.7489,-3.7302,-3.6657,-3.734,-3.7455,-3.7023,-3.7398,-3.7739,-3.813,-3.8384,-3.8824,-3.935,-4.0362,-4.078,-4.0892,-4.2107,-4.277,-4.3141,-4.4388,-4.5026,-4.5415,0.0,0.0,0.0,0.0,0.0,0.0,0.0,0.0,0.0,0.0,0.0,0.0,0.0,0.0,0.0,0.0,0.0,0.0,0.0,-1.4286,-1.3961,-1.3177,-1.3041,-1.1974,-0.9825,-0.8855,-0.811,-0.7572,-0.763,-0.8291,-0.9532,-0.9782,-1.1387,-1.4076,-1.6275,-1.9018,-2.2212,-2.5329,-2.7663,-2.9386,-3.0834,0.0,0.0,0.0,0.0,0.0,0.0,0.0,0.0,0.0,0.0,0.0,0.0,0.0,-2.5541,-2.4656,-2.3798,-2.3183,-2.3532,-2.2766,-2.2178,-2.3183,-2.2634,-2.2298,-2.3944,-2.5388,0.0,-2.9637,0.0,0.0,0.0,0.0,0.0,0.0,0.0,-4.7749,-4.791,0.0,-4.5976,-4.4731,-4.3468,-4.2113,-4.0574,-3.9657,-3.8876,-3.8047,-3.7642,-3.7329,-3.7329,-3.7329,-3.7476,-3.7824,-3.7441,-3.7374,-3.7825,-3.8203,-3.8256,-3.7897,-3.8197,-3.841,-3.8331,-3.8377,-3.8595,-3.8902,-3.8922,-3.9357,-4.004,-4.0549,-4.0829,-4.0892,-4.2107,-4.328,-4.4273,-4.4663,-4.5437,-4.6355,0.0,0.0,0.0,0.0,0.0,0.0,0.0,0.0,0.0,0.0,0.0,0.0,0.0,0.0,0.0,0.0,0.0,0.0,0.0,-1.4022,-1.3921,-1.3737,-1.356,-1.2967,-1.1904,-1.1008,-1.0275,-0.9672,-0.9848,-1.0393,-1.1313,-1.2264,-1.3708,-1.5594,-1.784,-2.0519,-2.3429,-2.5486,-2.7591,-2.9538,-3.0013,-3.0418,0.0,0.0,0.0,0.0,0.0,0.0,0.0,0.0,-2.5546,-2.568,-2.5038,-2.5324,-2.5779,-2.5082,-2.4442,-2.3836,-2.3507,-2.3452,-2.3583,-2.3959,-2.4403,0.0,0.0,-2.7638,-2.9757,-3.255,-3.5106,0.0,0.0,0.0,0.0,0.0,0.0,0.0,-4.8252,-4.75,-4.6617,-4.5683,-4.4252,-4.2856,-4.1772,-4.066,-3.9685,-3.9103,-3.8938,-3.87,-3.8501,-3.87,-3.8918,-3.9063,-3.9102,-3.9238,-3.9401,-3.9565,-3.943,-3.9083,-3.9194,-3.9189,-3.9212,-3.9475,-3.9798,-4.009,-4.0381,-4.0787,-4.1298,-4.1726,-4.1952,-4.1973,-4.2726,-4.3511,-4.4342,-4.4663,-4.546,-4.6402,0.0,0.0,0.0,0.0,0.0,0.0,0.0,0.0,0.0,0.0,0.0,0.0,0.0,0.0,0.0,0.0,0.0,0.0,-1.4008,-1.4195,-1.4285,-1.4228,-1.4223,-1.3896,-1.3156,-1.2668,-1.2033,-1.1271,-1.1376,-1.193,-1.2887,-1.4085,-1.5449,-1.6974,-1.9169,-2.1549,-2.4017,-2.5469,-2.7264,-2.9137,-2.9252,-2.9606,0.0,0.0,0.0,0.0,0.0,0.0,0.0,0.0,-2.6399,-2.6086,-2.5727,-2.5888,-2.6093,-2.5506,-2.4949,-2.446,-2.3771,-2.3956,-2.4375,-2.4643,0.0,0.0,-2.8265,-3.0074,-3.2255,-3.5013,-3.7983,-4.0787,-4.2942,0.0,0.0,0.0,-4.7603,-4.8145,-4.8687,-4.7958,-4.7179,-4.6519,-4.5211,-4.3944,-4.2814,-4.1748,-4.091,-4.0318,-4.0155,-3.993,-3.9662,-3.993,-4.0218,-4.0433,-4.0574,-4.0705,-4.0796,-4.0796,-4.0584,-4.0014,-4.03,-4.0269,-4.0003,-4.0595,-4.1155,-4.1784,-4.2103,-4.26,-4.3246,-4.3388,-4.3279,-4.2986,-4.2996,-4.3441,-4.4112,-4.4526,-4.5278,-4.609,0.0,0.0,0.0,0.0,0.0,0.0,0.0,0.0,0.0,0.0,0.0,0.0,0.0,0.0,0.0,0.0,0.0,0.0,-1.4065,-1.4935,-1.5124,-1.4554,-1.5086,-1.4726,-1.3229,-1.3578,-1.331,-1.2308,-1.2191,-1.2967,-1.4609,-1.5321,-1.6597,-1.837,-2.027,-2.2071,-2.3805,-2.5409,-2.6793,-2.7936,-2.8533,-2.891,-2.9071,0.0,0.0,0.0,0.0,0.0,0.0,0.0,-2.7656,-2.7045,-2.6777,-2.6795,-2.6715,-2.5779,-2.5337,-2.4989,-2.4441,-2.4117,-2.4186,0.0,0.0,0.0,-3.09,-3.258,-3.4261,-3.6838,-4.0698,-4.366,-4.3879,-4.5366,0.0,-4.7583,-4.8005,-4.8538,-4.9584,-4.8626,-4.7682,-4.7409,-4.6607,-4.5382,-4.3795,-4.3089,-4.2481,-4.1659,-4.1203,-4.0954,-4.0954,-4.0954,-4.1239,-4.2018,-4.155,-4.1524,-4.1938,-4.1938,-4.1524,-4.0801,-4.1594,-4.1594,-4.0954,-4.1664,-4.2698,-4.3933,-4.3933,-4.4644,-4.5752,-4.5395,-4.4727,-4.3818,-4.2986,-4.3071,-4.3789,-4.4135,-4.4754,-4.5415,0.0,0.0,0.0,0.0,0.0,0.0,0.0,0.0,0.0,0.0,0.0,0.0,0.0,0.0,0.0,0.0,0.0,0.0,-1.4786,-1.5087,-1.5307,-1.5475,-1.5568,-1.5164,-1.4228,-1.3322,-1.2915,-1.298,-1.3339,-1.3896,-1.4713,-1.6379,-1.7581,-1.84,-2.1062,-2.2513,-2.3121,-2.5394,-2.6348,-2.6513,-2.7696,-2.8392,-2.8777,0.0,0.0,0.0,0.0,0.0,0.0,0.0,0.0,0.0,-2.6626,-2.6417,-2.6295,-2.5858,-2.5229,-2.4627,-2.4489,-2.4826,0.0,0.0,0.0,0.0,0.0,-3.4267,0.0,0.0,-4.2617,-4.4022,-4.4777,-4.5788,0.0,-4.6906,-4.7656,-4.8467,-4.9195,-4.868,-4.8214,-4.7873,-4.7087,-4.6015,-4.4473,-4.3872,-4.3371,-4.2677,-4.2554,-4.2468,-4.2468,-4.27,-4.3001,-4.3211,-4.3357,-4.32,-4.2714,-4.2714,-4.2365,-4.1665,-4.2165,-4.2159,-4.1735,-4.2441,-4.3333,-4.4264,-4.4546,-4.5118,-4.5823,-4.568,-4.5448,-4.5221,-4.4923,-4.5162,-4.5492,-4.5352,-4.5914,-4.675,0.0,0.0,0.0,0.0,0.0,0.0,0.0,0.0,0.0,0.0,-1.0481,-1.0961,0.0,0.0,0.0,0.0,0.0,0.0,0.0,-1.5821,-1.6118,-1.6359,-1.6061,-1.5378,-1.4362,-1.3347,-1.306,-1.3525,-1.3777,-1.4269,-1.5047,-1.7135,-1.834,-1.8962,-2.1466,-2.2787,-2.3253,-2.4829,-2.5536,-2.5656,-2.6912,-2.7596,-2.8016,0.0,0.0,0.0,0.0,0.0,0.0,0.0,0.0,0.0,-2.712,-2.6783,-2.6502,-2.6088,-2.5654,-2.5242,-2.498,0.0,0.0,0.0,0.0,0.0,-3.5547,0.0,0.0,0.0,0.0,-4.4713,-4.5823,-4.6371,0.0,-4.7144,-4.7978,-4.8783,-4.9319,-4.9211,-4.8913,-4.8561,-4.7909,-4.7054,-4.5989,-4.5307,-4.4749,-4.4365,-4.4036,-4.3902,-4.408,-4.4333,-4.4701,-4.5182,-4.5274,-4.5022,-4.4333,-4.3985,-4.3456,-4.2651,-4.3127,-4.3354,-4.3403,-4.3705,-4.4321,-4.5211,-4.5969,-4.6544,-4.6815,-4.6469,-4.6378,-4.6498,-4.6104,-4.6085,-4.6297,-4.6227,-4.6439,-4.6721,0.0,0.0,-1.2746,-1.2294,0.0,0.0,0.0,0.0,0.0,-1.0294,-1.0405,-1.0767,0.0,0.0,0.0,-1.3546,0.0,0.0,0.0,-1.6889,-1.7206,-1.7121,-1.6374,-1.5357,-1.4063,-1.3543,-1.3446,-1.3859,-1.3785,-1.4361,-1.5565,-1.7588,-1.8864,-1.964,-2.151,-2.2775,-2.3474,-2.3888,-2.4409,-2.5041,-2.6066,-2.6661,-2.7076,-2.8545,0.0,0.0,0.0,0.0,0.0,0.0,0.0,0.0,-2.8091,-2.7685,-2.7131,-2.6487,-2.6389,-2.6372,-2.5785,0.0,0.0,0.0,0.0,0.0,0.0,0.0,-4.2193,-4.3553,0.0,-4.558,-4.6689,-4.6967,-4.7328,-4.8074,-4.871,-4.9319,-4.9893,-4.9939,-4.9841,-4.9367,-4.889,-4.8367,-4.7918,-4.7008,-4.6416,-4.6371,-4.5575,-4.5256,-4.5781,-4.578,-4.638,-4.7539,-4.7213,-4.6702,-4.615,-4.5524,-4.4763,-4.3922,-4.4435,-4.5057,-4.5756,-4.5385,-4.5701,-4.6692,-4.8033,-4.8638,-4.8565,-4.7794,-4.766,-4.7829,-4.6968,-4.6644,-4.6644,-4.6881,-4.6598,-4.6051,0.0,0.0,-1.338,-1.3286,0.0,0.0,0.0,0.0,-1.0742,-1.0823,-1.1187,-1.1691,-1.246,-1.3157,0.0,-1.4442,-1.5738,0.0,0.0,-1.727,-1.7367,-1.7189,-1.5715,-1.4673,-1.4173,-1.3353,-1.3179,-1.3755,-1.4612,-1.5213,-1.5627,-1.7646,-1.858,-1.8704,-2.1078,-2.172,-2.1094,-2.2856,-2.3315,-2.2978,-2.4759,-2.6087,-2.711,-2.8208,-2.9253,0.0,0.0,0.0,0.0,0.0,0.0,0.0,-2.9359,-2.8486,-2.7527,-2.7158,-2.6723,-2.6388,0.0,0.0,0.0,0.0,0.0,0.0,0.0,0.0,0.0,-4.4008,-4.463,-4.5485,-4.6536,-4.6866,-4.7257,-4.82,-4.8795,-4.9434,-5.0352,-5.0446,-5.0192,-4.9841,-4.9582,-4.906,-4.8231,-4.7772,-4.7376,-4.7026,-4.7066,-4.7132,-4.7341,-4.7443,-4.777,-4.8327,-4.7957,-4.7423,-4.6701,-4.6561,-4.6234,-4.5769,-4.5881,-4.635,-4.7098,-4.6701,-4.7348,-4.8941,-4.9644,-5.0136,-5.0534,-5.0343,-5.0297,-5.025,-4.9348,-4.9017,-4.8875,-4.7904,-4.7922,-4.8337,0.0,0.0,0.0,0.0,0.0,0.0,0.0,0.0,-1.1793,-1.2062,-1.2167,-1.2527,-1.3251,-1.3918,0.0,0.0,-1.648,-1.7414,0.0,0.0,-1.7723,-1.6924,-1.5317,-1.438,-1.4165,-1.3251,-1.314,-1.3827,-1.4635,-1.5209,-1.5589,-1.7322,-1.8268,-1.8638,-2.0537,-2.1145,-2.0857,-2.2331,-2.2847,-2.2814,-2.4646,-2.6002,-2.7034,-2.8267,-2.9448,-3.0597,-3.082,0.0,0.0,0.0,0.0,0.0,0.0,0.0,-2.833,-2.8096,-2.7689,-2.7413,0.0,0.0,0.0,0.0,0.0,0.0,0.0,0.0,0.0,0.0,-4.5423,-4.6066,-4.7324,-4.733,-4.7629,-4.9096,-4.96,-5.0035,-5.074,-5.1012,-5.0951,-5.0386,-5.0303,-5.0051,-4.9676,-4.934,-4.8911,-4.8511,-4.8591,-4.8704,-4.8831,-4.9025,-4.9427,-4.983,-4.9481,-4.8873,-4.8076,-4.7724,-4.7374,-4.712,-4.7162,-4.777,-4.8709,-4.8123,-4.8708,-5.0197,-5.0312,-5.0736,-5.1379,-5.1158,-5.1329,-5.1576,-5.0925,-5.0537,-5.027,-4.9646,-4.9273,-4.9107,0.0,0.0,0.0,0.0,0.0,0.0,0.0,0.0,0.0,-1.3418,-1.3265,-1.3423,-1.4122,-1.4697,-1.5391,0.0,0.0,0.0,-1.8911,0.0,0.0,-1.6261,-1.4916,-1.416,-1.4036,-1.3251,-1.3246,-1.4064,-1.4434,-1.495,-1.5557,-1.6938,-1.8028,-1.8846,-2.0024,-2.0797,-2.1311,-2.2028,-2.2549,-2.311,-2.4854,-2.6065,-2.7016,-2.8456,-2.9862,-3.0987,-3.1113,-3.1629,-3.2239,-3.1827,0.0,0.0,0.0,0.0,-2.9379,-2.9077,-2.8898,-2.8902,0.0,0.0,0.0,0.0,0.0,0.0,0.0,0.0,0.0,0.0,0.0,0.0,-4.8299,-4.8051,-4.8263,-5.0167,-5.0413,-5.0643,-5.1275,-5.1561,-5.1544,-5.1032,-5.0986,-5.1057,-5.126,-5.0864,-5.0409,-5.0132,-5.0064,-5.0084,-5.0246,-5.0645,-5.1027,-5.1467,-5.1141,-5.0526,-4.9672,-4.9015,-4.8662,-4.8564,-4.8733,-4.944,-5.0579,-4.9795,-5.0056,-5.1104,-5.0884,-5.1289,-5.2009,-5.1713,-5.1959,-5.2524,-5.1913,-5.1521,-5.1225,-5.0982,-5.0336,-4.9481,0.0,0.0,0.0,0.0,0.0,0.0,0.0,0.0,0.0,0.0,-1.4422,-1.4745,-1.5218,-1.5897,-1.6625,-1.7281,-1.8382,-1.9109,0.0,0.0,0.0,-1.5063,-1.4261,-1.3842,-1.3857,-1.3345,-1.3528,-1.4412,-1.4614,-1.5036,-1.5702,-1.6885,-1.7932,-1.8838,-1.975,-2.0369,-2.0779,-2.1598,-2.2091,-2.2508,-2.4536,-2.6001,-2.7158,-2.893,-3.0316,-3.1377,-3.1854,-3.2479,-3.3044,-3.2904,-3.297,0.0,0.0,0.0,-3.0759,-3.0003,-3.0001,0.0,0.0,0.0,0.0,0.0,0.0,0.0,0.0,0.0,0.0,0.0,0.0,0.0,-4.8392,-4.8543,-4.9108,-5.0731,-5.0587,-5.0731,-5.2072,-5.1772,-5.1538,-5.1824,-5.1766,-5.1684,-5.1751,-5.1511,-5.1234,-5.0891,-5.1092,-5.1433,-5.1779,-5.1955,-5.2253,-5.2673,-5.2327,-5.1747,-5.0974,-5.0833,-5.0785,-5.0783,-5.116,-5.1828,-5.2791,-5.234,-5.2064,-5.2114,-5.257,-5.3075,-5.3531,-5.3456,-5.3456,-5.3483,-5.2305,-5.184,-5.1643,-5.0526,-5.0244,-5.046,0.0,0.0,0.0,0.0,0.0,0.0,0.0,0.0,0.0,0.0,0.0,-1.5995,-1.634,-1.704,-1.7785,-1.8443,-1.9126,0.0,0.0,0.0,0.0,-1.5354,-1.4327,-1.3805,-1.3861,-1.3189,-1.3411,-1.4484,-1.4794,-1.5305,-1.6109,-1.704,-1.7902,-1.8707,-1.924,-1.9941,-2.0708,-2.1473,-2.2262,-2.3236,-2.5201,-2.7279,-2.9195,-3.0036,-3.1608,-3.3323,-3.2988,-3.3241,-3.3669,-3.3479,-3.3428,-3.325,-3.2521,0.0,0.0,0.0,0.0,0.0,0.0,0.0,0.0,0.0,0.0,0.0,0.0,0.0,0.0,0.0,0.0,0.0,0.0,-4.9101,-4.9535,-5.1104,-5.0982,-5.091,-5.1823,-5.1826,-5.1821,-5.2165,-5.2337,-5.256,-5.2973,-5.2952,-5.2732,-5.2391,-5.2843,-5.3182,-5.314,-5.3436,-5.3563,-5.3495,-5.3154,-5.2673,-5.2189,-5.2119,-5.2119,-5.2189,-5.2859,-5.3203,-5.3197,-5.3864,-5.3611,-5.2671,-5.318,-5.3395,-5.3413,-5.3702,-5.3672,-5.3422,-5.283,-5.2358,-5.188,-5.1291,-5.1033,-5.1087,0.0,0.0,0.0,0.0,0.0,0.0,0.0,0.0,0.0,0.0,0.0,-1.7239,-1.7476,0.0,0.0,0.0,-1.9824,0.0,0.0,0.0,0.0,0.0,-1.4557,-1.401,-1.3906,-1.3474,-1.3733,-1.4757,-1.519,-1.5718,-1.6419,-1.7356,-1.7962,-1.8315,-1.8741,-1.9487,-2.0475,-2.1374,-2.243,-2.3727,-2.646,-2.8927,-3.1129,-3.2198,-3.3896,-3.5567,-3.4762,-3.4725,-3.496,-3.435,-3.4016,-3.3751,-3.2895,-3.2518,0.0,0.0,0.0,0.0,0.0,0.0,0.0,0.0,0.0,0.0,0.0,0.0,0.0,0.0,0.0,0.0,0.0,0.0,0.0,-5.1536,-5.1345,-5.1154,-5.1824,-5.213,-5.2284,-5.2585,-5.3017,-5.3495,-5.4039,-5.4045,-5.3968,-5.374,-5.4082,-5.4322,-5.4437,-5.4571,-5.4623,-5.4511,-5.4174,-5.3768,-5.3402,-5.3402,-5.3495,-5.3563,-5.4133,-5.4257,-5.4099,-5.493,-5.4583,-5.3423,-5.3668,-5.3592,-5.3293,-5.3528,-5.3446,-5.3167,-5.2992,-5.2535,-5.2024,-5.187,-5.1639,-5.1431,0.0,0.0,0.0,0.0,0.0,0.0,0.0,0.0,0.0,0.0,0.0,-1.84,-1.8666,-1.9431,-1.9951,-2.0063,-2.0543,0.0,0.0,0.0,0.0,0.0,0.0,0.0,-1.3906,-1.444,-1.4989,-1.5517,-1.5937,-1.6211,-1.633,-1.7918,-1.824,-1.7524,-1.841,-1.908,-1.9656,-2.1286,-2.233,-2.3286,-2.8177,-3.0762,-3.2165,-3.5896,-3.7566,-3.7813,-3.7475,-3.751,-3.7469,-3.5948,-3.5287,-3.502,-3.4128,-3.36,-3.323,0.0,0.0,0.0,0.0,0.0,0.0,0.0,0.0,0.0,0.0,0.0,0.0,0.0,0.0,0.0,0.0,0.0,0.0,0.0,-5.1742,-5.1642,-5.2862,-5.2909,-5.2998,-5.341,-5.4039,-5.4443,-5.4511,-5.4259,-5.4184,-5.4511,-5.4076,-5.4281,-5.5575,-5.537,-5.5415,-5.5973,-5.567,-5.5313,-5.4887,-5.4887,-5.5087,-5.5472,-5.4805,-5.5174,-5.6513,-5.5548,-5.4934,-5.469,-5.45,-5.4149,-5.3723,-5.337,-5.3219,-5.3167,-5.2383,-5.2024,-5.1947,-5.1562,-5.1431,-5.1431,0.0,0.0,0.0,0.0,0.0,0.0,0.0,0.0,0.0,0.0,0.0,0.0,0.0,-1.9669,-2.0289,-2.0459,-2.1114,0.0,0.0,0.0,0.0,0.0,0.0,0.0,-1.5501,-1.6046,-1.664,-1.7188,-1.777,-1.7969,-1.7846,-1.8254,-1.8088,-1.7452,-1.8812,-2.0142,-2.1471,-2.2489,-2.4367,-2.6893,-2.986,-3.2765,-3.5564,-3.7726,-3.9335,-4.0385,-4.0539,-3.9667,-3.8423,-3.8391,-3.7763,-3.6739,-3.5366,-3.4849,-3.4678,-3.4368,-3.4994,0.0,0.0,0.0,0.0,0.0,0.0,0.0,0.0,0.0,0.0,0.0,0.0,0.0,0.0,0.0,0.0,0.0,0.0,-5.18,-5.2461,-5.2798,-5.3222,-5.4039,-5.4374,-5.4866,-5.5789,-5.5484,-5.5572,-5.6455,-5.6158,-5.6424,-5.7476,-5.7048,-5.694,-5.7404,-5.6888,-5.6497,-5.634,-5.634,-5.6275,-5.6263,-5.6147,-5.6352,-5.6703,-5.5828,-5.5421,-5.5236,-5.4328,-5.354,-5.2893,-5.285,-5.2688,-5.2383,-5.21,-5.187,-5.1562,-5.1431,-5.1562,-5.1716,0.0,0.0,0.0,-2.0521,0.0,-1.97,-1.9416,-1.9594,-1.9681,-1.9545,0.0,0.0,0.0,0.0,-2.1269,-2.1661,-2.1639,-2.1298,-2.0535,-1.97,0.0,0.0,0.0,0.0,-1.7186,-1.7929,-1.8462,-1.8826,-1.9462,-1.9429,-1.8779,-1.8564,-1.7838,-1.6801,-1.8218,-1.9521,-2.0779,-2.2598,-2.5035,-2.7994,-3.2057,-3.5308,-3.8046,-4.0648,-4.2272,-4.323,-4.3804,-4.2629,-4.0923,-4.108,-4.0148,-3.8652,-3.7068,-3.6231,-3.5769,-3.5654,-3.6197,0.0,-3.9102,0.0,0.0,0.0,0.0,0.0,0.0,0.0,0.0,0.0,0.0,0.0,0.0,0.0,0.0,0.0,0.0,0.0,-5.2671,-5.3368,-5.4071,-5.4759,-5.5244,-5.5831,-5.6686,-5.65,-5.6798,-5.802,-5.7761,0.0,-5.922,-5.8344,-5.7948,-5.8181,-5.774,-5.7505,-5.7661,-5.7661,-5.7468,-5.7146,-5.7097,-5.7117,-5.7251,-5.6314,-5.5807,-5.5754,-5.4254,-5.3293,-5.2668,-5.2471,-5.223,-5.2024,-5.187,-5.1639,-5.1431,-5.1431,-5.1639,-5.1947,-2.2123,-2.2452,-2.2535,-2.1006,-2.0743,-2.0689,-2.0416,-2.0649,-2.0822,-2.0818,0.0,0.0,0.0,0.0,0.0,-2.3548,-2.2198,-2.128,-2.1346,-1.9753,0.0,0.0,0.0,0.0,-1.8863,-1.9928,-2.0475,-2.0417,-2.0942,-2.0462,-1.9079,-1.8784,-1.7556,-1.553,-1.6638,-1.7074,-1.7301,-2.1552,-2.4285,-2.6402,-3.4619,-3.8351,-3.9475,-4.4827,-4.6546,-4.6212,-4.7179,-4.657,-4.5046,-4.3905,-4.2371,-4.0692,-3.9285,-3.7698,-3.6405,-3.6632,-3.7294,-3.8156,0.0,0.0,0.0,0.0,0.0,0.0,0.0,0.0,0.0,0.0,0.0,0.0,0.0,0.0,0.0,0.0,0.0,0.0,0.0,-5.4787,-5.5616,-5.5612,-5.6549,-5.7203,-5.7262,-5.7298,-5.7829,-5.9132,-5.8609,-5.8985,-6.0648,-5.9215,-5.8326,-5.8193,-5.825,-5.8373,-5.8739,-5.8704,-5.8578,-5.8198,-5.7587,-5.7656,-5.8362,-5.6866,-5.6232,-5.6047,-5.4472,-5.3596,-5.3167,-5.233,-5.2,-5.1947,-5.1562,-5.1431,-5.1431,-5.1431,-5.1639,-5.2024,-2.372,-2.3265,-2.2814,-2.2432,-2.2379,-2.2426,-2.2314,-2.2814,-2.3078,0.0,0.0,0.0,-2.2445,-2.2699,-2.3101,-2.3633,-2.327,-2.2735,-2.2159,-2.1438,-2.0628,-1.9762,-2.0098,-2.0477,-2.0731,-2.2103,-2.2859,-2.3069,-2.3085,-2.2387,-2.0926,-1.9062,-1.7232,-1.5467,-1.5124,-1.5998,-1.8043,-2.1555,-2.6547,-3.2309,-3.5236,-3.9467,-4.4269,-4.6285,-4.7581,-4.844,-4.9807,-4.8524,-4.6196,-4.6514,-4.4877,-4.2345,-4.0106,-3.835,-3.7155,-3.7237,-3.7745,-3.8475,-3.9381,0.0,0.0,0.0,0.0,0.0,0.0,0.0,0.0,0.0,0.0,0.0,0.0,0.0,0.0,0.0,0.0,0.0,0.0,-5.4629,-5.5293,-5.6259,-5.6884,-5.7672,-5.8754,-5.8627,-5.9122,0.0,-5.9907,-6.0086,-6.1543,-6.0414,-5.9299,-5.8625,-5.8813,-5.8973,-5.9083,-5.929,-5.9267,-5.892,-5.8824,-5.8506,-5.7957,-5.7216,-5.6448,-5.5681,-5.4304,-5.3312,-5.2688,-5.187,-5.1562,-5.1562,-5.1431,-5.1431,-5.1431,-5.1431,-5.1639,-5.1947,-2.4158,-2.3804,-2.3557,-2.3589,-2.365,-2.3715,-2.3877,-2.4359,-2.4589,0.0,0.0,0.0,-2.4105,-2.4368,-2.4556,-2.4602,-2.4076,-2.353,-2.3046,-2.222,-2.1602,-2.1124,-2.1301,-2.1748,-2.2478,-2.3722,-2.443,-2.4657,-2.467,-2.4192,-2.3118,-2.0629,-1.8621,-1.7034,-1.6535,-1.7621,-1.9993,-2.2486,-2.7441,-3.4021,-3.8299,-4.2477,-4.6409,-4.8372,-4.9476,-5.0221,-5.1489,-5.0286,-4.8137,-4.8244,-4.6368,-4.3524,-4.1362,-4.0159,-3.9517,-3.9021,-3.9404,-4.0057,-4.0624,-4.1539,-4.2499,-4.3333,0.0,0.0,0.0,-4.5103,0.0,0.0,0.0,0.0,0.0,0.0,0.0,0.0,0.0,0.0,0.0,0.0,-5.612,-5.7228,-5.7829,-5.8602,-5.9729,-5.9783,-6.0441,-6.2127,-6.1546,-6.1261,-6.1639,-6.0694,-5.9797,-5.8957,-5.9217,-5.9443,-5.9611,-5.994,-5.9887,-5.942,-5.9045,-5.8445,-5.7651,-5.6868,-5.6031,-5.5211,-5.4131,-5.3384,-5.2764,-5.1947,-5.1562,-5.1431,-5.1431,-5.1431,-5.1431,-5.1431,-5.1639,-5.1947,0.0,-2.4288,-2.4603,-2.4621,-2.472,-2.4796,-2.5127,-2.5486,-2.5612,0.0,-2.5948,-2.6381,-2.6432,-2.6813,-2.6867,-2.6206,-2.4915,-2.4175,-2.4154,-2.2808,-2.2225,-2.2662,-2.2319,-2.2768,-2.4168,-2.5002,-2.555,-2.5809,-2.6013,-2.5831,-2.524,-2.2758,-2.0776,-1.9212,-1.9344,-2.0476,-2.2427,-2.4465,-2.8332,-3.3824,-4.1957,-4.5768,-4.6998,-5.0459,-5.1661,-5.1513,-5.2311,-5.1652,-5.0244,-4.9142,-4.7036,-4.4495,-4.2863,-4.2513,-4.2498,-4.1324,-4.1595,-4.2311,-4.2526,-4.318,-4.3901,-4.4264,-4.4514,0.0,-4.5656,-4.5435,-4.5553,0.0,0.0,0.0,0.0,0.0,0.0,0.0,0.0,0.0,0.0,0.0,0.0,-5.826,-5.9103,-5.9855,-6.0481,-6.0815,-6.1733,-6.3475,-6.3136,-6.2333,-6.1177,-6.0471,-5.9866,-5.9339,-5.9589,-5.9946,-6.0324,-6.0605,-6.0467,-5.9815,-5.8871,-5.8116,-5.7531,-5.6418,-5.5487,-5.4791,-5.4227,-5.3672,-5.3143,-5.2383,-5.187,-5.1431,-5.1431,-5.1431,-5.1431,-5.1431,-5.1639,-5.1947,-2.5211,-2.5349,-2.5622,-2.5632,-2.5887,-2.6109,-2.6194,-2.6747,-2.7098,-2.7046,-2.7635,-2.8247,-2.8563,-2.8379,-2.8372,-2.8547,-2.7199,-2.6416,-2.655,-2.5354,-2.4563,-2.4353,-2.4196,-2.4686,-2.5903,-2.648,-2.7388,-2.8531,-2.8279,-2.7321,-2.5776,-2.3145,-2.1032,-1.9352,-1.9194,-2.0634,-2.3467,-2.8798,-3.3553,-3.769,-3.9918,-4.3987,-4.884,-5.0934,-5.1834,-5.2104,-5.2742,-5.1856,-5.0043,-4.8074,-4.6627,-4.536,-4.4136,-4.3564,-4.3241,-4.2417,-4.2798,-4.3422,-4.3246,-4.4367,-4.5515,-4.512,-4.5678,0.0,-4.5099,-4.4948,-4.5173,0.0,0.0,0.0,0.0,0.0,0.0,0.0,0.0,0.0,0.0,0.0,0.0,0.0,-5.994,-6.0855,-6.1885,-6.2234,-6.2812,-6.3766,-6.3381,-6.2601,-6.1385,-6.053,-6.0031,-5.9921,-6.0072,-6.038,-6.1027,-6.1053,-6.1001,-6.0722,-6.0286,-5.9347,-5.7958,-5.7965,-5.6882,-5.4967,-5.4843,-5.4122,-5.3167,-5.2688,-5.223,-5.187,-5.1485,-5.1431,-5.1431,-5.1431,-5.1431,-5.1485,-2.5766,-2.5806,-2.6062,-2.6658,-2.6883,-2.7133,-2.7504,-2.8157,-2.8508,-2.8394,-2.965,-3.0622,-3.0628,-3.0795,-3.0666,-3.0166,-2.9128,-2.8272,-2.7774,-2.7158,-2.6598,-2.6056,-2.6243,-2.6658,-2.7199,-2.8284,-2.9291,-3.0162,-3.0089,-2.9546,-2.8473,-2.5822,-2.3495,-2.1643,-2.2148,-2.3663,-2.6199,-3.0125,-3.4878,-4.0037,-4.2625,-4.6189,-5.0104,-5.129,-5.1886,-5.2154,-5.2139,-5.1007,-4.939,-4.8179,-4.7399,-4.6718,-4.5548,-4.5574,-4.5818,-4.4628,-4.4877,-4.5431,-4.5063,-4.5805,-4.6725,-4.672,-4.6684,0.0,0.0,-4.5915,-4.5747,-4.6578,0.0,0.0,0.0,0.0,0.0,0.0,0.0,0.0,0.0,0.0,0.0,0.0,-6.0586,-6.1519,-6.2364,-6.3195,-6.3849,-6.4165,-6.3849,-6.312,-6.1862,-6.1049,-6.0646,-6.0711,-6.077,-6.124,-6.208,-6.1997,-6.1826,-6.1815,-6.0706,-5.9511,-5.8221,-5.751,-5.6514,-5.5161,-5.4844,-5.4347,-5.3747,-5.2892,-5.2459,-5.223,-5.1639,-5.1431,-5.1431,-5.1431,-5.1431,-5.1308,-2.6237,-2.6282,-2.6693,-2.7478,-2.7774,-2.8053,-2.8535,-2.9287,-2.9868,-2.9905,-3.1653,-3.2908,-3.2954,-3.3539,-3.3529,-3.2636,-3.1552,-3.0567,-2.9758,-2.9413,-2.9044,-2.8649,-2.8842,-2.9117,-2.9318,-3.0423,-3.1227,-3.1756,-3.1865,-3.1649,-3.1043,-2.8476,-2.604,-2.397,-2.4887,-2.6538,-2.8672,-3.0533,-3.5586,-4.2678,-4.6651,-4.8977,-5.0133,-5.1186,-5.1675,-5.1646,-5.1116,-5.027,-4.9329,-4.8837,-4.8553,-4.8212,-4.7205,-4.7683,-4.8352,-4.6849,-4.7043,-4.7604,-4.71,-4.7538,-4.8121,-4.8179,-4.7672,-4.7262,0.0,0.0,0.0,-4.7819,0.0,0.0,0.0,0.0,0.0,0.0,0.0,0.0,0.0,0.0,0.0,0.0,-6.0992,-6.1901,-6.2658,-6.3787,-6.4576,-6.4672,-6.4247,-6.3523,-6.2623,-6.1743,-6.1433,-6.186,-6.1686,-6.2182,-6.3256,-6.2943,-6.2805,-6.2726,-6.1015,-5.9632,-5.859,-5.7066,-5.6091,-5.5494,-5.4967,-5.462,-5.4322,-5.3271,-5.2764,-5.2612,-5.1716,-5.1431,-5.1431,-5.1431,-5.1431,-5.1285,-2.7099,-2.7632,-2.8166,-2.7702,-2.8385,-2.8941,-2.8727,-2.9511,-3.0736,-3.2384,-3.3436,-3.4632,-3.6044,-3.663,-3.7158,-3.7708,-3.581,-3.4694,-3.4827,-3.3502,-3.2916,-3.3491,-3.2615,-3.2765,-3.4089,-3.3156,-3.3175,-3.4383,-3.3899,-3.2795,-3.1067,-2.8855,-2.6431,-2.4021,-2.4196,-2.5798,0.0,0.0,-3.8679,-4.7351,-4.9393,-4.9026,-4.7663,-5.0238,-5.0926,-5.0489,-5.0238,-5.0777,-5.1321,-5.0256,-4.985,-4.966,-4.9219,-4.9112,-4.8982,-4.8191,-4.8655,-4.9401,-4.8916,-4.9801,-5.0408,-4.8647,-4.9075,-4.9373,-4.7092,0.0,-4.7128,-4.7413,0.0,0.0,0.0,0.0,0.0,0.0,0.0,0.0,0.0,0.0,0.0,0.0,-6.1009,-6.1948,-6.3362,-6.3928,-6.4511,-6.5162,-6.4124,-6.3606,-6.3849,-6.2402,-6.2146,-6.3479,-6.2693,-6.2925,-6.4324,-6.3683,-6.3346,-6.3296,-6.1883,-6.0575,-5.9478,-5.8578,-5.7421,-5.6118,-5.6022,-5.5386,-5.4322,-5.3897,-5.3446,-5.3015,-5.187,-5.1431,-5.1431,-5.1431,-5.1431,-5.1254,-2.78,-2.8154,-2.8658,-2.8765,-2.9386,-2.9906,-3.0139,-3.1764,-3.3434,-3.4616,-3.6093,-3.7575,-3.8688,-3.919,-3.979,-4.0468,-3.922,-3.8122,-3.7554,-3.6707,-3.6454,-3.6934,-3.6247,-3.6232,-3.7176,-3.6329,-3.6214,-3.6935,-3.6227,-3.4945,-3.3099,-3.0836,-2.8142,-2.5231,-2.5378,0.0,-3.0004,0.0,-3.7154,0.0,-4.9264,-5.0878,-5.1113,-5.3275,-5.2731,-5.0665,-5.0139,-5.0233,-5.0478,-5.0192,-5.009,-5.012,-5.0201,-5.0201,-5.0089,-4.9778,-4.9896,-5.0079,-4.9714,-5.0347,-5.076,-4.952,-4.9549,-4.9553,-4.8022,-4.7799,-4.8122,-4.8702,0.0,0.0,0.0,0.0,0.0,0.0,-5.5118,0.0,0.0,0.0,0.0,0.0,0.0,0.0,-6.4183,-6.4276,-6.4421,-6.4848,-6.425,-6.3901,-6.3979,-6.3224,-6.3412,-6.4767,-6.3667,-6.3779,-6.522,-6.4454,-6.403,-6.3951,-6.2595,-6.1339,-6.0219,-5.9061,-5.7999,-5.7138,-5.651,-5.5754,-5.5016,-5.4197,-5.3446,-5.2764,-5.2024,-5.1716,-5.1716,-5.1716,-5.1485,-5.0898,-2.8817,-2.8964,-2.9305,-2.9672,-3.0393,-3.1276,-3.2294,-3.4194,-3.5772,-3.6574,-3.8336,-3.9884,-4.1039,-4.1577,-4.223,-4.3041,-4.2313,-4.159,-4.0744,-4.0053,-4.0126,-4.1049,-4.0214,-4.0152,-4.0937,-3.9941,-3.9588,-3.9861,-3.8536,-3.6949,-3.5064,-3.2582,-2.9693,-2.6537,-2.6675,-2.8528,-3.1812,0.0,-3.9119,-4.7719,-5.3071,-5.6428,-5.8155,-5.7032,-5.4652,-5.183,-5.1023,-5.0731,-5.0789,-5.1088,-5.1268,-5.1485,-5.1644,-5.1663,-5.1669,-5.1426,-5.1292,-5.1146,-5.0755,-5.1144,-5.1336,-5.0102,-4.9858,-4.9692,-4.8754,-4.8658,-4.9023,-4.9831,-5.069,0.0,0.0,0.0,-5.3432,-5.4636,0.0,-5.5878,0.0,0.0,0.0,0.0,0.0,0.0,0.0,-6.4153,-6.4096,-6.4569,-6.4207,-6.4014,-6.4175,-6.402,-6.4465,-6.5706,-6.4747,-6.4742,-6.5923,-6.5136,-6.4661,-6.4389,-6.298,-6.1761,-6.0797,-5.9342,-5.8381,-5.7856,-5.6946,-5.6146,-5.5411,-5.4496,-5.3596,-5.2764,-5.2459,-5.2154,-5.1847,-5.1693,-5.1331,-5.0588,-3.0229,-3.0479,-3.0565,-2.9931,-3.1303,-3.3162,-3.5004,-3.604,-3.706,-3.8246,-3.9605,-4.1128,-4.2843,-4.3755,-4.4724,-4.5984,-4.5366,-4.5137,-4.548,-4.3856,-4.394,-4.6439,-4.4855,-4.4692,-4.6398,-4.4277,-4.3187,-4.3335,-4.0823,-3.8492,-3.6295,-3.3511,-3.0584,-2.7637,-2.7506,-2.9558,-3.3494,-3.8714,-4.7881,-5.9264,-6.3779,-6.7348,-6.8931,-6.0546,-5.6042,-5.4079,-5.314,-5.3099,-5.3593,-5.3698,-5.414,-5.4593,-5.416,-5.4019,-5.3832,-5.2972,-5.3116,-5.3281,-5.2489,-5.2855,-5.2855,-5.0178,-5.0118,-5.0329,-4.8861,-4.9019,-4.9652,-5.0359,-5.0972,-5.1547,-5.1939,-5.2563,-5.3246,-5.4005,-5.5229,0.0,0.0,0.0,0.0,0.0,0.0,0.0,0.0,-6.3316,-6.3525,0.0,-6.3851,-6.386,-6.4811,-6.4864,-6.5292,-6.6268,-6.5995,-6.5954,-6.6171,-6.5629,-6.5053,-6.4389,-6.298,-6.1923,-6.1234,-5.9718,-5.8664,-5.7856,-5.7523,-5.651,-5.5041,-5.4967,-5.4296,-5.3143,-5.3167,-5.2459,-5.1385,-5.1021,-5.0789,-5.0633,-3.1846,-3.1903,-3.1818,-3.1267,-3.219,-3.3946,-3.67,-3.8266,-3.9815,-4.1658,-4.2544,-4.3719,-4.5421,-4.6086,-4.6922,-4.7926,-4.8193,-4.8088,-4.7937,-4.8093,-4.8852,-5.0254,-4.97,-4.9699,-5.0614,-4.8257,-4.7151,-4.7254,-4.4121,-4.2112,-4.1131,-3.6389,-3.3163,-3.1253,-2.9925,-3.171,0.0,0.0,0.0,0.0,0.0,-7.1946,-7.4093,-6.4999,-5.9151,-5.5861,-5.5061,-5.4405,-5.407,-5.5102,-5.5632,-5.5894,-5.5922,-5.5507,-5.4993,-5.4646,-5.4256,-5.3838,-5.336,-5.3555,-5.3527,-5.1729,-5.1471,-5.1293,-4.9909,-5.0083,-5.0502,-5.0685,-5.1357,-5.1977,-5.2185,-5.2563,-5.2945,-5.3301,-5.3987,-5.4794,0.0,0.0,0.0,0.0,0.0,0.0,0.0,0.0,0.0,0.0,-6.4167,0.0,-6.5225,-6.4806,-6.5299,-6.7068,-6.6035,-6.5655,-6.6143,-6.5616,-6.4935,-6.4082,-6.3135,-6.222,-6.1234,-5.9996,-5.9158,-5.8664,-5.781,-5.6801,-5.5779,-5.5189,-5.4122,-5.2764,-5.2535,-5.1847,-5.1021,-5.1153,-5.0533,-4.928,-3.3491,-3.3423,-3.3263,-3.2702,-3.4022,-3.6014,-3.8695,-4.0747,-4.2581,-4.414,-4.4985,-4.6039,-4.7441,-4.8096,-4.8709,-4.9613,-5.0387,-5.0809,-5.0887,-5.1545,-5.2625,-5.4157,-5.379,-5.4034,-5.4885,-5.2738,-5.1347,-5.091,-4.7449,-4.5236,-4.4121,-3.8578,-3.539,-3.4233,-3.2696,-3.4811,-3.9707,-4.4488,-5.1874,0.0,0.0,-7.6322,-7.7188,-6.959,-6.3378,-5.8513,-5.7347,-5.6311,-5.5689,-5.6863,-5.7506,-5.786,-5.7757,-5.727,-5.6566,-5.6128,-5.5392,-5.4658,-5.4177,-5.423,-5.4005,-5.2429,-5.2221,-5.1925,-5.0507,-5.0651,-5.105,-5.101,-5.1506,-5.2031,-5.2513,-5.2368,-5.2401,-5.3067,-5.3257,-5.3793,0.0,-5.6749,0.0,0.0,0.0,0.0,0.0,0.0,-6.3922,-6.3947,-6.4006,0.0,0.0,-6.4732,-6.5204,-6.6415,-6.5996,-6.567,-6.5562,-6.5429,-6.4845,-6.3698,-6.3179,-6.242,-6.1438,-6.0204,-5.9368,-5.8806,-5.781,-5.6801,-5.5705,-5.5016,-5.3897,-5.2512,-5.2,-5.1308,-5.0555,-5.0533,-4.9516,-4.8034,-3.5196,-3.5248,-3.5056,-3.4301,-3.6685,-3.9238,-4.0939,-4.333,-4.5209,-4.5809,-4.6989,-4.8145,-4.9005,-4.9584,-5.0166,-5.1014,-5.2072,-5.3147,-5.432,-5.4282,-5.5319,-5.804,-5.735,-5.7677,-5.9281,-5.7357,-5.577,-5.4413,-5.0857,-4.7917,-4.5555,-4.0049,-3.7205,-3.6646,-3.5967,0.0,-4.4391,-5.2189,-6.1011,-7.0394,-7.8292,-8.0438,-7.8366,-7.3988,-6.8152,-6.2043,-6.0057,-5.8907,-5.8518,-5.9076,-5.992,-6.0566,-5.9632,-5.9092,-5.8578,-5.7359,-5.65,-5.579,-5.4851,-5.4797,-5.4488,-5.2404,-5.2306,-5.2276,-5.0672,-5.0803,-5.1317,-5.1395,-5.1473,-5.1827,-5.2908,-5.2134,-5.1826,-5.3259,-5.3016,-5.32,-5.4792,0.0,0.0,0.0,0.0,0.0,0.0,0.0,-6.3712,-6.3343,-6.3489,0.0,0.0,-6.4694,-6.5034,-6.4591,-6.5918,-6.5963,-6.4608,-6.5102,-6.4726,-6.3392,-6.3049,-6.2487,-6.1721,-6.0219,-5.9202,-5.8452,-5.7641,-5.6485,-5.4967,-5.4546,-5.3624,-5.2512,-5.1647,-5.0821,-4.9987,-4.9144,-4.8034,-4.6933,-3.7685,-3.8485,-3.9169,-3.9294,-3.9425,-4.0412,-4.3101,-4.4374,-4.5731,-4.7888,-4.874,-4.9547,-5.0372,-5.159,-5.236,-5.2629,-5.4125,-5.5327,-5.5989,-5.8035,-5.9792,-6.0776,-6.1516,-6.2099,-6.2753,-6.0319,-5.8999,-5.9014,-5.4413,-5.2184,-5.2012,-4.3835,-4.0745,-4.2052,0.0,0.0,-4.8356,-5.6242,-6.6396,-7.7292,-7.9452,-7.9172,-7.6961,-7.2802,-6.8562,-6.4723,-6.3047,-6.1466,-6.0237,-6.1357,-6.2074,-6.2288,-6.1316,-6.0119,-5.9044,-5.8198,-5.687,-5.5526,-5.5007,-5.4627,-5.4148,-5.3331,-5.2854,-5.2478,-5.2036,-5.204,-5.2187,-5.215,-5.2335,-5.2523,-5.2461,-5.218,-5.1956,-5.1895,-5.2707,-5.3394,-5.3588,-5.578,0.0,-5.7636,0.0,0.0,0.0,-6.3168,-6.3579,-6.345,-6.3919,-6.4195,-6.4247,-6.4349,-6.4467,-6.4604,-6.5239,-6.5148,-6.4319,-6.4988,-6.4726,-6.3392,-6.3049,-6.2354,-6.1343,-5.9747,-5.8805,-5.8426,-5.6918,-5.5962,-5.5361,-5.4008,-5.2961,-5.2054,-5.0796,-4.9474,-4.823,-4.8012,-4.7293,-4.6407,-4.0428,-4.1292,-4.2281,-4.3315,-4.2882,-4.307,-4.4926,-4.6126,-4.7505,-4.9625,-5.0851,-5.179,-5.2182,-5.3765,-5.465,-5.4432,-5.6317,-5.7809,-5.8534,-6.1014,-6.2907,-6.3927,-6.4867,-6.5601,-6.6005,-6.4003,-6.2538,-6.1724,-5.7505,-5.4936,-5.3732,0.0,0.0,0.0,0.0,-4.5927,-5.179,-6.1929,-7.1112,-7.8943,-7.8922,-7.7727,0.0,-7.2128,-6.9145,-6.6698,-6.6124,-6.4411,-6.2491,-6.3354,-6.3892,-6.3922,-6.2646,-6.135,-6.0033,-5.857,-5.7064,-5.5715,-5.4991,-5.458,-5.4157,-5.3551,-5.3248,-5.2825,-5.2133,-5.2052,-5.2145,-5.2107,-5.2078,-5.2144,-5.2209,-5.1617,-5.0938,-5.0474,-5.1359,-5.2248,-5.2573,-5.4449,0.0,0.0,-5.7981,0.0,-6.0812,-6.2092,-6.2925,-6.3275,-6.3332,-6.3542,0.0,-6.3775,-6.379,-6.393,-6.4365,-6.4288,-6.3616,-6.4385,-6.4124,-6.2774,-6.2753,-6.2086,-6.1002,-5.9311,-5.8464,-5.8115,-5.6198,-5.5171,-5.4843,-5.3203,-5.2068,-5.1175,-4.981,-4.8396,-4.7257,-4.7128,-4.6629,-4.5921,-4.338,-4.396,-4.4882,-4.6426,-4.6465,-4.6444,-4.6862,-4.8254,-4.9786,-5.1337,-5.3035,-5.419,-5.4303,-5.5974,-5.6903,-5.6471,-5.8469,-6.0275,-6.1534,-6.3389,-6.5214,-6.7016,-6.7569,-6.8277,-6.9018,-6.7656,-6.5779,-6.3469,-6.0326,-5.6965,-5.3451,0.0,0.0,0.0,0.0,0.0,0.0,-6.7838,-7.474,-7.7609,-7.7397,-7.6199,-7.4238,-7.16,-6.9435,-6.8001,-6.8898,-6.7354,-6.5022,-6.5383,-6.5621,-6.5471,-6.3891,-6.2586,-6.12,-5.8791,-5.7249,-5.6037,-5.4943,-5.4598,-5.4268,-5.3377,-5.3301,-5.3108,-5.1663,-5.1534,-5.1693,-5.164,-5.1337,-5.1259,-5.1822,-5.0612,-4.9538,-4.9253,-4.9761,-5.06,-5.1643,-5.2807,0.0,0.0,0.0,0.0,-5.8221,-6.0384,-6.1953,-6.2649,-6.2258,-6.2307,0.0,0.0,-6.2881,-6.2737,-6.3372,-6.3375,-6.2754,-6.3535,-6.3298,-6.1987,-6.223,-6.1749,-6.0564,-5.894,-5.8018,-5.7661,-5.5467,-5.4362,-5.3912,-5.2233,-5.0966,-4.9973,-4.8498,-4.7497,-4.6738,-4.6319,-4.588,-4.5454,-4.6041,-4.688,-4.7575,-4.7933,-4.861,-4.934,-5.0104,-5.0294,-5.0996,-5.323,-5.445,-5.5444,-5.6242,-5.763,-5.8582,-5.8771,-6.0553,-6.2181,-6.3436,-6.5451,-6.7368,-6.8993,-6.9664,-7.0507,-7.1534,-6.9272,-6.7224,-6.5467,-6.2499,-5.9496,-5.6496,-5.1524,0.0,0.0,0.0,0.0,-6.4786,-7.0857,0.0,-7.6634,-7.5686,-7.4337,-7.2552,-7.0268,-6.8789,-6.8144,-6.9965,-6.9265,-6.7448,-6.8061,-6.7759,-6.6884,-6.553,-6.3352,-6.1046,-5.9786,-5.7746,-5.5765,-5.5127,-5.4535,-5.3883,-5.2997,-5.2814,-5.2683,-5.1872,-5.1755,-5.1727,-5.1427,-5.1112,-5.0791,-5.0368,-4.9572,-4.9068,-4.9164,-4.9904,-5.0538,-5.0713,-5.2756,-5.3924,0.0,0.0,-5.6538,-5.618,-5.8869,-6.0808,-6.1083,-6.1327,-6.1481,0.0,0.0,-6.1445,0.0,-6.1997,-6.2218,-6.1755,-6.2972,-6.3051,-6.1987,-6.223,-6.1641,-6.0219,-5.8871,-5.7737,-5.687,-5.4967,-5.381,-5.3128,-5.1315,-4.9448,-4.7804,-4.6918,-4.6514,-4.6321,-4.5507,-4.4967,-4.4534,-4.9128,-4.9548,-4.9884,-5.0387,-5.1043,-5.1722,-5.2153,-5.2844,-5.3692,-5.4521,-5.6243,-5.7399,-5.7854,-5.9545,-6.0705,-6.058,-6.2323,-6.3882,-6.4896,-6.6963,-6.8965,-7.0697,-7.1621,-7.2414,-7.2941,-7.1305,-6.9234,-6.676,-6.4486,-6.1292,-5.7346,-5.4491,-5.2989,-5.2764,0.0,-6.0133,0.0,0.0,-7.4022,-7.5599,-7.5455,-7.4193,-7.2296,-7.1231,-7.0597,-7.0464,-7.1797,-7.1828,-7.1244,-7.0524,-6.9853,-6.8906,-6.654,-6.4487,-6.25,-6.025,-5.8194,-5.636,-5.585,-5.4851,-5.3909,-5.3499,-5.2935,-5.2336,-5.1709,-5.1017,-5.0381,-4.9995,-4.9474,-4.8924,-4.8387,-4.7807,-4.7549,-4.8008,-4.8489,-4.9035,-4.9759,-5.1023,-5.1869,0.0,0.0,0.0,0.0,-5.6679,0.0,0.0,0.0,0.0,0.0,0.0,-6.075,0.0,-6.1181,-6.121,-6.127,-6.1759,-6.1595,-6.0745,-6.0857,-6.0142,-5.8662,-5.7325,-5.6364,-5.5505,-5.3477,-5.2449,-5.209,-4.968,-4.7914,-4.6545,-4.5831,-4.5377,-4.5258,-4.4861,-4.428,-4.3746,-5.1537,-5.1532,-5.1611,-5.2138,-5.2815,-5.3235,-5.3447,-5.5222,-5.6442,-5.611,-5.7977,-5.9404,-5.9599,-6.1552,-6.28,-6.2514,-6.4358,-6.5949,-6.6921,-6.8831,-7.067,-7.2388,-7.3472,-7.4118,-7.4277,-7.3435,-7.1404,-6.825,-6.6582,-6.3274,-5.8503,-5.7605,-5.6652,-5.5935,-5.9575,0.0,-6.9204,-7.1501,-7.3505,-7.5011,-7.5417,-7.449,-7.2892,-7.2672,-7.2772,-7.2997,-7.3644,-7.4237,-7.4452,-7.2671,-7.1592,-7.0572,-6.7393,-6.5489,-6.3816,-6.0847,-5.8778,-5.7255,-5.6658,-5.5393,-5.4243,-5.3991,-5.3102,-5.2062,-5.1268,-4.9926,-4.878,-4.8305,-4.7389,-4.6568,-4.6186,-4.5921,-4.5789,-4.6109,-4.6549,-4.7173,-4.8203,-4.8932,-4.9615,0.0,0.0,0.0,-5.2875,0.0,0.0,0.0,0.0,0.0,-6.0203,-5.9589,-5.9709,-6.0835,-6.0085,-6.0042,-6.0757,-6.0551,-6.0109,-5.9495,-5.9456,-5.8604,-5.713,-5.6002,-5.5088,-5.4369,-5.2245,-5.1127,-5.0675,-4.8077,-4.6596,-4.5822,-4.4926,-4.4446,-4.4169,-4.3938,-4.3496,-4.2962,-5.24,-5.2538,-5.2613,-5.1914,-5.2606,-5.3541,-5.4371,-5.6604,-5.8246,-5.8571,-5.9559,-6.0739,-6.2011,-6.351,-6.4703,-6.532,-6.702,-6.8729,-7.0374,-7.1706,-7.3192,-7.4693,-7.5229,-7.5721,-7.6112,-7.5459,-7.3672,-7.0637,-6.9244,-6.6412,-6.2288,-6.1082,-6.0814,-6.1325,-6.337,-6.6465,-7.0329,-7.1844,-7.3747,-7.5584,-7.4531,-7.4338,-7.4532,-7.3653,-7.3763,-7.4378,-7.5052,-7.5367,-7.5242,-7.4124,-7.2754,-7.104,-6.8576,-6.6025,-6.3635,-6.1856,-5.9714,-5.7852,-5.7255,-5.609,-5.4885,-5.3904,-5.2923,-5.1868,-5.0393,-4.8961,-4.7657,-4.6823,-4.533,-4.4188,-4.4015,-4.4235,-4.4293,-4.3659,-4.4693,-4.5605,-4.5666,-4.7341,-4.8583,-4.8794,0.0,0.0,-5.005,-4.988,0.0,0.0,-5.5445,-5.7029,-5.7361,-5.6963,-5.7352,-5.8763,-5.8075,-5.8284,-5.9652,-5.976,-5.9577,-5.9174,-5.9062,-5.8268,-5.6814,-5.6003,-5.5051,-5.3967,-5.2208,-5.0412,-4.8592,-4.7208,-4.6151,-4.533,-4.4188,-4.3716,-4.362,-4.2447,-4.2242,-4.2351,-5.3543,-5.3056,-5.2769,-5.3254,-5.3751,-5.4379,-5.5429,-5.7072,-5.8873,-6.0569,-6.1618,-6.2665,-6.3731,-6.5035,-6.6143,-6.7017,-6.8385,-6.9656,-7.0799,-7.2131,-7.3357,-7.4551,-7.6359,-7.7139,-7.6912,-7.6951,-7.5375,-7.2219,-7.0628,-6.8092,-6.4904,-6.3932,-6.4064,-6.5227,-6.7087,-6.9552,-7.2517,-7.441,-7.5744,-7.667,-7.6842,-7.6788,-7.644,-7.6233,-7.6327,-7.6577,-7.6213,-7.6245,-7.6118,-7.4033,-7.2751,-7.1513,-6.8554,-6.628,-6.4273,-6.189,-5.9769,-5.8184,-5.7879,-5.6224,-5.4687,-5.4405,-5.2734,-5.0857,-4.9816,-4.7684,-4.5732,-4.492,-4.3501,-4.2418,-4.2695,-4.2476,-4.2319,-4.2527,-4.2832,-4.324,-4.3788,-4.4791,-4.5723,-4.6256,0.0,-4.7458,0.0,-4.8198,0.0,0.0,0.0,-5.4349,-5.5534,-5.5461,-5.5658,-5.6357,0.0,-5.6834,-5.7295,-5.7385,-5.7277,-5.6885,-5.6585,-5.5736,-5.4531,-5.421,-5.3183,-5.1559,-5.0412,-4.9119,-4.7575,-4.6374,-4.5555,-4.4955,-4.3691,-4.3106,-4.2847,-4.2328,-4.1773,-4.1219,-5.4198,-5.3499,-5.3014,-5.3751,-5.4113,-5.484,-5.6081,-5.7713,-5.9676,-6.2291,-6.3609,-6.459,-6.5606,-6.6717,-6.793,-6.8899,-7.0098,-7.1116,-7.1895,-7.2877,-7.3982,-7.5214,-7.724,-7.8218,-7.8029,-7.8539,-7.7417,-7.4436,-7.2775,-7.0547,-6.7843,-6.7002,-6.7155,-6.8364,-7.0278,-7.2394,-7.4656,-7.6499,-7.7574,-7.8076,-7.8745,-7.8709,-7.8278,-7.8425,-7.8452,-7.8154,-7.718,-7.6744,-7.6338,-7.3787,-7.2416,-7.1268,-6.8236,-6.6153,-6.4364,-6.1775,-5.973,-5.8319,-5.8243,-5.6488,-5.465,-5.4591,-5.2412,-4.9985,-4.9071,-4.65,-4.3945,-4.272,-4.1517,-4.0685,-4.0859,-4.0431,-4.0104,-4.0353,-4.0461,-4.0731,-4.123,-4.1959,-4.2696,-4.3453,-4.3777,-4.4328,-4.5243,-4.5649,0.0,0.0,-4.8858,-5.1017,-5.3305,-5.377,-5.4171,-5.4663,-5.5062,-5.5355,-5.5535,-5.5317,-5.5093,-5.4916,-5.4296,-5.3438,-5.2403,-5.2011,-5.1041,-4.9604,-4.9005,-4.8064,-4.6743,-4.5779,-4.5031,-4.4352,-4.3233,-4.2621,-4.2179,-4.1954,-4.1266,-4.0565,-5.402,-5.3822,-5.3412,-5.2713,-5.3209,-5.4457,-5.6443,-5.8447,-6.0749,-6.375,-6.5413,-6.6734,-6.7617,-6.8862,-7.0136,-7.1576,-7.2631,-7.3645,-7.45,-7.4772,-7.5662,-7.749,-7.8063,-7.8789,-7.9799,-8.0497,-7.983,-7.7866,-7.6443,-7.4352,-7.1625,-7.0341,-7.0136,-7.0824,-7.2958,-7.4815,-7.6523,-7.7529,-7.8739,-7.9909,-7.9293,-7.9419,-7.9922,-7.9658,-7.9352,-7.8941,-7.7855,-7.6829,-7.5714,-7.3633,-7.1775,-7.0037,-6.7682,-6.5535,-6.356,-6.1929,-5.9852,-5.82,-5.8526,-5.6979,-5.5093,-5.4123,-5.1825,-4.9427,-4.7871,-4.5318,-4.2597,-4.0053,-3.9297,-3.8919,-3.819,-3.8011,-3.7666,-3.6538,-3.7497,-3.8147,-3.7563,-3.8769,-3.9956,-4.0462,-4.0273,-4.0406,-4.1278,-4.1283,0.0,0.0,-4.4977,-4.714,-5.0261,-5.1758,-5.2915,-5.3803,-5.3308,-5.3646,-5.4884,-5.3988,-5.3643,-5.39,-5.2867,-5.1727,-5.0687,-4.9797,-4.9015,-4.84,-4.84,-4.7502,-4.6002,-4.5555,-4.4654,-4.3539,-4.2754,-4.2139,-4.1695,-4.0821,-4.0543,-4.0447,-5.4998,-5.4081,-5.3528,-5.3864,-5.3862,-5.4705,-5.7304,-5.8315,-6.0109,-6.4202,-6.602,-6.784,-7.0545,-7.0612,-7.1302,-7.3316,-7.3642,-7.3972,-7.4393,-7.4694,-7.5063,-7.5495,-7.8192,-7.9671,-7.9576,-8.141,-8.1482,-7.9505,-7.7263,-7.4613,-7.1727,-7.2198,-7.2827,-7.3517,-7.5168,-7.6999,-7.8864,-7.9971,-8.0854,-8.1429,-8.1749,-8.1553,-8.106,-8.0966,-8.0459,-7.9593,-7.8037,-7.7012,-7.6056,-7.3912,-7.2269,-7.0611,-6.7846,-6.5557,-6.3507,-6.1417,-5.9441,-5.7687,-5.6892,-5.5408,-5.39,-5.3118,-5.0902,-4.8596,-4.7419,-4.4047,-4.0548,-3.8605,-3.7748,-3.7225,-3.6696,-3.6262,-3.5636,-3.4454,-3.4631,-3.4815,-3.4608,-3.5178,-3.5865,-3.648,-3.6586,-3.6909,-3.7789,-3.836,0.0,0.0,0.0,-4.4345,-4.8009,-4.985,-5.072,-5.0531,-5.1409,-5.171,-5.1453,-5.0949,-5.0821,-5.1068,-5.024,-4.9635,-4.9266,-4.8677,-4.8193,-4.7849,-4.725,-4.6653,-4.5928,-4.4654,-4.3995,-4.3462,-4.2062,-4.1463,-4.123,-4.0372,-3.9899,-3.9696,-5.5071,-5.4173,-5.3626,-5.4236,-5.4319,-5.5103,-5.759,-5.8677,-6.0747,-6.4739,-6.6988,-6.9469,-7.2844,-7.3,-7.3459,-7.472,-7.5108,-7.523,-7.5132,-7.5166,-7.5334,-7.5742,-7.8411,-7.9991,-8.0153,-8.2204,-8.2447,-8.0831,-7.7869,-7.5362,-7.3545,-7.3938,-7.4462,-7.5198,-7.6903,-7.8559,-8.0073,-8.1689,-8.2513,-8.278,-8.3406,-8.2939,-8.2013,-8.1887,-8.1088,-7.9902,-7.8385,-7.7172,-7.6025,-7.4346,-7.2612,-7.06,-6.8154,-6.5664,-6.3129,-6.0893,-5.8959,-5.7286,-5.6151,-5.4656,-5.319,-5.2097,-5.0024,-4.7732,-4.54,-4.2089,-3.8993,-3.747,-3.6585,-3.5815,-3.4866,-3.4199,-3.3427,-3.2291,-3.1649,-3.1283,-3.1182,-3.1321,-3.1528,-3.1869,-3.2532,-3.3244,-3.4102,-3.5259,-3.6405,-3.7486,0.0,-4.1478,-4.4296,-4.6857,-4.833,-4.8537,-4.9336,-4.963,-4.9338,-4.8842,-4.8782,-4.8989,-4.8061,-4.7595,-4.7629,-4.7121,-4.6839,-4.6679,-4.6011,-4.5501,-4.4976,-4.3799,-4.3069,-4.2544,-4.154,-4.0919,-4.0607,-4.0059,-3.9509,-3.9035,-5.4729,-5.4202,-5.3839,-5.3852,-5.4565,-5.5721,-5.7363,-5.9578,-6.2179,-6.5327,-6.8244,-7.1175,-7.453,-7.571,-7.6166,-7.606,-7.6903,-7.7159,-7.6462,-7.6066,-7.642,-7.764,-7.8579,-7.9877,-8.1471,-8.2846,-8.2936,-8.1751,-7.8385,-7.67,-7.6554,-7.5448,-7.5346,-7.6154,-7.8267,-7.9583,-8.0498,-8.2739,-8.3766,-8.3831,-8.4218,-8.3705,-8.267,-8.2359,-8.1369,-7.9934,-7.8894,-7.749,-7.587,-7.4874,-7.2768,-7.0282,-6.8509,-6.5796,-6.279,-6.0455,-5.8541,-5.6976,-5.597,-5.4565,-5.2916,-5.0942,-4.9001,-4.6526,-4.2113,-3.9696,-3.7926,-3.6559,-3.5654,-3.4528,-3.2771,-3.1817,-3.0999,-2.9923,-2.8718,-2.7752,-2.7353,-2.7332,-2.7238,-2.6987,-2.8305,-2.9551,-3.0333,-3.1971,-3.3407,-3.4428,0.0,-3.8437,-3.9584,-4.2919,-4.556,-4.7401,-4.7254,-4.7458,-4.8249,-4.7419,-4.7153,-4.7335,-4.6276,-4.5826,-4.5874,-4.5202,-4.498,-4.5113,-4.4683,-4.4074,-4.3392,-4.2944,-4.2059,-4.0977,-4.0899,-4.0452,-3.9786,-3.9786,-3.9235,-3.8524,-5.4794,-5.4202,-5.3952,-5.432,-5.4884,-5.6125,-5.8826,-6.0018,-6.2055,-6.6056,-6.8835,-7.157,-7.4411,-7.6535,-7.7836,-7.7957,-7.7797,-7.7423,-7.6895,-7.7034,-7.716,-7.7113,-7.9041,-8.0474,-8.1075,-8.2672,-8.2789,-8.13,-7.9674,-7.8476,-7.7814,-7.7557,-7.7995,-7.907,-8.0105,-8.1443,-8.2899,-8.3768,-8.4251,-8.4603,-8.4889,-8.4271,-8.3072,-8.3011,-8.1739,-7.9995,-7.9199,-7.7797,-7.6212,-7.5215,-7.3385,-7.1139,-6.8455,-6.64,-6.4331,-6.102,-5.8264,-5.5861,-5.4195,-5.3017,-5.1557,-4.8984,-4.6093,-4.3108,-4.0258,-3.8398,-3.685,-3.5328,-3.3954,-3.254,-3.0898,-2.983,-2.8562,-2.6724,-2.5945,-2.5133,-2.3857,-2.418,-2.4389,-2.3925,-2.5254,-2.65,-2.725,-2.8837,-3.035,-3.1704,-3.3114,-3.4858,-3.7038,-3.8459,-4.0942,-4.4814,-4.5095,-4.5366,-4.5698,-4.4712,-4.4128,-4.3831,-4.427,-4.4414,-4.4142,-4.4043,-4.407,-4.4179,-4.3465,-4.2928,-4.2488,-4.1522,-4.0758,-4.008,-3.9185,-3.8855,-3.8884,-3.8259,-3.7867,-3.7614,-5.506,-5.4316,-5.4108,-5.48,-5.5323,-5.6523,-5.9029,-6.0501,-6.2737,-6.6402,-6.9429,-7.2288,-7.5049,-7.7273,-7.8963,-7.9783,-7.9307,-7.8809,-7.8222,-7.8612,-7.8717,-7.8267,-8.002,-8.1033,-8.1217,-8.2527,-8.2719,-8.1625,-8.0744,-8.011,-7.9584,-7.9384,-7.9797,-8.0782,-8.1513,-8.2584,-8.3962,-8.4665,-8.5016,-8.5237,-8.5488,-8.4744,-8.3587,-8.3339,-8.2098,-8.0446,-7.9722,-7.831,-7.6588,-7.5931,-7.4004,-7.1445,-6.8788,-6.6433,-6.4009,-6.0756,-5.8295,-5.6025,-5.3577,-5.2091,-5.039,-4.6834,-4.3675,-4.0953,-3.9065,-3.705,-3.523,-3.3886,-3.2484,-3.0873,-2.9024,-2.7787,-2.6318,-2.4157,-2.2457,-2.1131,-2.0184,-2.0061,-2.02,-2.0431,-2.2127,-2.3689,-2.4696,-2.642,-2.8034,-2.947,-3.0804,-3.2525,-3.4733,-3.5602,-3.7919,-4.2112,-4.2568,-4.2851,-4.3089,-4.2702,-4.2396,-4.2281,-4.2571,-4.2681,-4.2432,-4.2388,-4.2408,-4.2456,-4.1867,-4.1431,-4.1056,-4.0241,-3.9612,-3.9032,-3.8366,-3.8115,-3.7992,-3.7371,-3.6982,-3.6809,-5.5059,-5.4491,-5.4255,-5.5146,-5.5842,-5.6941,-5.8903,-6.1222,-6.3707,-6.6728,-6.9991,-7.3124,-7.5896,-7.8034,-7.9846,-8.1165,-8.1234,-8.0812,-7.9952,-8.0361,-8.0502,-8.0193,-8.1136,-8.1715,-8.1695,-8.2523,-8.2769,-8.2282,-8.1733,-8.1556,-8.1662,-8.1115,-8.1405,-8.2279,-8.2841,-8.3641,-8.4679,-8.5509,-8.5926,-8.6024,-8.5864,-8.5223,-8.4361,-8.3607,-8.2521,-8.1181,-8.0522,-7.9006,-7.7214,-7.6619,-7.4499,-7.1751,-6.9301,-6.631,-6.315,-6.018,-5.8306,-5.654,-5.3407,-5.1082,-4.8566,-4.4787,-4.1754,-3.9304,-3.7916,-3.5692,-3.3552,-3.2394,-3.0976,-2.9293,-2.7211,-2.5618,-2.3927,-2.1643,-1.8982,-1.7032,-1.6511,-1.6026,-1.6102,-1.7174,-1.9226,-2.1133,-2.2562,-2.4438,-2.6139,-2.7426,-2.9016,-3.0698,-3.2474,-3.3595,-3.5614,-3.8828,-3.9733,-4.0299,-4.0612,-4.0952,-4.111,-4.1212,-4.1007,-4.0826,-4.0847,-4.0583,-4.0508,-4.0521,-4.0116,-3.9823,-3.949,-3.9101,-3.8516,-3.7798,-3.7722,-3.7454,-3.7108,-3.6723,-3.6356,-3.6022,-5.4145,-5.4347,-5.4621,-5.5235,-5.6444,-5.7982,-5.9863,-6.185,-6.4324,-6.7679,-7.0694,-7.3566,-7.6359,-7.8916,-8.0708,-8.17,-8.3173,-8.3235,-8.1308,-8.1736,-8.1891,-8.1589,-8.2081,-8.2417,-8.2675,-8.3096,-8.3251,-8.3221,-8.2857,-8.3052,-8.3696,-8.3015,-8.3573,-8.5126,-8.4989,-8.5462,-8.6453,-8.6303,-8.659,-8.7081,-8.6183,-8.5734,-8.5476,-8.4426,-8.3185,-8.1915,-8.1215,-8.0045,-7.8471,-7.6651,-7.4622,-7.2328,-6.9428,-6.6612,-6.3772,-6.0345,-5.8019,-5.5883,-5.277,-4.8401,-4.4407,-4.2916,-4.0172,-3.7374,-3.5694,-3.4146,-3.2544,-3.08,-2.8957,-2.7053,-2.5335,-2.2994,-2.0633,-1.83,-1.6704,-1.5088,-1.3141,-1.3809,-1.4701,-1.5353,-1.723,-1.9232,-2.1191,-2.2688,-2.4085,-2.5439,-2.7068,-2.8676,-3.0156,-3.1684,-3.2995,-3.3942,-3.6352,-3.7908,-3.8465,-3.8908,-3.9006,-3.867,-3.9088,-3.9276,-3.9229,-3.8979,-3.9059,-3.9354,-3.8652,-3.8353,-3.8213,-3.7865,-3.7239,-3.6477,-3.6103,-3.5926,-3.5851,-3.5392,-3.5432,-3.5634,-5.5262,-5.5346,-5.5609,-5.6269,-5.7442,-5.8971,-6.0884,-6.2831,-6.5012,-6.7869,-7.0762,-7.3512,-7.6072,-7.8597,-8.0527,-8.175,-8.2973,-8.3513,-8.3247,-8.3793,-8.369,-8.2832,-8.3252,-8.3514,-8.3452,-8.3563,-8.364,-8.364,-8.4002,-8.4321,-8.4705,-8.4751,-8.5497,-8.6627,-8.6501,-8.7039,-8.7959,-8.7816,-8.7911,-8.8112,-8.7299,-8.6696,-8.6287,-8.5198,-8.4017,-8.2935,-8.2237,-8.0998,-7.9416,-7.8093,-7.5932,-7.3352,-7.0679,-6.7547,-6.4272,-6.1251,-5.7158,-5.3103,-5.0545,-4.6831,-4.3228,-4.1259,-3.8724,-3.6192,-3.4144,-3.247,-3.0846,-2.904,-2.727,-2.5324,-2.3142,-2.0915,-1.8628,-1.6251,-1.4059,-1.2305,-1.142,-1.1619,-1.2258,-1.3376,-1.5552,-1.7685,-1.9449,-2.1072,-2.2595,-2.3948,-2.5603,-2.7198,-2.8807,-3.0139,-3.1254,-3.2046,-3.4492,-3.6054,-3.6593,-3.7038,-3.7126,-3.6971,-3.7192,-3.736,-3.7333,-3.7441,-3.7665,-3.781,-3.7725,-3.7451,-3.7015,-3.6812,-3.6275,-3.553,-3.5381,-3.5264,-3.5215,-3.4854,-3.4654,-3.4657,-5.6404,-5.6546,-5.6772,-5.7725,-5.8907,-6.0319,-6.2128,-6.3963,-6.6051,-6.8462,-7.1263,-7.3951,-7.6393,-7.8694,-8.0751,-8.2193,-8.2984,-8.3852,-8.4799,-8.5363,-8.5225,-8.4069,-8.4314,-8.4277,-8.3938,-8.4012,-8.4086,-8.416,-8.4893,-8.5409,-8.5728,-8.63,-8.7029,-8.7858,-8.7791,-8.8298,-8.924,-8.9136,-8.9292,-8.9453,-8.8575,-8.7943,-8.735,-8.6133,-8.5011,-8.3956,-8.3003,-8.1761,-8.0333,-7.9195,-7.6995,-7.4222,-7.1875,-6.8514,-6.489,-6.2093,-5.6837,-5.1335,-4.9014,-4.6043,-4.2978,-4.0163,-3.7703,-3.535,-3.2875,-3.0978,-2.9252,-2.741,-2.5644,-2.365,-2.1154,-1.9042,-1.6902,-1.4374,-1.1784,-1.0044,-0.999,-0.9735,-1.0222,-1.1886,-1.4159,-1.6233,-1.799,-1.9781,-2.1376,-2.274,-2.433,-2.5944,-2.7504,-2.8639,-2.9842,-3.1117,-3.3124,-3.444,-3.4864,-3.5355,-3.5568,-3.55,-3.5568,-3.5568,-3.5519,-3.587,-3.6058,-3.619,-3.6565,-3.6423,-3.5903,-3.5903,-3.553,-3.4857,-3.4857,-3.4782,-3.4632,-3.4273,-3.3947,-3.3839,-5.6432,-5.74,-5.8317,-5.9343,-6.0701,-6.2216,-6.3751,-6.5409,-6.7588,-7.0546,-7.2964,-7.5534,-7.8465,-8.0571,-8.2193,-8.3436,-8.4818,-8.5622,-8.5435,-8.5863,-8.5845,-8.5488,-8.4833,-8.4277,-8.3938,-8.4277,-8.4643,-8.5039,-8.54,-8.6188,-8.7247,-8.7303,-8.804,-8.9316,-8.8977,-8.9372,-9.037,-8.9979,-9.0414,-9.1162,-8.9851,-8.9249,-8.9028,-8.7382,-8.6102,-8.4978,-8.328,-8.2234,-8.1221,-7.8846,-7.6679,-7.4563,-7.2167,-6.9103,-6.5751,-6.2595,-5.7598,-5.2547,-5.0046,-4.644,-4.2756,-4.0283,-3.7528,-3.4606,-3.1779,-2.9846,-2.814,-2.6133,-2.3944,-2.1795,-1.9797,-1.7374,-1.4883,-1.2257,-1.0419,-0.9079,-0.8233,-0.8414,-0.9481,-1.157,-1.3106,-1.4939,-1.7474,-1.9025,-2.0339,-2.1609,-2.332,-2.4741,-2.5864,-2.7181,-2.8685,-3.0411,-3.1969,-3.2906,-3.3292,-3.4078,-3.4301,-3.3955,-3.437,-3.4301,-3.3955,-3.3957,-3.4215,-3.4577,-3.4573,-3.4836,-3.5082,-3.5082,-3.4875,-3.4441,-3.4441,-3.4215,-3.3837,-3.3441,-3.3508,-3.3785,-5.7025,-5.8665,-6.0202,-6.092,-6.2758,-6.4727,-6.6207,-6.7349,-6.8968,-7.118,-7.2968,-7.4999,-7.7519,-7.9754,-8.158,-8.2962,-8.429,-8.5205,-8.5536,-8.5507,-8.5408,-8.5292,-8.5016,-8.4893,-8.5039,-8.4783,-8.4783,-8.514,-8.5338,-8.5962,-8.709,-8.7747,-8.8895,-9.0453,-9.0562,-9.1024,-9.1781,-9.1602,-9.179,-9.2078,-9.06,-8.974,-8.9244,-8.7661,-8.6164,-8.4803,-8.3943,-8.2734,-8.1433,-8.0076,-7.7933,-7.5557,-7.3416,-7.0338,-6.6384,-6.117,-5.7037,-5.3416,-5.0324,-4.6743,-4.3095,-4.029,-3.7169,-3.4111,-3.125,-2.92,-2.7358,-2.5426,-2.3005,-2.0744,-1.8802,-1.6244,-1.3746,-1.1714,-0.9895,-0.8628,-0.8341,-0.8454,-0.9249,-1.1043,-1.2606,-1.4427,-1.6747,-1.8066,-1.9459,-2.094,-2.2404,-2.3746,-2.5028,-2.6807,-2.8245,-2.9393,-3.0361,-3.1436,-3.2492,-3.2791,-3.3008,-3.3121,-3.326,-3.326,-3.3139,-3.3643,-3.3784,-3.3709,-3.4436,-3.4566,-3.4255,-3.4499,-3.4348,-3.4064,-3.4064,-3.3744,-3.3441,-3.3272,-3.284,-3.2406,-5.7555,-5.9505,-6.1486,-6.261,-6.466,-6.6677,-6.8436,-6.936,-7.0493,-7.2313,-7.356,-7.5193,-7.7719,-7.9635,-8.1387,-8.2951,-8.3981,-8.4784,-8.5421,-8.5388,-8.5256,-8.5256,-8.5256,-8.538,-8.5552,-8.5086,-8.4995,-8.5196,-8.5496,-8.6202,-8.7451,-8.857,-8.9899,-9.1282,-9.172,-9.2214,-9.2762,-9.2762,-9.2822,-9.2815,-9.1689,-9.0653,-8.97,-8.8403,-8.6738,-8.5024,-8.437,-8.3098,-8.1637,-8.095,-7.8933,-7.6302,-7.4407,-7.0616,-6.584,-6.0574,-5.711,-5.4236,-5.0733,-4.7389,-4.4074,-4.0561,-3.731,-3.4156,-3.1211,-2.8874,-2.6729,-2.4577,-2.2201,-1.9871,-1.7838,-1.5416,-1.3186,-1.1571,-0.9815,-0.8646,-0.8658,-0.8765,-0.9366,-1.0893,-1.2504,-1.425,-1.6276,-1.7553,-1.8852,-2.0357,-2.1574,-2.2972,-2.4609,-2.63,-2.7629,-2.8648,-2.9146,-3.005,-3.1513,-3.1809,-3.2001,-3.214,-3.214,-3.207,-3.2034,-3.2798,-3.2982,-3.2707,-3.3926,-3.4105,-3.3651,-3.4064,-3.4064,-3.3761,-3.3761,-3.3517,-3.3196,-3.2892,-3.2222,-3.152,-5.7977,-5.9766,-6.1875,-6.4431,-6.6104,-6.7894,-7.0323,-7.1238,-7.2368,-7.4249,-7.5119,-7.6727,-7.9598,-8.0694,-8.1945,-8.3729,-8.4277,-8.4643,-8.5111,-8.5503,-8.5719,-8.5719,-8.5719,-8.5521,-8.519,-8.5159,-8.5265,-8.5326,-8.5958,-8.7052,-8.8506,-8.9869,-9.09,-9.1658,-9.2337,-9.2762,-9.3096,-9.3096,-9.3275,-9.3571,-9.3241,-9.2187,-9.0816,-8.98,-8.7985,-8.5939,-8.4564,-8.322,-8.1997,-8.122,-7.9188,-7.6734,-7.4998,-6.9878,-6.3947,-6.1167,-5.8216,-5.5094,-5.1383,-4.8583,-4.5674,-4.1288,-3.791,-3.4827,-3.1781,-2.8974,-2.6298,-2.3703,-2.1376,-1.9153,-1.6888,-1.4951,-1.3186,-1.1571,-1.0186,-0.9265,-0.9038,-0.9186,-0.9815,-1.1263,-1.2698,-1.4317,-1.6207,-1.7508,-1.8701,-1.9903,-2.0903,-2.2391,-2.4473,-2.5523,-2.6786,-2.8233,-2.8233,-2.8916,-3.037,-3.1206,-3.1418,-3.101,-3.101,-3.0797,-3.0387,-3.1185,-3.1515,-3.1548,-3.2726,-3.3196,-3.3196,-3.3592,-3.3761,-3.3761,-3.3761,-3.3517,-3.312,-3.2283,-3.1763,-3.1366,-5.796,-6.0341,-6.2861,-6.5259,-6.743,-6.9704,-7.2223,-7.2827,-7.3617,-7.5194,-7.5619,-7.6655,-7.9003,-8.0241,-8.1661,-8.34,-8.4129,-8.4789,-8.5503,-8.5647,-8.5934,-8.6432,-8.629,-8.6165,-8.633,-8.5636,-8.5632,-8.6392,-8.6132,-8.6853,-8.8539,-8.9635,-9.0816,-9.1968,-9.2849,-9.3419,-9.3714,-9.3714,-9.3772,-9.3797,-9.2962,-9.1892,-9.0774,-8.9374,-8.7412,-8.5268,-8.4341,-8.2822,-8.1127,-8.049,-7.8866,-7.6624,-7.337,-6.8879,-6.4336,-6.1783,-5.8767,-5.5429,-5.177,-4.9092,-4.6345,-4.1924,-3.8724,-3.5695,-3.2217,-2.9476,-2.699,-2.4363,-2.1897,-1.952,-1.7483,-1.5309,-1.3359,-1.1897,-1.0828,-1.0149,-0.9958,-1.0154,-1.0747,-1.1825,-1.3109,-1.444,-1.5908,-1.6956,-1.8128,-1.9565,-2.12,-2.2726,-2.4136,-2.5095,-2.6096,-2.7107,-2.7827,-2.868,-2.9656,-3.0178,-3.046,-3.0584,-3.0584,-3.0513,-3.0387,-3.092,-3.0989,-3.0803,-3.1721,-3.2218,-3.2467,-3.2843,-3.3296,-3.3761,-3.3517,-3.2986,-3.2316,-3.1545,-3.0785,-3.0099,-5.8188,-6.064,-6.3265,-6.5558,-6.8015,-7.0394,-7.2877,-7.3703,-7.4577,-7.5735,-7.5849,-7.6624,-7.874,-7.9945,-8.1302,-8.3251,-8.4203,-8.5039,-8.5647,-8.5862,-8.6219,-8.6752,-8.6893,-8.6781,-8.6452,-8.5805,-8.5733,-8.6071,-8.6339,-8.7146,-8.8504,-9.0075,-9.1379,-9.2486,-9.3326,-9.3889,-9.4213,-9.4063,-9.4005,-9.3913,-9.3181,-9.2135,-9.0948,-8.9774,-8.7701,-8.5349,-8.4688,-8.2996,-8.0967,-8.045,-7.8481,-7.5624,-7.2432,-6.8509,-6.4755,-6.2497,-5.9362,-5.5817,-5.2245,-4.9672,-4.6914,-4.2472,-3.9265,-3.626,-3.2774,-2.9981,-2.732,-2.4527,-2.2025,-1.9711,-1.7816,-1.5724,-1.3948,-1.2847,-1.1955,-1.1317,-1.1027,-1.1316,-1.1837,-1.2639,-1.3802,-1.4978,-1.6245,-1.718,-1.8365,-2.0145,-2.1453,-2.2726,-2.3914,-2.4774,-2.5662,-2.6546,-2.757,-2.8417,-2.9066,-2.9289,-2.9715,-3.0228,-3.0014,-2.9942,-2.9959,-3.0227,-3.0171,-2.9968,-3.0631,-3.1151,-3.1625,-3.2076,-3.2743,-3.3517,-3.3272,-3.2676,-3.1776,-3.093,-3.0006,-2.9153,-5.8821,-6.0813,-6.3178,-6.5596,-6.7941,-7.028,-7.2612,-7.4115,-7.5249,-7.6086,-7.6004,-7.6671,-7.8786,-7.9631,-8.0959,-8.2981,-8.432,-8.5256,-8.5719,-8.6148,-8.6502,-8.6893,-8.7492,-8.7199,-8.593,-8.5898,-8.5624,-8.5051,-8.6629,-8.7885,-8.871,-9.0995,-9.2426,-9.3055,-9.3772,-9.4202,-9.4397,-9.4179,-9.4029,-9.3903,-9.3714,-9.2692,-9.1315,-9.0632,-8.8587,-8.5995,-8.5325,-8.3498,-8.1275,-8.0836,-7.7916,-7.4077,-7.2151,-6.8776,-6.5169,-6.3267,-6.0011,-5.6237,-5.2749,-5.0237,-4.7503,-4.3083,-3.9825,-3.6816,-3.3498,-3.0466,-2.7452,-2.4476,-2.2078,-1.996,-1.8027,-1.6282,-1.4901,-1.4269,-1.3366,-1.2687,-1.2345,-1.263,-1.3072,-1.3661,-1.4742,-1.5877,-1.7033,-1.7992,-1.9295,-2.1285,-2.1645,-2.248,-2.3885,-2.4609,-2.5413,-2.65,-2.7458,-2.8202,-2.8635,-2.8635,-2.8995,-2.9855,-2.9441,-2.9298,-2.9314,-2.9252,-2.9174,-2.919,-2.9517,-3.01,-3.0807,-3.1259,-3.209,-3.312,-3.312,-3.2449,-3.1367,-3.0505,-2.9427,-2.8315,-6.0013,-6.1726,-6.3686,-6.625,-6.841,-7.0583,-7.2917,-7.4338,-7.5467,-7.6521,-7.6718,-7.7278,-7.8564,-7.91,-8.0155,-8.1946,-8.3678,-8.508,-8.6077,-8.6502,-8.6963,-8.7624,-8.7322,-8.6991,-8.6658,-8.6626,-8.6758,-8.6856,-8.7499,-8.859,-9.0119,-9.1474,-9.2547,-9.3445,-9.4063,-9.4215,-9.3983,-9.4226,-9.4044,-9.3475,-9.3569,-9.303,-9.1991,-9.0726,-8.8798,-8.6744,-8.5628,-8.371,-8.1424,-7.9711,-7.722,-7.4448,-7.3001,-6.9623,-6.5778,-6.3353,-6.0322,-5.6876,-5.3151,-5.0585,-4.8009,-4.445,-4.1274,-3.795,-3.4044,-3.1408,-2.8977,-2.5899,-2.3825,-2.184,-1.9345,-1.7886,-1.6607,-1.5318,-1.4625,-1.4113,-1.3665,-1.409,-1.4489,-1.4668,-1.5691,-1.6689,-1.742,-1.8694,-2.0027,-2.1246,-2.1799,-2.2837,-2.4623,-2.5072,-2.5641,-2.65,-2.6967,-2.7565,-2.8202,-2.7985,-2.8346,-2.9441,-2.8995,-2.8995,-2.9298,-2.9305,-2.9105,-2.8816,-2.8894,-2.9357,-3.0084,-3.0442,-3.1259,-3.2299,-3.2299,-3.1782,-3.0823,-2.9501,-2.8566,-2.7932,-6.0792,-6.2142,-6.3899,-6.6319,-6.8268,-7.0329,-7.2742,-7.4212,-7.5477,-7.649,-7.677,-7.722,-7.8209,-7.867,-7.9723,-8.1657,-8.3191,-8.4536,-8.5791,-8.6142,-8.6825,-8.783,-8.7398,-8.7165,-8.7179,-8.6953,-8.6821,-8.6655,-8.7608,-8.8754,-9.0006,-9.1408,-9.2547,-9.3503,-9.4005,-9.3999,-9.3597,-9.3725,-9.3486,-9.3055,-9.2629,-9.2252,-9.1778,-9.049,-8.8677,-8.6679,-8.5907,-8.3988,-8.1447,-7.9271,-7.7188,-7.5214,-7.3243,-6.9988,-6.647,-6.4246,-6.0938,-5.7225,-5.4236,-5.1262,-4.8207,-4.4976,-4.2023,-3.894,-3.5211,-3.251,-3.0,-2.7204,-2.5224,-2.3291,-2.1094,-1.9547,-1.8214,-1.7162,-1.6371,-1.5739,-1.5317,-1.5608,-1.5918,-1.6021,-1.6855,-1.7723,-1.8591,-1.9562,-2.0493,-2.1393,-2.2019,-2.3008,-2.4501,-2.511,-2.5696,-2.6431,-2.6968,-2.7492,-2.784,-2.7695,-2.8149,-2.9246,-2.8857,-2.8923,-2.9298,-2.8938,-2.8635,-2.8362,-2.8006,-2.8206,-2.8927,-2.9305,-3.0221,-3.1385,-3.154,-3.118,-3.039,-2.9151,-2.7944,-2.6843,-6.1251,-6.2588,-6.4139,-6.6233,-6.8067,-7.0004,-7.2274,-7.3782,-7.5116,-7.6201,-7.6363,-7.682,-7.7837,-7.8537,-7.9692,-8.1649,-8.2916,-8.4031,-8.5042,-8.556,-8.6363,-8.7585,-8.7352,-8.724,-8.7307,-8.7006,-8.6604,-8.5984,-8.7529,-8.8741,-8.9592,-9.12,-9.2525,-9.351,-9.3685,-9.3555,-9.3053,-9.2816,-9.2668,-9.2498,-9.168,-9.1362,-9.1294,-9.024,-8.8609,-8.6769,-8.631,-8.4366,-8.1701,-7.9411,-7.7698,-7.6085,-7.3401,-7.0268,-6.7255,-6.5113,-6.1434,-5.7454,-5.5194,-5.1952,-4.8498,-4.5552,-4.2753,-3.9978,-3.6974,-3.3871,-3.0959,-2.8603,-2.6633,-2.4748,-2.3051,-2.1334,-1.9964,-1.9286,-1.8317,-1.7524,-1.7163,-1.7155,-1.7247,-1.7513,-1.8098,-1.8886,-1.9787,-2.0401,-2.1005,-2.1749,-2.238,-2.3235,-2.438,-2.5132,-2.5765,-2.6458,-2.7129,-2.755,-2.7623,-2.761,-2.8067,-2.9074,-2.8842,-2.9023,-2.9472,-2.8676,-2.824,-2.8109,-2.7348,-2.7265,-2.7719,-2.8147,-2.9016,-3.0239,-3.079,-3.0574,-2.997,-2.9008,-2.7515,-2.5896,-6.1559,-6.3312,-6.4872,-6.6166,-6.8329,-7.0366,-7.1737,-7.3124,-7.4452,-7.5488,-7.5917,-7.652,-7.7534,-7.9155,-8.0562,-8.1482,-8.2781,-8.3814,-8.4286,-8.5249,-8.6023,-8.6616,-8.6501,-8.6595,-8.6974,-8.6877,-8.6788,-8.6656,-8.7771,-8.8981,-9.0285,-9.1472,-9.2489,-9.3305,-9.3134,-9.2577,-9.1755,-9.1885,-9.1726,-9.1348,-9.1296,-9.1477,-9.1636,-9.055,-8.942,-8.8272,-8.7159,-8.5168,-8.2788,-8.0695,-7.8957,-7.7162,-7.4161,-7.0928,-6.7711,-6.4955,-6.1351,-5.7729,-5.5269,-5.2413,-4.9518,-4.6922,-4.4204,-4.1673,-3.9911,-3.6123,-3.2428,-3.039,-2.8518,-2.6816,-2.5072,-2.3397,-2.1965,-2.1339,-2.0119,-1.9181,-1.8874,-1.859,-1.8477,-1.882,-1.9531,-2.0091,-2.0199,-2.1028,-2.1786,-2.2439,-2.3104,-2.4117,-2.5496,-2.5657,-2.6123,-2.691,-2.6983,-2.7274,-2.7623,-2.7555,-2.794,-2.8648,-2.8967,-2.9446,-3.0098,-2.9313,-2.8791,-2.8402,-2.7937,-2.7383,-2.6744,-2.7557,-2.8097,-2.8574,-2.97,-2.9992,-2.9647,-2.8318,-2.7318,-2.6416,-6.207,-6.3553,-6.5162,-6.6949,-6.8408,-6.997,-7.1835,-7.2842,-7.3788,-7.4792,-7.5641,-7.633,-7.7063,-7.8891,-8.0355,-8.092,-8.2103,-8.3027,-8.3638,-8.4658,-8.5583,-8.6395,-8.6146,-8.64,-8.7091,-8.6713,-8.6717,-8.711,-8.7884,-8.8972,-9.0404,-9.0774,-9.1643,-9.2734,-9.2269,-9.1546,-9.0785,-9.0844,-9.081,-9.0583,-9.0369,-9.0663,-9.1081,-9.0165,-8.9036,-8.7685,-8.5999,-8.435,-8.2698,-8.1061,-7.9425,-7.7544,-7.4501,-7.1661,-6.8904,-6.5585,-6.2114,-5.8753,-5.6066,-5.3102,-5.0234,-4.7931,-4.515,-4.2534,-4.1022,-3.814,-3.5145,-3.2637,-3.0565,-2.8708,-2.7156,-2.5786,-2.4528,-2.3515,-2.2692,-2.1974,-2.1454,-2.1045,-2.0797,-2.0651,-2.0755,-2.0825,-2.0989,-2.165,-2.2281,-2.2538,-2.3546,-2.4563,-2.5419,-2.5873,-2.6471,-2.7261,-2.7261,-2.7423,-2.7733,-2.7746,-2.8057,-2.8822,-2.8761,-2.9033,-2.9586,-2.9227,-2.8627,-2.7798,-2.7058,-2.6539,-2.6121,-2.636,-2.7014,-2.7962,-2.902,-2.9607,-2.965,-2.8696,-2.7717,-2.6813]}]]